[[{"header":{"parameterUnit":"m.s-1","parameterCategory":1,"la1":30.6,"la2":29.2853,"lo1":-89.7004,"lo2":-87.6739,"dy":0.0162,"dx":0.0183,"nx":112,"ny":82,"refTime":"2023-03-02T06:00:00:Z","depth":0,"parameterNumber":2,"parameterNumberName":"U-component_of_WINDS"},"data":[0.0,0.0,0.0,0.0,0.0,0.0,0.0,0.0,0.0,0.0,0.0,0.0,0.0,0.0,0.0,0.0,0.0,0.0,0.0,0.0,0.0,0.0,0.0,0.0,0.0,0.0,0.0,0.0,0.0,0.0,0.0,0.0,0.0,0.0,0.0,0.0,0.0,0.0,0.0,0.0,0.0,0.0,0.0,0.0,0.0,0.0,0.0,0.0,0.0,0.0,0.0,0.0,0.0,0.0,0.0,0.0,0.0,0.0,0.0,0.0,0.0,0.0,0.0,0.0,0.0,0.0,0.0,0.0,0.0,0.0,0.0,0.0,0.0,0.0,0.0,0.0,0.0,0.0,0.0,0.0,0.0,0.0,0.0,0.0,0.0,0.0,0.0,0.0,0.0,0.0,-3.4612,-3.4612,-3.4697,-3.4768,-3.4768,-3.4768,-3.479,-3.486,0.0,0.0,0.0,0.0,0.0,0.0,0.0,0.0,0.0,0.0,0.0,0.0,0.0,0.0,0.0,0.0,0.0,0.0,0.0,0.0,0.0,0.0,0.0,0.0,0.0,0.0,0.0,0.0,0.0,0.0,0.0,0.0,0.0,0.0,0.0,0.0,0.0,0.0,0.0,0.0,0.0,0.0,0.0,0.0,0.0,0.0,0.0,0.0,0.0,0.0,0.0,0.0,0.0,0.0,0.0,0.0,0.0,0.0,0.0,0.0,0.0,0.0,0.0,0.0,0.0,0.0,0.0,0.0,0.0,0.0,0.0,0.0,0.0,0.0,0.0,0.0,0.0,0.0,0.0,0.0,0.0,0.0,0.0,0.0,0.0,0.0,0.0,0.0,0.0,0.0,0.0,0.0,0.0,0.0,0.0,0.0,0.0,0.0,0.0,0.0,0.0,0.0,0.0,0.0,-3.4612,-3.4612,-3.4623,-3.4634,-3.4634,-3.4634,-3.4626,-3.4636,0.0,0.0,0.0,0.0,0.0,0.0,0.0,0.0,0.0,0.0,0.0,0.0,0.0,0.0,0.0,0.0,0.0,0.0,0.0,0.0,0.0,0.0,0.0,0.0,0.0,0.0,0.0,0.0,0.0,0.0,0.0,0.0,0.0,0.0,0.0,0.0,0.0,0.0,0.0,0.0,0.0,0.0,0.0,0.0,0.0,0.0,0.0,0.0,0.0,0.0,0.0,0.0,0.0,0.0,0.0,0.0,0.0,0.0,0.0,0.0,0.0,0.0,0.0,0.0,0.0,0.0,0.0,0.0,0.0,0.0,0.0,0.0,0.0,0.0,0.0,0.0,0.0,0.0,0.0,0.0,0.0,0.0,0.0,0.0,0.0,0.0,0.0,0.0,0.0,0.0,0.0,0.0,0.0,0.0,0.0,0.0,0.0,0.0,0.0,0.0,0.0,0.0,0.0,-3.4612,-3.4612,-3.4612,-3.4612,-3.4612,-3.4612,-3.4612,-3.4612,-3.4612,-3.4612,0.0,0.0,0.0,0.0,0.0,0.0,0.0,0.0,0.0,0.0,0.0,0.0,0.0,0.0,0.0,0.0,0.0,0.0,0.0,0.0,0.0,0.0,0.0,0.0,0.0,0.0,0.0,0.0,0.0,0.0,0.0,0.0,0.0,0.0,0.0,0.0,0.0,0.0,0.0,0.0,0.0,0.0,0.0,0.0,0.0,0.0,0.0,0.0,0.0,0.0,0.0,0.0,0.0,0.0,0.0,0.0,0.0,0.0,0.0,0.0,0.0,0.0,0.0,0.0,0.0,0.0,0.0,0.0,0.0,0.0,0.0,0.0,0.0,0.0,0.0,0.0,0.0,0.0,0.0,0.0,0.0,0.0,0.0,0.0,0.0,0.0,0.0,0.0,0.0,0.0,0.0,0.0,0.0,0.0,0.0,0.0,0.0,0.0,0.0,0.0,0.0,0.0,-3.4612,-3.4612,-3.4612,-3.4612,-3.4612,-3.4612,-3.4612,-3.4612,-3.4612,-3.4612,0.0,0.0,0.0,0.0,0.0,0.0,0.0,0.0,0.0,0.0,0.0,0.0,0.0,0.0,0.0,0.0,0.0,0.0,0.0,0.0,0.0,0.0,0.0,0.0,0.0,0.0,0.0,0.0,0.0,0.0,0.0,0.0,0.0,0.0,0.0,0.0,0.0,0.0,0.0,0.0,0.0,0.0,0.0,0.0,0.0,0.0,0.0,0.0,0.0,0.0,0.0,0.0,0.0,0.0,0.0,0.0,0.0,0.0,0.0,0.0,0.0,0.0,0.0,0.0,0.0,0.0,0.0,0.0,0.0,0.0,0.0,0.0,0.0,0.0,0.0,0.0,0.0,0.0,0.0,0.0,0.0,0.0,0.0,0.0,0.0,0.0,0.0,0.0,0.0,0.0,0.0,0.0,0.0,0.0,0.0,0.0,0.0,0.0,0.0,0.0,0.0,0.0,-3.4612,-3.4612,-3.4612,-3.4612,-3.4612,-3.4612,-3.4612,-3.4612,-3.4612,-3.4612,0.0,0.0,0.0,0.0,0.0,0.0,0.0,0.0,0.0,0.0,0.0,0.0,0.0,0.0,0.0,0.0,0.0,0.0,0.0,0.0,0.0,0.0,0.0,0.0,0.0,0.0,0.0,0.0,0.0,0.0,0.0,0.0,0.0,0.0,0.0,0.0,0.0,0.0,0.0,0.0,0.0,0.0,0.0,0.0,0.0,0.0,0.0,0.0,0.0,0.0,0.0,0.0,0.0,0.0,0.0,0.0,0.0,0.0,0.0,0.0,0.0,0.0,0.0,0.0,0.0,0.0,0.0,0.0,0.0,0.0,0.0,0.0,0.0,0.0,0.0,0.0,0.0,0.0,0.0,0.0,0.0,0.0,0.0,0.0,0.0,0.0,0.0,0.0,0.0,0.0,0.0,0.0,0.0,0.0,0.0,0.0,0.0,0.0,0.0,0.0,0.0,0.0,-3.5841,-3.5983,-3.5465,-3.5409,-3.5184,-3.465,-3.4612,-3.4612,-3.4612,0.0,0.0,0.0,0.0,0.0,0.0,0.0,0.0,0.0,0.0,0.0,0.0,0.0,0.0,0.0,0.0,0.0,0.0,0.0,0.0,0.0,0.0,0.0,0.0,0.0,0.0,0.0,0.0,0.0,0.0,0.0,0.0,0.0,0.0,0.0,0.0,0.0,0.0,0.0,0.0,0.0,0.0,0.0,0.0,0.0,0.0,0.0,0.0,0.0,0.0,0.0,0.0,0.0,0.0,0.0,0.0,0.0,0.0,0.0,0.0,0.0,0.0,0.0,0.0,0.0,0.0,0.0,0.0,0.0,0.0,0.0,0.0,0.0,0.0,0.0,0.0,0.0,0.0,0.0,0.0,0.0,0.0,0.0,0.0,0.0,0.0,0.0,0.0,0.0,0.0,0.0,0.0,0.0,0.0,0.0,0.0,0.0,0.0,0.0,0.0,0.0,0.0,-3.6273,-3.6761,-3.6885,-3.6329,-3.6273,-3.6028,-3.5439,-3.5157,-3.5015,-3.5015,0.0,0.0,0.0,0.0,0.0,0.0,0.0,0.0,0.0,0.0,0.0,0.0,0.0,0.0,0.0,0.0,0.0,0.0,0.0,0.0,0.0,0.0,0.0,0.0,0.0,0.0,0.0,0.0,0.0,0.0,0.0,0.0,0.0,0.0,0.0,0.0,0.0,0.0,0.0,0.0,0.0,0.0,0.0,0.0,0.0,0.0,0.0,0.0,0.0,0.0,0.0,0.0,0.0,0.0,0.0,0.0,0.0,0.0,0.0,0.0,0.0,0.0,0.0,0.0,0.0,0.0,0.0,0.0,0.0,0.0,0.0,0.0,0.0,0.0,0.0,0.0,0.0,0.0,0.0,0.0,0.0,0.0,0.0,0.0,0.0,0.0,0.0,0.0,0.0,0.0,0.0,0.0,0.0,0.0,0.0,0.0,0.0,0.0,0.0,0.0,0.0,0.0,-3.711,-3.7129,-3.7129,-3.711,-3.711,-3.711,-3.711,-3.6366,-3.5916,0.0,0.0,0.0,0.0,0.0,0.0,0.0,0.0,0.0,0.0,0.0,0.0,0.0,0.0,0.0,0.0,0.0,0.0,0.0,0.0,0.0,0.0,0.0,0.0,0.0,0.0,0.0,0.0,0.0,0.0,0.0,0.0,0.0,0.0,0.0,0.0,0.0,0.0,0.0,0.0,0.0,0.0,0.0,0.0,0.0,0.0,0.0,0.0,0.0,0.0,0.0,0.0,0.0,0.0,0.0,0.0,0.0,0.0,0.0,0.0,0.0,0.0,0.0,0.0,0.0,0.0,0.0,0.0,0.0,0.0,0.0,0.0,0.0,0.0,0.0,0.0,0.0,0.0,0.0,0.0,0.0,0.0,0.0,0.0,0.0,0.0,0.0,0.0,0.0,0.0,0.0,0.0,0.0,0.0,0.0,0.0,0.0,0.0,0.0,0.0,0.0,0.0,0.0,-3.7943,-3.8481,-3.8631,-3.8019,-3.7943,-3.7718,-3.7148,-3.6885,-3.6753,-3.6753,0.0,0.0,0.0,0.0,0.0,0.0,0.0,0.0,0.0,0.0,0.0,0.0,0.0,0.0,0.0,0.0,0.0,0.0,0.0,0.0,0.0,0.0,0.0,0.0,0.0,0.0,0.0,0.0,0.0,0.0,0.0,0.0,0.0,0.0,0.0,0.0,0.0,0.0,0.0,0.0,0.0,0.0,0.0,0.0,0.0,0.0,0.0,0.0,0.0,0.0,0.0,0.0,0.0,0.0,0.0,0.0,0.0,0.0,0.0,0.0,0.0,0.0,0.0,0.0,0.0,0.0,0.0,0.0,0.0,0.0,0.0,0.0,0.0,0.0,0.0,0.0,0.0,0.0,0.0,0.0,0.0,0.0,0.0,0.0,0.0,0.0,0.0,0.0,0.0,0.0,0.0,0.0,0.0,0.0,0.0,0.0,0.0,0.0,0.0,0.0,0.0,0.0,-3.8826,-3.9289,-3.9401,-3.8863,-3.8826,-3.8631,-3.8143,-3.7786,-3.7568,-3.7568,0.0,0.0,0.0,0.0,0.0,0.0,0.0,0.0,0.0,0.0,0.0,0.0,0.0,0.0,0.0,0.0,0.0,0.0,0.0,0.0,0.0,0.0,0.0,0.0,0.0,0.0,0.0,0.0,0.0,0.0,0.0,0.0,0.0,0.0,0.0,0.0,0.0,0.0,0.0,0.0,0.0,0.0,0.0,0.0,0.0,0.0,0.0,0.0,0.0,0.0,0.0,0.0,0.0,0.0,0.0,0.0,0.0,0.0,0.0,0.0,0.0,0.0,0.0,0.0,0.0,0.0,0.0,0.0,0.0,0.0,0.0,0.0,0.0,0.0,0.0,0.0,0.0,0.0,0.0,0.0,0.0,0.0,0.0,0.0,0.0,0.0,0.0,0.0,0.0,0.0,0.0,0.0,0.0,0.0,0.0,0.0,0.0,0.0,0.0,0.0,0.0,0.0,-3.9589,-3.9589,-3.9589,-3.9589,-3.9589,-3.9589,-3.9589,-3.8882,-3.8432,-3.8432,0.0,0.0,0.0,0.0,0.0,0.0,0.0,0.0,0.0,0.0,0.0,0.0,0.0,0.0,0.0,0.0,0.0,0.0,0.0,0.0,0.0,0.0,0.0,0.0,0.0,0.0,0.0,0.0,0.0,0.0,0.0,0.0,0.0,0.0,0.0,0.0,0.0,0.0,0.0,0.0,0.0,0.0,0.0,0.0,0.0,0.0,0.0,0.0,0.0,0.0,0.0,0.0,0.0,0.0,0.0,0.0,0.0,0.0,0.0,0.0,-3.9589,-3.9589,0.0,0.0,0.0,0.0,0.0,0.0,0.0,0.0,0.0,0.0,0.0,0.0,0.0,0.0,0.0,0.0,0.0,0.0,0.0,0.0,0.0,0.0,0.0,0.0,0.0,0.0,0.0,0.0,0.0,0.0,0.0,0.0,0.0,0.0,0.0,0.0,0.0,0.0,0.0,0.0,-3.9589,-3.9589,-3.9589,-3.9589,-3.9589,-3.9589,-3.9589,-3.9439,-3.9326,-3.9326,-3.8507,0.0,0.0,0.0,0.0,0.0,0.0,0.0,0.0,0.0,0.0,0.0,0.0,0.0,0.0,0.0,0.0,0.0,0.0,0.0,0.0,0.0,0.0,0.0,0.0,0.0,0.0,0.0,0.0,0.0,0.0,0.0,0.0,0.0,0.0,0.0,0.0,0.0,0.0,0.0,0.0,0.0,0.0,0.0,0.0,0.0,0.0,0.0,0.0,0.0,0.0,0.0,0.0,0.0,0.0,0.0,0.0,0.0,0.0,0.0,-3.9589,-3.9589,0.0,0.0,0.0,0.0,0.0,0.0,0.0,0.0,0.0,0.0,0.0,0.0,0.0,0.0,0.0,0.0,0.0,0.0,0.0,0.0,0.0,0.0,0.0,0.0,0.0,0.0,0.0,0.0,0.0,0.0,0.0,0.0,0.0,0.0,0.0,0.0,0.0,0.0,0.0,0.0,-3.9589,-3.9589,-3.9589,-3.9589,-3.9589,-3.9589,-3.9589,-3.9589,-3.9589,-3.9589,-3.9176,0.0,0.0,0.0,0.0,0.0,0.0,0.0,0.0,0.0,0.0,0.0,0.0,0.0,0.0,0.0,0.0,0.0,0.0,0.0,0.0,0.0,0.0,0.0,0.0,0.0,0.0,0.0,0.0,0.0,0.0,0.0,0.0,0.0,0.0,0.0,0.0,0.0,0.0,0.0,0.0,0.0,0.0,0.0,0.0,0.0,0.0,0.0,0.0,0.0,0.0,0.0,0.0,0.0,-3.9589,-3.9589,-3.9589,-3.9589,-3.9589,-3.9589,-3.9589,-3.9589,-3.9589,-3.9589,0.0,0.0,0.0,0.0,0.0,0.0,0.0,0.0,0.0,0.0,0.0,0.0,0.0,0.0,0.0,0.0,0.0,0.0,0.0,0.0,0.0,0.0,-3.9589,-3.9589,-3.9589,-3.9589,-3.9589,0.0,0.0,0.0,0.0,0.0,0.0,0.0,0.0,0.0,0.0,0.0,-3.9589,-3.9589,-3.9589,-3.9589,-3.9589,-3.9589,-3.9589,-3.9589,-3.9589,-3.9589,-3.9589,-3.9289,0.0,0.0,0.0,0.0,0.0,0.0,0.0,0.0,0.0,0.0,0.0,0.0,0.0,0.0,0.0,0.0,0.0,0.0,0.0,0.0,0.0,0.0,0.0,0.0,0.0,0.0,0.0,0.0,0.0,0.0,0.0,0.0,-3.4612,-3.4612,0.0,0.0,0.0,0.0,0.0,0.0,0.0,0.0,0.0,0.0,0.0,0.0,0.0,-3.9477,-3.9589,-3.9589,-3.9589,-3.9589,-3.9589,-3.9589,-3.9589,-3.9589,-3.9589,-3.9589,-3.9589,0.0,-3.9589,-3.9589,0.0,0.0,0.0,0.0,0.0,0.0,0.0,0.0,0.0,0.0,0.0,0.0,0.0,0.0,0.0,0.0,0.0,0.0,0.0,0.0,0.0,0.0,-3.9589,-3.9589,-3.9589,-3.9589,-3.9589,-3.9589,-3.9589,-3.9589,-3.9589,-3.9589,0.0,0.0,0.0,0.0,0.0,0.0,-3.9589,-3.9589,-3.9589,-3.9589,-3.9589,-3.9589,-3.9589,-3.9589,-3.9589,-3.9589,-3.9589,-3.9552,-3.9439,-3.8694,0.0,0.0,0.0,0.0,0.0,0.0,0.0,0.0,0.0,0.0,0.0,0.0,0.0,0.0,0.0,0.0,0.0,0.0,0.0,0.0,0.0,0.0,0.0,0.0,0.0,0.0,0.0,0.0,0.0,-3.4647,-3.4612,-3.4612,-3.4612,-3.4612,0.0,0.0,0.0,0.0,0.0,0.0,0.0,0.0,0.0,-3.9014,-3.9401,-3.9589,-3.9589,-3.9589,-3.9589,-3.9589,-3.9589,-3.9589,-3.9627,-4.0078,-4.0284,-4.0303,-4.0741,-4.0947,-4.091,-4.0459,-4.0284,-4.0309,0.0,0.0,0.0,0.0,-4.0947,-4.0947,-4.0947,-4.0947,-4.0947,-4.0947,0.0,0.0,0.0,0.0,0.0,0.0,0.0,-3.9589,0.0,0.0,-3.9589,-3.9589,-3.9589,-3.9589,-3.9589,-3.9589,-3.9589,-3.9589,-3.9589,-3.9589,-3.9589,-3.9589,0.0,0.0,0.0,-3.9589,-3.9589,-3.9589,-3.9589,-3.9589,-3.9589,-3.9589,-3.9589,-3.9589,-3.9589,-3.9589,-3.9589,-3.9589,-3.9589,-3.9232,-3.8807,0.0,0.0,0.0,0.0,0.0,0.0,0.0,0.0,0.0,0.0,0.0,0.0,0.0,0.0,0.0,0.0,0.0,0.0,0.0,0.0,0.0,0.0,0.0,0.0,0.0,0.0,0.0,0.0,-3.4612,-3.4612,-3.4612,-3.4612,-3.4612,0.0,0.0,0.0,0.0,0.0,0.0,-3.7373,-3.8188,-3.892,-3.957,-3.9589,-3.9589,-3.9589,-3.9589,-3.9589,-3.9589,-3.9815,-3.9908,-3.9927,-4.0741,-4.1116,-4.1135,-4.1742,-4.2004,-4.1948,-4.136,-4.1116,-4.1173,-4.176,-4.2004,-4.2004,-4.2004,-4.2004,-4.2004,-4.2004,-4.2004,-4.2004,-4.2004,-4.2004,-4.1892,-4.1304,0.0,0.0,0.0,0.0,-4.0209,-4.0209,-4.0209,-4.0209,-4.0209,-4.0209,-4.0209,-4.0209,-4.0209,-4.0096,-3.9683,-3.9589,-3.9589,-3.9589,-3.9589,0.0,-3.9589,-3.9589,-3.9589,-3.9589,-3.9589,-3.9589,-3.9589,-3.9589,-3.9589,-3.9589,-3.9589,-3.9589,-3.9589,-3.9589,-3.9589,-3.9589,-3.9589,-3.9289,-3.8657,0.0,0.0,0.0,0.0,0.0,0.0,0.0,0.0,0.0,0.0,0.0,0.0,0.0,0.0,0.0,0.0,0.0,0.0,0.0,0.0,0.0,0.0,0.0,0.0,0.0,0.0,0.0,0.0,0.0,-3.4612,-3.4612,0.0,0.0,0.0,0.0,-3.5766,-3.6573,-3.738,-3.8206,-3.9063,-3.9552,-3.9589,-3.9589,-3.9589,-3.9589,-3.9589,-3.9589,-3.9608,-4.0365,-4.0741,-4.0778,-4.1573,-4.1948,-4.1948,-4.1986,-4.2004,-4.2004,-4.1967,-4.1948,-4.1948,-4.1986,-4.2004,-4.2004,-4.2004,-4.2004,-4.2004,-4.2004,-4.2004,-4.2004,-4.2004,-4.2004,-4.1986,-4.1948,-4.1911,0.0,0.0,-4.1873,-4.1873,-4.1873,-4.1873,-4.1873,-4.1873,-4.1873,-4.1873,-4.1873,-4.1873,-4.1423,-3.9908,-3.9589,-3.9589,-3.9589,0.0,-3.9589,-3.9589,-3.9589,-3.9589,-3.9589,-3.9589,-3.9589,-3.9589,-3.9589,-3.9589,-3.9589,-3.9589,-3.9589,-3.9589,-3.9589,-3.9589,-3.9589,-3.9589,-3.957,-3.9533,-3.8713,0.0,0.0,0.0,0.0,0.0,0.0,0.0,0.0,0.0,0.0,0.0,0.0,0.0,0.0,0.0,0.0,0.0,0.0,0.0,0.0,0.0,0.0,0.0,0.0,0.0,0.0,0.0,0.0,-3.4612,-3.4612,0.0,-3.4612,-3.5108,-3.5578,-3.5878,-3.7117,-3.8,-3.8281,-3.9138,-3.9589,-3.9589,-4.0096,-4.0365,-4.0365,-4.0891,-4.1135,-4.1154,-4.1441,-4.1573,-4.1591,-4.2449,-4.2844,-4.2881,-4.3375,-4.36,-4.36,-4.36,-4.3299,-4.29,-4.3412,-4.36,-4.36,-4.36,-4.36,-4.36,-4.36,-4.36,-4.36,-4.36,-4.3275,-4.2844,-4.2844,-4.2436,-4.2004,-4.2004,-4.2004,-4.2004,-4.2004,-4.2004,-4.2004,-4.2004,-4.2004,-4.2004,-4.2004,-4.2004,-4.1835,-4.1267,-4.0722,-4.0365,-4.0365,-3.9946,-3.9589,-3.9589,-3.9589,-3.9589,-3.9589,-3.9589,-3.9589,-3.9589,-3.9589,-3.9589,-3.9589,-3.9589,-3.9589,-3.9589,-3.9589,-3.9589,-3.9589,-3.9589,-3.9589,-3.9589,-3.9289,-3.8863,0.0,0.0,0.0,0.0,0.0,0.0,0.0,0.0,0.0,0.0,0.0,0.0,0.0,0.0,0.0,0.0,0.0,0.0,0.0,0.0,0.0,0.0,0.0,0.0,0.0,-3.4612,-3.4612,-3.4612,-3.4864,-3.5033,-3.5033,-3.5803,-3.6423,-3.6686,-3.7699,-3.8563,-3.9107,-3.969,-4.0134,-4.0403,-4.0929,-4.121,-4.121,-4.1723,-4.2004,-4.2004,-4.2305,-4.2436,-4.2474,-4.3313,-4.3707,-4.3726,-4.4271,-4.4501,-4.4501,-4.4501,-4.4182,-4.3764,-4.4275,-4.4501,-4.4501,-4.4501,-4.4501,-4.4501,-4.4501,-4.4501,-4.4501,-4.4501,-4.4139,-4.3707,-4.3707,-4.3313,-4.2849,-4.2849,-4.2849,-4.2849,-4.2849,-4.2849,-4.2849,-4.2849,-4.2849,-4.2849,-4.2849,-4.2849,-4.2849,-4.2849,-4.1948,-4.121,-4.121,-4.076,-4.0403,-4.0403,-4.019,-4.0002,-4.0002,-3.9777,-3.9589,-3.9589,-3.9589,-3.9589,-3.9589,-3.9589,-3.9589,-3.9589,-3.9589,-3.9589,-3.9589,-3.9589,-3.9589,-3.9589,-3.9589,-3.9326,-3.8732,0.0,0.0,0.0,0.0,0.0,0.0,0.0,0.0,0.0,0.0,0.0,0.0,0.0,0.0,0.0,0.0,0.0,0.0,0.0,0.0,0.0,0.0,0.0,-3.4612,-3.4612,-3.4612,-3.465,-3.539,-3.5916,-3.5935,-3.6678,-3.7467,-3.8281,-3.8357,-3.9107,-4.076,-4.0835,-4.1191,-4.1986,-4.2023,-4.2042,-4.2042,-4.2079,-4.2079,-4.2098,-4.2938,-4.3332,-4.3351,-4.4139,-4.4501,-4.4501,-4.4501,-4.4501,-4.4501,-4.4501,-4.4501,-4.4501,-4.4501,-4.4501,-4.4501,-4.4501,-4.4501,-4.4501,-4.4501,-4.4501,-4.4501,-4.4501,-4.4501,-4.4501,-4.4501,-4.4501,-4.4501,-4.4501,-4.4501,-4.4501,-4.4501,-4.4501,-4.4501,-4.4501,-4.4501,-4.4501,-4.4501,-4.4501,-4.4501,-4.4501,-4.3187,-4.2079,-4.2042,-4.2023,-4.2004,-4.2004,-4.1329,0.0,-4.0835,-4.0153,-3.9646,-3.9646,-3.9608,-3.9589,-3.9589,-3.9589,-3.9589,-3.9589,-3.9589,-3.9589,-3.9589,-3.9589,-3.9589,-3.9589,-3.9589,-3.9589,-3.9589,0.0,0.0,0.0,0.0,0.0,0.0,0.0,0.0,0.0,0.0,0.0,0.0,0.0,0.0,0.0,0.0,0.0,0.0,0.0,0.0,0.0,-3.4645,-3.4612,-3.4612,-3.4612,-3.4827,-3.5465,-3.5747,-3.6122,-3.6716,-3.7493,-3.8319,-3.9176,-3.9783,-4.0572,-4.161,-4.1667,-4.176,-4.1986,-4.2618,-4.2938,-4.2938,-4.3506,-4.3806,-4.3825,-4.4064,-4.4177,-4.4177,-4.4388,-4.4501,-4.4501,-4.4501,-4.4501,-4.4501,-4.4501,-4.4501,-4.4501,-4.4501,-4.4501,-4.4501,-4.4501,-4.4501,-4.4501,-4.4501,-4.4501,-4.4501,-4.4501,-4.4501,-4.4501,-4.4501,-4.4501,-4.4501,-4.4501,-4.4501,-4.4501,-4.4501,-4.4501,-4.4501,-4.4501,-4.4501,-4.4501,-4.4501,-4.4501,-4.4501,-4.4501,-4.4125,-4.3618,-4.305,-4.2417,-4.2004,-4.2004,-4.1817,0.0,-4.1667,-4.0966,-4.0459,-4.0459,-3.9946,-3.9589,-3.9589,-3.9589,-3.9589,-3.9589,-3.9589,-3.9589,-3.9589,-3.9589,-3.9589,-3.9589,-3.9589,-3.9589,0.0,0.0,0.0,0.0,0.0,0.0,0.0,0.0,0.0,0.0,0.0,0.0,0.0,0.0,0.0,0.0,0.0,0.0,0.0,0.0,0.0,0.0,-3.4935,-3.5146,-3.5146,-3.5146,-3.5465,-3.6291,-3.7024,-3.7636,-3.8106,-3.9183,-4.0065,-4.0572,-4.1041,-4.168,-4.2506,-4.253,-4.2699,-4.3037,-4.3876,-4.4308,-4.4308,-4.5134,-4.5552,-4.5552,-4.5552,-4.5552,-4.5552,-4.5552,-4.5552,-4.5552,-4.5552,-4.5552,-4.5552,-4.5552,-4.5552,0.0,0.0,0.0,0.0,0.0,-4.4501,-4.4501,-4.4501,-4.4501,-4.4501,-4.4501,-4.4501,-4.4501,-4.4501,-4.4501,-4.4501,-4.4501,-4.4501,-4.4501,-4.4501,-4.4501,-4.4501,-4.4501,-4.4501,-4.4501,-4.4501,-4.4501,-4.4501,-4.4501,-4.4501,0.0,-4.3876,-4.3375,-4.3055,-4.3055,-4.2755,-4.253,-4.253,-4.1817,-4.1291,-4.1291,-4.0891,-4.0459,-4.0134,-4.0096,0.0,0.0,0.0,-3.9589,-3.9589,-3.9589,0.0,0.0,0.0,-3.9589,-3.9589,0.0,0.0,0.0,-3.8237,-3.785,0.0,0.0,0.0,0.0,0.0,0.0,0.0,0.0,0.0,0.0,0.0,0.0,0.0,0.0,0.0,0.0,-3.5475,-3.5953,-3.616,-3.6254,-3.6573,-3.7298,-3.8688,-3.9664,-3.9852,-4.1173,-4.2042,-4.2136,-4.2155,-4.2549,-4.352,-4.3557,0.0,0.0,0.0,-4.5848,-4.5848,-4.6617,-4.7012,-4.7012,-4.7012,-4.7012,-4.7012,-4.7012,-4.7012,-4.7012,-4.7012,-4.7012,-4.7012,-4.7012,-4.7012,-4.6861,-4.5345,-4.4707,-4.4632,-4.4632,-4.4576,-4.4501,-4.4501,0.0,0.0,-4.4501,-4.4501,-4.4501,-4.4501,-4.4501,-4.4501,-4.4501,-4.4501,-4.4501,-4.4501,-4.4501,-4.4501,-4.4501,-4.4501,-4.4501,-4.4501,-4.4501,-4.4501,-4.4501,-4.4501,-4.4501,-4.4501,-4.4501,-4.4501,-4.4501,-4.3895,-4.3444,-4.3444,-4.2693,-4.2155,-4.2155,0.0,0.0,-4.1004,-4.0941,-4.0616,-3.9796,-3.9646,-3.9589,-3.9589,-3.9589,-3.9589,-3.9589,-3.9589,-3.9589,-3.9589,-3.9589,-3.9589,-3.957,-3.8807,-3.845,0.0,0.0,0.0,0.0,0.0,0.0,0.0,0.0,0.0,0.0,0.0,0.0,0.0,0.0,0.0,-3.5584,-3.5814,-3.6348,-3.7662,-3.8432,-3.8932,-3.9101,-3.9401,-4.0115,-4.1404,-4.1817,-4.2286,-4.2994,-4.305,-4.3688,-4.5153,-4.5228,-4.5622,-4.649,-4.6674,-4.6749,-4.6749,-4.6918,-4.7012,-4.7012,0.0,0.0,-4.7012,-4.7012,-4.7012,-4.7012,-4.7012,-4.7012,-4.7012,-4.7012,-4.7012,-4.6974,-4.6655,-4.6092,-4.5472,-4.5472,-4.5059,-4.4501,-4.4501,-4.4501,-4.4501,-4.4501,-4.4501,-4.4501,-4.4501,-4.4501,0.0,-4.4501,-4.4501,-4.4501,-4.4501,-4.4501,-4.4501,-4.4501,-4.4501,-4.4501,-4.4501,-4.4501,-4.4501,-4.4501,-4.4501,-4.4501,-4.4501,-4.4501,-4.4501,-4.4501,-4.4369,-4.4271,-4.4271,-4.3557,-4.305,-4.305,-4.2417,-4.1948,-4.1779,-4.1876,-4.1531,-4.0641,-3.9965,-3.9589,-3.9589,-3.9589,-3.9589,-3.9589,-3.9589,-3.9589,-3.9589,-3.9589,-3.9589,-3.9589,-3.9439,-3.9345,0.0,0.0,0.0,0.0,0.0,0.0,0.0,0.0,0.0,0.0,0.0,-3.4917,-3.4819,0.0,-3.5475,-3.5852,-3.6592,-3.753,-3.877,-3.9683,-4.0209,-4.0209,-4.0941,-4.1773,-4.2581,-4.2999,-4.36,-4.4439,-4.4496,-4.504,-4.6279,-4.6354,-4.6561,-4.6993,-4.7387,-4.7594,-4.7594,-4.8025,-4.8251,-4.8251,-4.8251,-4.8251,-4.8251,-4.8251,-4.8251,-4.8251,-4.8251,-4.8251,-4.8251,-4.8251,-4.8251,-4.8251,-4.8251,-4.7481,-4.6354,-4.6354,-4.611,-4.5739,-4.5739,-4.5739,-4.5739,-4.5739,-4.5739,-4.5739,-4.5739,-4.5739,-4.5739,-4.5739,-4.5453,-4.5097,-4.5097,-4.4801,-4.4501,-4.4501,-4.4501,-4.4501,-4.4501,-4.4501,-4.4501,-4.4501,-4.4501,-4.4501,-4.4501,-4.4501,-4.4501,-4.4501,-4.4501,-4.4501,-4.4501,-4.4158,-4.3895,-4.3895,-4.3506,-4.312,-4.278,-4.2473,-4.2099,-4.163,-4.0777,-4.0301,-4.0301,-3.9852,-3.9589,-3.9589,-3.9589,-3.9589,-3.9589,-3.9589,-3.9589,-3.9589,-3.9589,-3.9589,0.0,0.0,0.0,0.0,0.0,0.0,0.0,-3.5145,-3.5084,-3.5066,-3.4927,-3.4855,-3.4996,-3.5504,-3.601,-3.6329,-3.7606,-3.8845,-3.9721,-4.0666,-4.1285,-4.1285,-4.2468,-4.3351,-4.352,-4.4271,-4.5003,-4.5641,-4.5866,-4.6336,-4.7199,-4.7237,-4.7312,-4.7481,-4.8101,-4.8438,-4.8438,-4.9152,-4.9509,-4.9509,-4.9509,-4.9509,-4.9509,-4.9509,-4.9509,-4.9509,-4.9509,-4.9509,-4.9509,-4.9509,-4.9509,-4.9509,-4.9509,-4.8683,-4.7481,-4.7312,-4.7143,-4.7012,-4.7012,-4.7012,-4.7012,-4.7012,-4.7012,-4.7012,-4.7012,-4.7012,-4.7012,-4.7012,-4.6486,-4.596,-4.596,-4.5472,-4.4989,-4.4989,-4.4989,-4.4989,-4.4989,-4.4989,-4.4989,-4.4989,-4.4838,-4.4726,-4.4726,-4.4594,-4.4501,-4.4501,-4.4501,-4.4501,-4.4501,-4.4501,-4.4501,-4.4501,-4.451,-4.4342,-4.3844,-4.3073,-4.264,-4.2686,-4.1805,-4.1269,-4.1227,-4.0515,-4.0084,-4.0078,-4.0078,-4.0078,-4.0078,-4.0078,-4.0078,-4.0078,-4.0078,-3.9908,-3.5209,-3.5209,-3.5209,-3.5209,-3.5209,-3.5185,0.0,-3.5101,-3.5066,-3.4945,-3.4859,-3.5015,-3.5721,-3.5881,-3.6366,-3.7812,-3.8826,-3.9739,-4.0553,-4.2018,-4.3013,-4.3013,-4.3182,-4.3576,-4.4294,-4.5097,-4.5604,-4.5697,-4.643,-4.7218,-4.8025,-4.8063,-4.842,-4.9208,-4.9302,-4.9358,-4.9358,-4.9452,-4.9509,-4.9509,-4.9509,-4.9509,-4.9509,-4.9509,-4.9509,-4.9509,-4.9509,-4.9509,-4.9509,-4.9509,-4.9509,-4.9509,-4.9509,-4.9396,-4.9133,-4.8345,-4.7612,-4.7012,-4.7012,-4.7012,-4.7012,-4.7012,-4.7012,-4.7012,-4.7012,-4.7012,-4.7012,-4.7012,-4.6936,-4.6861,-4.6861,-4.6805,-4.673,-4.673,-4.673,-4.673,-4.673,-4.673,-4.673,-4.673,-4.611,-4.5566,-4.5566,-4.4984,-4.4501,-4.4501,-4.4501,-4.4501,-4.4501,-4.4501,-4.4501,-4.4501,-4.4605,-4.4732,-4.4912,-4.3968,-4.349,-4.3729,-4.2792,-4.2184,-4.2083,-4.1964,-4.1845,-4.1723,-4.1723,-4.1723,-4.1723,-4.1723,-4.1723,-4.1723,-4.1723,-4.0966,-3.5209,-3.5209,-3.5209,-3.5209,-3.5209,-3.5185,-3.511,-3.5092,-3.5066,-3.4927,-3.5218,-3.5589,-3.5947,-3.6697,-3.7681,-3.8845,-3.9746,-4.076,-4.2074,-4.2862,-4.3463,-4.3951,-4.4008,-4.4308,-4.5115,-4.551,-4.6092,-4.7068,-4.7481,-4.8063,-4.8908,-4.8964,-4.9114,-4.949,-4.9509,-4.9509,-4.9509,-4.9509,-4.9509,-4.9509,-4.9509,-4.9509,-4.9509,-4.9509,-4.9509,-4.9509,-4.9509,-4.9509,-4.9509,-4.9509,-4.9509,-4.9509,-4.9509,-4.9509,-4.9471,-4.9096,-4.8739,-4.8457,-4.8457,-4.8457,-4.8457,-4.8457,-4.8457,-4.8457,-4.8457,-4.8457,-4.8457,-4.8457,-4.8082,-4.7706,-4.7706,-4.735,-4.7012,-4.7012,-4.7012,-4.7012,-4.7012,-4.7012,-4.7012,-4.7012,-4.6765,-4.6544,-4.6463,-4.5857,-4.5321,-4.5223,-4.4815,-4.4501,-4.4501,-4.4501,-4.4501,-4.4501,-4.4619,-4.4789,-4.4955,-4.458,-4.4438,-4.4707,-4.3734,-4.3175,-4.3187,-4.2635,-4.2245,-4.2115,-4.2115,-4.2077,-4.2004,-4.2004,-4.2004,-4.2004,-4.2004,-4.1629,-3.5209,-3.5209,-3.5209,-3.5209,-3.5209,-3.5185,-3.511,-3.5092,-3.5123,-3.5249,-3.5642,-3.6136,-3.6608,-3.7562,-3.8657,-3.9758,-4.0609,-4.1642,-4.3088,-4.3482,-4.3857,-4.4426,-4.4688,-4.5153,-4.5979,-4.6054,-4.6655,-4.8082,-4.842,-4.8833,-4.9471,-4.9509,-4.9509,-4.9509,-4.9509,-4.9509,-4.9509,-4.9509,-4.9509,-4.9509,-4.9509,-4.9509,-4.9509,-4.9509,-4.9509,-4.9509,-4.9509,-4.9509,-4.9509,-4.9509,-4.9509,-4.9509,-4.9509,-4.9509,-4.9509,-4.9509,-4.9509,-4.9509,-4.9509,-4.9509,-4.9509,-4.9509,-4.9509,-4.9509,-4.9509,-4.9509,-4.9509,-4.9509,-4.9039,-4.8551,-4.8551,-4.8138,-4.7687,-4.7687,-4.7687,-4.7687,-4.7687,-4.7717,-4.7728,-4.7728,-4.765,-4.7564,-4.7457,-4.6816,-4.6207,-4.5839,-4.5237,-4.4745,-4.4519,-4.4524,-4.457,-4.457,-4.4685,-4.4808,-4.4943,-4.4962,-4.5049,-4.5286,-4.4551,-4.4129,-4.4227,-4.3498,-4.304,-4.2944,-4.2907,-4.2863,-4.2799,-4.276,-4.276,-4.2799,-4.276,-4.276,-3.5209,-3.5209,-3.5209,-3.5209,-3.5209,-3.5185,-3.511,-3.5092,-3.5313,-3.6017,-3.6077,-3.6513,-3.8124,-3.8352,-3.8845,-4.0497,-4.1441,-4.2267,-4.3163,-4.397,-4.4463,-4.4501,-4.519,-4.6017,-4.688,-4.6974,-4.7312,-4.8138,-4.8983,-4.9471,-4.9509,-4.9509,-4.9509,-4.9509,-4.9509,-4.9509,-4.9509,-4.9509,-4.9509,-4.9509,-4.9509,-4.9509,-4.9509,-4.9509,-4.9509,-4.9509,-4.9509,-4.9509,-4.9509,-4.9509,-4.9509,-4.9509,-4.9509,-4.9509,-4.9509,-4.9509,-4.9509,-4.9509,-4.9509,-4.9509,-4.9509,-4.9509,-4.9509,-4.9509,-4.9509,-4.9509,-4.9509,-4.9509,-4.9471,-4.9471,-4.9471,-4.9434,-4.9415,-4.9415,-4.9415,-4.9415,-4.9415,-4.9518,-4.9617,-4.9617,-4.9031,-4.8572,-4.8539,-4.777,-4.6895,-4.6116,-4.581,-4.5378,-4.4594,-4.4605,-4.468,-4.468,-4.4808,-4.4943,-4.5091,-4.5084,-4.5159,-4.5297,-4.5151,-4.5065,-4.5065,-4.491,-4.4819,-4.4819,-4.4682,-4.4701,-4.4807,-4.4669,-4.4669,-4.4807,-4.4688,-4.4701,-3.5209,-3.5209,-3.5209,-3.5209,-3.5209,-3.5318,-3.5796,-3.5975,-3.624,-3.6967,-3.7527,-3.8019,-3.8607,-3.8987,-3.9786,-4.1469,-4.1869,-4.2492,-4.3914,-4.4409,-4.4812,-4.5242,-4.5613,-4.6356,-4.7684,-4.78,-4.8157,-4.9002,-4.934,-4.9509,-4.9509,-4.9509,-4.9509,-4.9509,-4.9509,-4.9509,-4.9509,-4.9509,-4.9509,-4.9509,-4.9509,-4.9509,-4.9509,-4.9509,-4.9509,-4.9509,-4.9509,-4.9509,-4.9509,-4.9509,-4.9509,-4.9509,-4.9509,-4.9509,-4.9509,-4.9509,-4.9509,-4.9509,-4.9509,-4.9509,-4.9509,-4.9509,-4.9509,-4.9509,-4.9509,-4.9509,-4.9509,-4.9509,-4.9509,-4.9509,-4.9509,-4.9509,-4.9509,-4.9509,-4.9509,-4.9521,-4.9608,-4.9682,-4.9721,-4.9816,-4.9692,-4.9568,-4.9489,-4.8833,-4.8011,-4.7068,-4.5771,-4.4801,-4.4519,-4.4537,-4.4565,-4.4565,-4.4699,-4.4821,-4.4962,-4.4955,-4.5049,-4.5286,-4.517,-4.5148,-4.5224,-4.5192,-4.5125,-4.5026,-4.4998,-4.4943,-4.4895,-4.4846,-4.4865,-4.4895,-4.4846,-4.4846,-3.5209,-3.5209,-3.5259,-3.5583,-3.566,-3.5861,-3.6621,-3.6866,-3.7151,-3.788,-3.8442,-3.8879,-3.9143,-3.951,-4.0318,-4.1999,-4.2209,-4.2743,-4.442,-4.4685,-4.4974,-4.5702,-4.6073,-4.6822,-4.8133,-4.8506,-4.8889,-4.9471,-4.9509,-4.9509,-4.9509,-4.9551,-4.9551,-4.949,-4.9551,-4.9551,-4.9509,-4.9509,-4.9509,-4.9509,-4.9509,-4.9509,-4.9509,-4.9509,-4.9509,-4.9509,-4.9509,-4.9509,-4.9509,-4.9509,-4.9509,-4.9509,-4.9509,-4.9509,-4.9509,-4.9509,-4.9509,-4.9509,-4.9509,-4.9509,-4.9509,-4.9509,-4.9509,-4.9509,-4.9509,-4.9509,-4.9509,-4.9509,-4.9509,-4.9509,-4.9509,-4.9509,-4.9509,-4.9509,-4.9536,-4.9612,-4.9678,-4.9778,-4.9857,-4.9946,-5.0082,-5.0145,-5.005,-4.941,-4.8656,-4.7947,-4.6528,-4.5432,-4.5135,-4.4874,-4.4685,-4.4578,-4.4719,-4.4833,-4.4821,-4.4907,-4.5057,-4.5213,-4.5148,-4.5159,-4.5297,-4.5246,-4.5203,-4.517,-4.5125,-4.5091,-4.5038,-4.4991,-4.501,-4.5038,-4.4991,-4.501,-3.5209,-3.5229,-3.5469,-3.629,-3.6538,-3.6767,-3.7578,-3.7731,-3.7915,-3.8709,-3.8841,-3.904,-3.9781,-3.9911,-4.046,-4.2136,-4.2401,-4.2969,-4.4655,-4.4802,-4.5014,-4.5863,-4.6586,-4.7404,-4.8376,-4.9108,-4.9505,-4.9505,-4.949,-4.949,-4.9524,-4.9638,-4.9653,-4.9521,-4.9638,-4.9638,-4.9505,-4.949,-4.9509,-4.9509,-4.9509,-4.9509,-4.9509,-4.9509,-4.949,-4.9505,-4.9505,-4.9505,-4.9521,-4.9521,-4.9524,-4.9505,-4.9505,-4.9509,-4.9509,-4.9509,-4.949,-4.9505,-4.9505,-4.9509,-4.9509,-4.9509,-4.9509,-4.9509,-4.9509,-4.9509,-4.9509,-4.9509,-4.9509,-4.9509,-4.9509,-4.9509,-4.949,-4.9524,-4.9608,-4.9707,-4.9721,-4.9912,-5.0108,-5.0108,-5.0219,-5.0302,-5.0302,-4.9558,-4.8915,-4.8719,-4.8004,-4.7188,-4.6367,-4.5611,-4.5055,-4.4807,-4.4981,-4.4991,-4.4719,-4.4962,-4.5114,-4.5103,-4.5114,-4.517,-4.5297,-4.5181,-4.517,-4.5297,-4.517,-4.517,-4.5307,-4.517,-4.517,-4.5297,-4.517,-4.5181,-3.5209,-3.566,-3.6214,-3.6443,-3.6948,-3.7617,-3.8476,-3.8171,-3.8124,-3.9604,-3.9404,-3.9213,-4.0043,-4.0117,-4.0566,-4.2136,-4.2401,-4.2946,-4.4531,-4.4815,-4.5357,-4.6711,-4.7106,-4.7851,-4.9235,-4.9632,-4.9764,-4.9667,-4.9551,-4.9551,-4.9653,-4.9678,-4.9736,-4.9807,-4.9736,-4.9678,-4.9653,-4.9551,-4.9509,-4.9509,-4.9509,-4.9509,-4.9509,-4.9509,-4.9551,-4.9653,-4.9653,-4.9707,-4.9788,-4.9788,-4.975,-4.9653,-4.9653,-4.9578,-4.9509,-4.9509,-4.9567,-4.9653,-4.9653,-4.9578,-4.9509,-4.9509,-4.9509,-4.9509,-4.9509,-4.9509,-4.9509,-4.9509,-4.9509,-4.9509,-4.9509,-4.9509,-4.9539,-4.9623,-4.9682,-4.975,-4.9952,-5.0057,-5.0133,-5.0231,-5.0278,-5.0302,-5.0302,-5.0107,-4.9918,-4.9863,-4.9189,-4.8291,-4.7239,-4.6411,-4.5886,-4.5824,-4.539,-4.5026,-4.4858,-4.5084,-4.5203,-4.5114,-4.5192,-4.5256,-4.5297,-4.5275,-4.5275,-4.5297,-4.5275,-4.5275,-4.5307,-4.5275,-4.5275,-4.5297,-4.5256,-4.5275,-3.566,-3.6137,-3.6672,-3.7417,-3.7941,-3.8495,-3.9374,-3.8897,-3.8553,-3.9527,-3.9336,-3.9145,-3.9642,-3.9929,-4.0504,-4.1732,-4.2234,-4.2925,-4.4182,-4.4674,-4.5508,-4.7181,-4.7331,-4.7994,-4.9719,-4.9898,-4.9898,-4.9871,-4.975,-4.9678,-4.9692,-4.9821,-4.9885,-4.9912,-4.9885,-4.9835,-4.9692,-4.9567,-4.9509,-4.9509,-4.9509,-4.9509,-4.949,-4.9567,-4.9623,-4.9692,-4.9745,-4.983,-4.9912,-4.9912,-4.9857,-4.9792,-4.9792,-4.975,-4.9682,-4.9682,-4.9721,-4.9792,-4.9792,-4.9736,-4.9682,-4.9608,-4.9597,-4.9582,-4.9505,-4.9509,-4.9509,-4.9509,-4.9509,-4.9505,-4.9563,-4.9597,-4.9623,-4.9764,-4.983,-4.9912,-5.007,-5.0145,-5.0219,-5.029,-5.0302,-5.0187,-4.9824,-5.0073,-5.0187,-4.9824,-4.9691,-4.9396,-4.8769,-4.7641,-4.6894,-4.6826,-4.6133,-4.5627,-4.5476,-4.5312,-4.5181,-4.5095,-4.5243,-4.5307,-4.5307,-4.5307,-4.5307,-4.5307,-4.5307,-4.5307,-4.5307,-4.5307,-4.5307,-4.5307,-4.5307,-4.5307,-3.629,-3.6653,-3.7169,-3.8648,-3.9088,-3.9336,-3.9976,-3.9451,-3.8839,-3.8839,-3.8744,-3.8744,-3.8954,-3.9528,-4.0241,-4.1155,-4.206,-4.2917,-4.3762,-4.4478,-4.5594,-4.7393,-4.7397,-4.7988,-4.9911,-5.0018,-4.9986,-5.0095,-5.0018,-4.9898,-4.9764,-4.9978,-5.0057,-4.9939,-5.0044,-4.9978,-4.9736,-4.9593,-4.9521,-4.9521,-4.9524,-4.9509,-4.949,-4.9638,-4.9707,-4.9736,-4.9871,-4.9939,-4.9946,-4.9946,-4.9933,-4.9939,-4.9939,-4.9925,-4.9912,-4.9912,-4.9906,-4.9939,-4.9939,-4.9952,-4.9939,-4.9792,-4.9721,-4.9707,-4.9578,-4.9551,-4.9551,-4.9551,-4.9551,-4.9582,-4.9692,-4.9721,-4.9764,-4.9898,-5.0018,-5.0108,-5.012,-5.0219,-5.0302,-5.0302,-5.0206,-4.992,-4.9224,-4.9576,-4.9767,-4.9186,-4.9691,-5.0187,-5.0283,-4.8945,-4.7926,-4.7807,-4.7079,-4.6525,-4.6404,-4.5817,-4.5411,-4.5274,-4.5385,-4.5411,-4.5307,-4.5307,-4.5307,-4.5307,-4.5307,-4.5307,-4.5307,-4.5307,-4.5354,-4.5449,-4.5449,-4.5507,-3.6462,-3.7512,-3.8648,-3.8935,-3.9546,-3.9919,-3.9355,-3.8553,-3.7922,-3.7922,-3.7406,-3.736,-3.8744,-3.9108,-3.9662,-4.1068,-4.2112,-4.3,-4.3724,-4.4539,-4.5707,-4.7405,-4.7559,-4.8206,-4.9924,-5.0182,-5.0175,-5.0108,-5.0182,-5.0182,-5.0044,-5.007,-5.0095,-5.007,-5.0095,-5.0031,-4.9871,-4.9736,-4.9667,-4.9648,-4.9551,-4.9509,-4.949,-4.9638,-4.9764,-4.9871,-5.0005,0.0,-5.0243,-5.0243,-5.017,-5.007,-5.007,-5.0005,-4.9912,-4.9912,-4.9978,-5.007,-5.007,-5.0145,-5.0194,-4.9933,-4.9871,-4.9857,-4.9843,-4.983,-4.983,-4.983,-4.983,-4.983,-4.9857,-4.9871,-4.9898,-5.0031,-5.0082,-5.0133,-5.0243,-5.029,-5.0302,-5.0302,-4.9767,-4.9263,-4.9129,-4.8621,-4.843,-4.9003,-4.9224,-4.9538,-5.0206,-4.9461,-4.8869,-4.8846,-4.8071,-4.7491,-4.7367,-4.7335,-4.6995,-4.6218,-4.6244,-4.5984,-4.5326,-4.5307,-4.5307,-4.5307,-4.5307,-4.5307,-4.5307,-4.5307,-4.564,-4.629,-4.629,-4.6691,-3.7005,-3.8037,-3.9107,-3.9565,-3.9661,-3.9508,-3.9107,-3.7999,-3.7082,-3.7082,-3.6767,-3.6863,-3.8094,-3.8641,-3.929,-4.0478,-4.1814,-4.2806,-4.3134,-4.4284,-4.5754,-4.7487,-4.7643,-4.8279,-5.0035,-5.0267,-5.0278,-5.0207,-5.0267,-5.0243,-5.0108,-5.017,-5.0207,-5.0207,-5.0133,-5.007,-4.9986,-4.9871,-4.9802,-4.9802,-4.9736,-4.9707,-4.9707,-4.9843,-4.9939,-5.0018,-5.0145,-5.0243,-5.0302,-5.0302,-5.0267,-5.0207,-5.0207,-5.0151,-5.012,-5.012,-5.0158,-5.0207,-5.0207,-5.0243,-5.0278,-5.0158,-5.005,-4.9992,-4.9925,-4.9912,-4.9912,-4.9912,-4.9912,-4.9925,-4.9992,-4.9986,-5.0044,-5.017,-5.0207,-5.0219,-5.029,-5.0302,-5.0302,-5.0302,-4.9652,-4.8945,-4.8506,-4.8086,-4.7941,-4.8353,-4.8812,-4.9396,-5.0206,-4.9958,-4.971,-4.971,-4.8984,-4.8445,-4.8399,-4.8014,-4.7613,-4.7156,-4.7155,-4.6997,-4.6615,-4.6596,-4.6596,-4.6596,-4.6596,-4.6596,-4.6596,-4.6596,-4.6806,-4.7177,-4.7177,-4.7387,-3.7483,-3.8343,-3.9164,-3.9843,-3.9508,-3.8916,-3.8553,-3.7455,-3.6443,-3.6252,-3.6214,-3.6519,-3.7521,-3.8165,-3.8909,-3.9975,-4.1537,-4.2633,-4.2633,-4.41,-4.581,-4.7586,-4.772,-4.8338,-5.0118,-5.0302,-5.0302,-5.0302,-5.0302,-5.0255,-5.0145,-5.0243,-5.0302,-5.0302,-5.0194,-5.0145,-5.0145,-5.0018,-4.9933,-4.9933,-4.9906,-4.9912,-4.9893,-5.0044,-5.0095,-5.0108,-5.0243,-5.0302,-5.0302,-5.0302,-5.0302,-5.0302,-5.0302,-5.0302,-5.0302,-5.0302,-5.0302,-5.0302,-5.0302,-5.0302,-5.0302,-5.0302,-5.0231,-5.012,-5.0031,-4.9992,-4.9992,-4.9992,-4.9992,-4.9999,-5.012,-5.0145,-5.017,-5.0278,-5.0302,-5.0302,-5.0302,-5.0302,-5.0302,-5.0302,-4.9652,-4.8812,-4.7941,-4.7654,-4.7521,-4.7521,-4.8258,-4.9117,-4.9939,-5.0187,-5.0302,-5.0302,-4.9729,-4.9358,-4.9358,-4.8735,-4.8246,-4.8094,-4.8086,-4.8001,-4.7854,-4.7835,-4.7835,-4.7835,-4.7835,-4.7832,-4.7788,-4.7832,-4.795,-4.8122,-4.8122,-4.8217,-3.7483,-3.8343,-3.903,-3.9107,-3.9069,-3.861,-3.7073,-3.6615,-3.6271,-3.5469,-3.5316,-3.5821,-3.7406,-3.7761,-3.8344,-4.0005,-4.1685,-4.2784,-4.2784,-4.4216,-4.5916,-4.7597,-4.7777,-4.8426,-5.0149,-5.0302,-5.0302,-5.0302,-5.0302,-5.029,-5.0278,-5.029,-5.0302,-5.0302,-5.029,-5.0278,-5.0278,-5.0145,-5.0082,-5.0082,-4.9965,-4.9912,-4.9893,-5.0044,-5.0095,-5.0108,-5.0243,-5.0302,0.0,-5.0302,-5.0302,-5.0302,-5.0302,-5.0302,-5.0302,-5.0302,-5.0302,-5.0302,-5.0302,-5.0302,-5.0302,-5.0302,-5.029,-5.0278,-5.0267,-5.0267,-5.0267,-5.0267,-5.0267,-5.0267,-5.0278,-5.0278,-5.029,-5.0302,-5.0302,-5.0302,-5.0302,-5.0302,-5.0302,-5.0302,-4.9652,-4.8812,-4.7941,-4.7139,-4.6615,-4.6615,-4.736,-4.8239,-4.9098,-4.9843,-5.0302,-5.0302,-5.0225,-5.0187,-5.0187,-5.013,-4.9767,-4.9033,-4.8976,-4.8679,-4.802,-4.7981,-4.7981,-4.7981,-4.7981,-4.7921,-4.7788,-4.7921,-4.8385,-4.9162,-4.9162,-4.9546,-3.6882,-3.7578,-3.8228,-3.8228,-3.7846,-3.7321,-3.6653,-3.608,-3.5621,-3.5259,-3.5209,-3.5572,-3.6757,-3.7368,-3.8094,-3.9317,-4.1361,-4.2794,-4.2794,-4.4246,-4.5927,-4.7597,-4.7788,-4.8457,-5.0149,-5.0302,-5.0302,-5.0302,-5.0302,-5.0302,-5.0302,-5.0302,-5.0302,-5.0302,-5.0302,-5.0302,-5.0302,-5.0243,-5.0219,-5.0219,-5.017,-5.0126,-5.0139,-5.0194,-5.0219,-5.0231,-5.0278,-5.0302,0.0,-5.0302,-5.0302,-5.0302,-5.0302,-5.0302,-5.0302,-5.0302,-5.0302,-5.0302,-5.0302,-5.0302,-5.0302,-5.0302,-5.0302,-5.0302,-5.0302,-5.0302,-5.0302,-5.0302,-5.0302,-5.0302,-5.0302,-5.0302,-5.0302,-5.0302,-5.0302,-5.0302,-5.0302,-5.0302,-5.0302,-5.0302,-4.9652,-4.8812,-4.7941,-4.7092,-4.65,-4.65,-4.7234,-4.8124,-4.8995,-4.9805,-5.0302,-5.0302,-5.0302,-5.0302,-5.0302,-5.0302,-5.0195,-4.9961,-4.9862,-4.9767,-4.9633,-4.9548,-4.9538,-4.9622,-4.9548,-4.9528,-4.9548,-4.9528,-4.9711,-5.0133,-5.0133,-5.0307,-3.6424,-3.6901,-3.7349,-3.7349,-3.692,-3.6424,-3.6175,-3.5641,-3.5209,-3.5209,-3.5209,-3.5469,-3.6347,-3.7158,-3.798,-3.8858,-4.0922,-4.2507,-4.2756,-4.4017,-4.564,-4.7559,-4.7788,-4.8457,-5.0149,-5.0302,-5.0302,-5.0302,-5.0302,-5.0302,-5.0302,-5.0302,-5.0302,-5.0302,-5.0302,-5.0302,-5.0302,-5.0302,-5.0302,-5.0302,-5.0302,-5.0302,-5.0302,-5.0302,-5.0302,-5.0302,-5.0302,-5.0302,0.0,-5.0302,-5.0302,-5.0302,-5.0302,-5.0302,-5.0302,-5.0302,-5.0302,-5.0302,-5.0302,-5.0302,-5.0302,-5.0302,-5.0302,-5.0302,-5.0302,-5.0302,-5.0302,-5.0302,-5.0302,-5.0302,-5.0302,-5.0302,-5.0302,-5.0302,-5.0302,-5.0302,-5.0302,-5.0302,-5.0302,-5.0302,-4.9843,-4.9098,-4.7979,-4.7292,-4.6729,-4.6214,-4.7092,-4.8028,-4.864,-4.9633,-5.0302,-5.0302,-5.0302,-5.0302,-5.0302,-5.0302,-5.0363,-5.0486,-5.041,-5.0476,-5.0786,-5.0699,-5.069,-5.0795,-5.0699,-5.0672,-5.0705,-5.0653,-5.0699,-5.0803,-5.0803,-5.0758,-3.6271,-3.6519,-3.6519,-3.6519,-3.6519,-3.6271,-3.5411,-3.5209,-3.5209,-3.5209,-3.5209,-3.5469,-3.6347,-3.7158,-3.798,-3.8858,-4.0406,-4.18,-4.2679,-4.3491,-4.4961,-4.7502,-4.7788,-4.8457,-5.0149,-5.0302,-5.0302,-5.0302,-5.0302,-5.0302,-5.0302,-5.0302,-5.0302,-5.0302,-5.0302,-5.0302,-5.0302,-5.0302,-5.0302,-5.0302,-5.0302,-5.0302,-5.0302,-5.0302,-5.0302,-5.0302,-5.0302,-5.0302,0.0,-5.0302,-5.0302,-5.0302,-5.0302,-5.0302,-5.0302,-5.0302,-5.0302,-5.0302,-5.0302,-5.0302,-5.0302,-5.0302,-5.0302,-5.0302,-5.0302,-5.0302,-5.0302,-5.0302,-5.0302,-5.0302,-5.0302,-5.0302,-5.0302,-5.0302,-5.0302,-5.0302,-5.0302,-5.0302,-5.0302,-5.0302,-5.0283,-4.9767,-4.8094,-4.7788,-4.7226,-4.5564,-4.6729,-4.7788,-4.7807,-4.927,-5.0302,-5.0302,-5.0302,-5.0302,-5.0302,-5.0302,-5.0363,-5.0486,-5.0497,-5.0644,-5.0978,-5.1005,-5.1005,-5.1005,-5.1005,-5.0906,-5.0705,-5.0906,-5.1005,-5.1005,-5.1005,-5.0887,-3.5545,-3.5602,-3.5602,-3.5602,-3.5602,-3.5545,-3.5259,-3.5209,-3.5209,-3.5209,-3.5209,-3.5286,-3.5564,-3.6757,-3.7789,-3.8075,-4.052,-4.2488,-4.2756,-4.4017,-4.5602,-4.7559,-4.8812,-4.9729,-5.0245,-5.0302,-5.0302,-5.0302,-5.0302,-5.0302,-5.0302,-5.0302,-5.0302,-5.0302,-5.0302,-5.0302,-5.0302,-5.0302,-5.0302,-5.0302,-5.0302,-5.0302,-5.0302,-5.0302,-5.0302,-5.0302,-5.0302,-5.0302,-5.0302,-5.0302,-5.0302,-5.0302,-5.0302,-5.0302,-5.0302,-5.0302,-5.0302,-5.0302,-5.0302,-5.0302,-5.0302,-5.0302,-5.0302,-5.0302,-5.0302,-5.0302,-5.0302,-5.0302,-5.0302,-5.0302,-5.0302,-5.0302,-5.0302,-5.0302,-5.0302,-5.0302,-5.0302,-5.0302,-5.0302,-5.0302,-5.0302,-4.9958,-4.8869,-4.82,-4.7616,-4.7092,-4.7463,-4.8028,-4.8602,-4.9633,-5.0302,-5.0302,-5.0366,-5.0399,-5.0314,-5.0377,-5.0497,-5.0634,-5.0653,-5.0795,-5.1128,-5.1048,-5.1041,-5.1134,-5.1048,-5.1007,-5.1049,-5.1007,-5.1048,-5.1134,-5.1134,-5.1102,-3.5218,-3.5209,-3.5209,-3.5209,-3.5209,-3.5209,-3.5209,-3.5209,-3.5209,-3.5209,-3.5209,-3.5305,-3.5621,-3.6795,-3.7808,-3.8132,-4.0501,-4.2412,-4.2756,-4.3959,-4.5545,-4.7559,-4.9289,-5.0302,-5.0302,-5.0302,-5.0302,-5.0302,-5.0302,-5.0302,-5.0302,-5.0302,-5.0302,-5.0302,-5.0302,-5.0302,-5.0302,-5.0302,-5.0302,-5.0302,-5.0302,-5.0302,-5.0302,-5.0302,-5.0302,-5.0302,-5.0302,-5.0302,0.0,-5.0302,-5.0302,-5.0302,-5.0302,-5.0302,-5.0302,-5.0302,-5.0302,-5.0302,-5.0302,-5.0302,-5.0302,-5.0302,-5.0302,-5.0302,-5.0302,-5.0302,-5.0302,-5.0302,-5.0302,-5.0302,-5.0302,-5.0302,-5.0302,-5.0302,-5.0302,-5.0302,-5.0302,-5.0302,-5.0302,-5.0302,-5.0302,-5.0034,-4.9243,-4.8372,-4.7788,-4.7788,-4.7788,-4.8124,-4.8995,-4.9805,-5.0302,-5.0302,-5.0421,-5.0474,-5.0377,-5.0507,-5.0643,-5.0803,-5.0811,-5.0925,-5.1196,-5.1121,-5.1121,-5.1196,-5.1121,-5.1121,-5.1202,-5.1121,-5.1121,-5.1202,-5.1202,-5.1202,0.0,-3.5209,-3.5209,-3.5209,-3.5209,-3.5209,-3.5209,-3.5209,0.0,-3.5209,-3.5209,-3.5469,-3.6347,-3.7158,-3.798,-3.8858,-4.0463,-4.1877,-4.2698,-4.3643,-4.5152,-4.7521,-4.9289,-5.0302,-5.0302,-5.0302,-5.0302,-5.0302,-5.0302,-5.0302,-5.0302,-5.0302,-5.0302,-5.0302,-5.0302,-5.0302,-5.0302,-5.0302,-5.0302,-5.0302,-5.0302,-5.0302,-5.0302,-5.0302,-5.0302,0.0,-5.0302,-5.0302,-5.0302,-5.0302,-5.0302,-5.0302,-5.0302,-5.0302,-5.0302,-5.0302,-5.0302,-5.0302,-5.0302,-5.0302,-5.0302,-5.0302,-5.0302,-5.0302,-5.0302,-5.0302,-5.0302,-5.0302,-5.0302,-5.0302,-5.0302,-5.0302,-5.0302,-5.0302,-5.0302,-5.0302,-5.0302,-5.0302,-5.0302,-5.0302,-5.0302,-5.0054,-4.932,-4.8468,-4.7884,-4.7884,-4.7884,-4.8181,-4.8995,-4.9805,-5.0302,-5.0302,-5.0432,-5.0517,-5.0517,-5.0653,-5.0811,-5.0978,-5.1012,-5.1062,-5.1196,-5.1202,-5.1202,-5.1202,-5.1202,-5.1202,-5.1202,-5.1202,-5.1202,-5.1202,-5.1202,-5.1202,-3.5379,0.0,-3.5209,-3.5209,-3.5209,-3.5209,0.0,-3.5209,-3.5209,-3.5209,-3.5209,-3.5469,-3.6347,-3.7158,-3.798,-3.8858,-4.0979,-4.2565,-4.2775,-4.5182,-4.712,-4.7731,-4.9289,-5.0302,-5.0302,-5.0302,-5.0302,-5.0302,-5.0302,-5.0302,-5.0302,-5.0302,-5.0302,-5.0302,-5.0302,-5.0302,-5.0302,-5.0302,-5.0302,-5.0302,-5.0302,-5.0302,-5.0302,-5.0302,-5.0302,-5.0302,-5.0302,-5.0302,-5.0302,-5.0302,-5.0302,-5.0302,-5.0302,-5.0302,-5.0302,-5.0302,-5.0302,-5.0302,-5.0302,-5.0302,-5.0302,-5.0302,-5.0302,-5.0302,-5.0302,-5.0302,-5.0302,-5.0302,-5.0302,-5.0302,-5.0302,-5.0302,-5.0302,-5.0302,-5.0302,-5.0302,-5.0302,-5.0302,-5.0302,-5.0302,-5.0302,-5.0245,-5.0054,-4.9347,-4.8793,-4.8793,-4.8793,-4.8869,-4.9071,-4.9805,-5.0302,-5.0302,-5.0498,-5.0652,-5.0652,-5.0811,-5.0956,-5.1005,-5.1108,-5.1178,-5.1202,-5.1202,-5.1202,-5.1202,-5.1202,-5.1202,-5.1202,-5.1202,-5.1202,-5.1202,-5.1202,-5.1202,-3.5477,-3.5367,-3.5289,-3.5289,-3.525,-3.5209,-3.5209,-3.5209,-3.5209,-3.5209,-3.5507,-3.6042,-3.691,-3.7731,-3.8706,-3.9947,-4.1648,-4.3195,-4.4341,-4.6394,-4.7941,-4.8353,-4.9519,-5.0302,-5.0302,-5.0302,-5.0302,-5.0302,-5.0302,-5.0302,-5.0302,-5.0302,-5.0302,-5.0302,-5.0302,-5.0302,-5.0302,-5.0302,-5.0302,-5.0302,-5.0302,-5.0302,-5.0302,-5.0302,-5.0302,-5.0302,-5.0302,-5.0302,-5.0302,-5.0302,-5.0302,-5.0302,-5.0302,-5.0302,-5.0302,-5.0302,-5.0302,-5.0302,-5.0302,-5.0302,-5.0302,-5.0302,-5.0302,-5.0302,-5.0302,-5.0302,-5.0302,-5.0302,-5.0302,-5.0302,-5.0302,-5.0302,-5.0302,-5.0302,-5.0302,-5.0302,-5.0302,-5.0302,-5.0302,-5.0302,-5.0302,-5.0302,-5.0302,-4.9633,-4.9243,-4.9595,-4.9387,-4.9294,-4.9606,-5.0142,-5.0455,-5.0388,-5.0663,-5.0827,-5.0827,-5.0981,-5.1082,-5.1082,-5.1153,-5.1202,-5.1202,-5.1202,-5.1202,-5.1202,-5.1202,-5.1202,-5.1202,-5.1202,-5.1202,-5.1202,-5.1202,-5.1202,-3.5562,-3.5464,-3.5407,-3.5393,-3.5297,-3.5209,-3.5209,-3.5209,-3.5248,-3.5373,-3.5984,-3.6787,-3.7731,-3.8495,-3.9546,-4.1227,-4.2335,-4.3806,-4.6175,-4.7264,-4.8124,-4.8995,-4.9805,-5.0302,-5.0302,-5.0302,-5.0302,-5.0302,-5.0302,-5.0302,-5.0302,-5.0302,-5.0302,-5.0302,-5.0302,-5.0302,-5.0302,-5.0302,-5.0302,-5.0302,-5.0302,-5.0302,-5.0302,-5.0302,-5.0302,-5.0302,0.0,0.0,-5.0302,-5.0302,-5.0302,-5.0302,-5.0302,-5.0302,-5.0302,-5.0302,-5.0302,-5.0302,-5.0302,-5.0302,-5.0302,-5.0302,-5.0302,-5.0302,-5.0302,-5.0302,-5.0302,-5.0302,-5.0302,-5.0302,-5.0302,-5.0302,-5.0302,-5.0302,-5.0302,-5.0302,-5.0302,-5.0302,-5.0302,-5.0302,-5.0302,-5.0302,-5.0302,-4.9729,-4.9461,-5.0034,-4.9769,-4.963,-5.0092,-5.0471,-5.0652,-5.0538,-5.0805,-5.1005,-5.1005,-5.1128,-5.1202,-5.1202,-5.1202,-5.1202,-5.1202,-5.1202,-5.1202,-5.1202,-5.1202,-5.1202,-5.1202,-5.1202,-5.1202,-5.1202,-5.1202,-5.1202,-3.5693,-3.5587,-3.547,-3.5415,-3.5297,-3.5209,-3.5209,-3.5209,-3.5411,-3.6156,-3.6405,-3.6978,-3.8514,-3.8916,-3.9546,-4.1227,-4.2794,-4.4446,-4.6252,-4.7264,-4.8124,-4.8995,-4.9805,-5.0302,-5.0302,-5.0302,-5.0302,-5.0302,-5.0302,-5.0302,-5.0302,-5.0302,-5.0302,-5.0302,-5.0302,-5.0302,-5.0302,-5.0302,-5.0302,-5.0302,-5.0302,-5.0302,-5.0302,-5.0302,-5.0302,-5.0302,0.0,-5.0302,-5.0302,-5.0302,-5.0302,-5.0302,-5.0302,-5.0302,-5.0302,-5.0302,-5.0302,-5.0302,-5.0302,-5.0302,-5.0302,-5.0302,-5.0302,-5.0302,-5.0302,-5.0302,-5.0302,-5.0302,-5.0302,-5.0302,-5.0302,-5.0302,-5.0302,-5.0302,-5.0302,-5.0302,-5.0302,-5.0302,-5.0302,-5.0302,-5.0302,-5.0302,-5.0302,-5.0206,-4.992,-4.9366,-4.9865,-5.0113,-4.9536,-5.0173,-5.0696,-5.067,-5.0863,-5.1005,-5.1005,-5.1128,-5.1202,-5.1202,-5.1202,-5.1202,-5.1202,-5.1202,-5.1202,-5.1202,-5.1202,-5.1202,-5.1202,-5.1202,-5.1202,-5.1202,-5.1202,-5.1202,-3.5756,-3.5623,-3.5489,-3.5457,-3.533,-3.5209,-3.5209,-3.5564,-3.6023,-3.6424,-3.7226,-3.8094,-3.8858,-3.9737,-4.0903,-4.2584,-4.4265,-4.5783,-4.7024,-4.7952,-4.8812,-4.9652,-5.0073,-5.0302,-5.0302,-5.0302,-5.0302,-5.0302,-5.0302,-5.0302,-5.0302,-5.0302,-5.0302,-5.0302,-5.0302,-5.0302,-5.0302,-5.0302,-5.0302,-5.0302,-5.0302,-5.0302,-5.0302,-5.0302,-5.0302,-5.0302,0.0,-5.0302,-5.0302,-5.0302,-5.0302,-5.0302,-5.0302,-5.0302,-5.0302,-5.0302,-5.0302,-5.0302,-5.0302,-5.0302,-5.0302,-5.0302,-5.0302,-5.0302,-5.0302,-5.0302,-5.0302,-5.0302,-5.0302,-5.0302,-5.0302,-5.0302,-5.0302,-5.0302,-5.0302,-5.0302,-5.0302,-5.0302,-5.0302,-5.0302,-5.0302,-5.0317,-5.0407,-5.041,-5.0308,-4.9998,-5.0412,-5.061,-5.0114,-5.0596,-5.094,-5.0871,-5.1007,-5.1115,-5.1115,-5.1159,-5.1202,-5.1202,-5.1202,-5.1202,-5.1202,-5.1202,-5.1202,-5.1202,-5.1202,-5.1202,-5.1202,-5.1202,-5.1202,-5.1202,-5.1202,-5.1202,-3.5795,-3.5684,-3.555,-3.555,-3.5376,-3.5248,-3.545,-3.6023,-3.6615,-3.6997,-3.8113,-3.9126,-3.9508,-4.096,-4.2507,-4.3796,-4.5401,-4.6806,-4.7674,-4.8544,-4.9396,-5.0206,-5.0302,-5.0302,-5.0302,-5.0302,-5.0302,-5.0302,-5.0302,-5.0302,-5.0302,-5.0302,-5.0302,-5.0302,-5.0302,-5.0302,-5.0302,-5.0302,-5.0302,-5.0302,-5.0302,-5.0302,-5.0302,-5.0302,-5.0302,-5.0302,-5.0302,-5.0302,-5.0302,-5.0302,-5.0302,-5.0302,-5.0302,-5.0302,-5.0302,-5.0302,-5.0302,-5.0302,-5.0302,-5.0302,-5.0302,-5.0302,-5.0302,-5.0302,-5.0302,-5.0302,-5.0302,-5.0302,-5.0302,-5.0302,-5.0302,-5.0302,-5.0302,-5.0302,-5.0317,-5.0329,-5.0314,-5.0352,-5.0377,-5.0352,-5.0355,-5.0432,-5.0537,-5.0557,-5.0587,-5.0687,-5.0871,-5.0937,-5.0784,-5.1009,-5.1153,-5.1055,-5.114,-5.1202,-5.1202,-5.1202,-5.1202,-5.1202,-5.1202,-5.1202,-5.1202,-5.1202,-5.1202,-5.1202,-5.1202,-5.1202,-5.1202,-5.1202,-5.1202,-5.1202,-5.1202,-5.1202,-3.5795,-3.5742,-3.5697,-3.5697,-3.545,-3.5411,-3.6214,-3.6443,-3.6939,-3.8495,-3.8916,-3.9489,-4.1036,-4.2698,-4.3854,-4.3987,-4.5401,-4.6806,-4.7674,-4.8544,-4.9396,-5.0206,-5.0302,-5.0302,-5.0302,-5.0302,-5.0302,-5.0302,-5.0302,-5.0302,-5.0302,-5.0302,-5.0302,-5.0302,-5.0302,-5.0302,-5.0302,-5.0302,-5.0302,-5.0302,-5.0302,-5.0302,-5.0302,-5.0302,-5.0302,-5.0302,-5.0302,-5.0302,-5.0302,-5.0302,-5.0302,-5.0302,-5.0302,-5.0302,-5.0302,-5.0302,-5.0302,-5.0302,-5.0302,-5.0302,-5.0302,-5.0302,-5.0302,-5.0302,-5.0302,-5.0302,-5.0302,-5.0302,-5.0302,-5.0302,-5.0302,-5.0302,-5.0302,-5.0302,-5.0407,-5.0445,-5.0337,-5.0507,-5.0624,-5.0517,-5.0587,-5.067,-5.0678,-5.0687,-5.0687,-5.0696,-5.0871,-5.0986,-5.0978,-5.1115,-5.1196,-5.119,-5.1196,-5.1202,-5.1202,-5.1202,-5.1202,-5.1202,-5.1202,-5.1202,-5.1202,-5.1202,-5.1202,-5.1202,-5.1202,-5.1202,-5.1202,-5.1202,-5.1202,-5.1202,-5.1202,-5.1202,-3.5795,-3.5747,-3.5707,-3.5707,-3.5957,-3.6267,-3.6512,-3.7397,-3.8339,-3.8895,-3.9833,-4.1074,-4.2756,-4.3567,-4.4178,-4.4723,-4.6214,-4.7406,-4.775,-4.8984,-4.9958,-5.0264,-5.0302,-5.0302,-5.0302,-5.0302,-5.0302,-5.0302,-5.0302,-5.0302,-5.0302,-5.0302,-5.0302,-5.0302,-5.0302,-5.0302,-5.0302,-5.0302,-5.0302,-5.0302,-5.0302,-5.0302,-5.0302,-5.0302,-5.0302,-5.0302,-5.0302,-5.0302,-5.0302,-5.0302,-5.0302,-5.0302,-5.0302,-5.0302,-5.0302,-5.0302,-5.0302,-5.0302,-5.0302,-5.0302,-5.0302,-5.0302,-5.0302,-5.0302,-5.0302,-5.0302,-5.0302,-5.0302,-5.0302,-5.0302,-5.0302,-5.0302,-5.0302,-5.0302,-5.0399,-5.0486,-5.0442,-5.0567,-5.0687,-5.0624,-5.0661,-5.075,-5.0871,-5.0879,-5.091,-5.0995,-5.1082,-5.1128,-5.1128,-5.1178,-5.1202,-5.1202,-5.1202,-5.1202,-5.1202,-5.1202,-5.1202,-5.1202,-5.1202,-5.1202,-5.1202,-5.1202,-5.1202,-5.1202,-5.1202,-5.1202,-5.1202,-5.1202,-5.1202,-5.1202,-5.1202,-5.1202,-3.5765,-3.5728,-3.576,-3.598,-3.6648,-3.7263,-3.7382,-3.8331,-3.9306,-3.9707,-4.1113,-4.2651,-4.3847,-4.4257,-4.4619,-4.5254,-4.6723,-4.7788,-4.7788,-4.9251,-5.0302,-5.0302,-5.0302,-5.0302,-5.0302,-5.0302,-5.0302,-5.0302,-5.0302,-5.0302,-5.0302,-5.0302,-5.0302,-5.0302,-5.0302,-5.0302,-5.0302,-5.0302,-5.0302,-5.0302,-5.0302,-5.0302,-5.0302,-5.0302,-5.0302,-5.0302,-5.0302,-5.0302,-5.0302,-5.0302,-5.0302,-5.0302,-5.0302,-5.0302,-5.0302,-5.0302,-5.0302,-5.0302,-5.0302,-5.0302,-5.0314,-5.0352,-5.052,-5.0715,-5.0753,-5.075,-5.0703,-5.0703,-5.0512,-5.0314,-5.0352,-5.0329,-5.0302,-5.0302,-5.0423,-5.0548,-5.0507,-5.068,-5.0851,-5.0792,-5.0835,-5.091,-5.1048,-5.1062,-5.1082,-5.119,-5.1202,-5.1202,-5.1202,-5.1202,-5.1202,-5.1202,-5.1202,-5.1202,-5.1202,-5.1202,-5.1202,-5.1202,-5.1202,-5.1202,-5.1202,-5.1202,-5.1202,-5.1202,-5.1202,-5.1202,-5.1202,-5.1202,-5.1202,-5.1202,-5.1202,-5.1202,-3.5707,-3.5707,-3.588,-3.6613,-3.7512,-3.8355,-3.8958,-3.9169,-3.9663,-4.1208,-4.2851,-4.4038,-4.42,-4.4815,-4.5339,-4.5476,-4.6797,-4.7799,-4.7799,-4.9251,-5.0302,-5.0302,-5.0302,-5.0302,-5.0302,-5.0302,-5.0302,-5.0302,-5.0302,-5.0302,-5.0302,-5.0302,-5.0302,-5.0302,-5.0302,-5.0302,-5.0302,-5.0302,-5.0302,-5.0302,-5.0302,-5.0302,-5.0302,-5.0302,-5.0302,-5.0302,-5.0302,-5.0302,-5.0302,-5.0302,-5.0302,-5.0302,-5.0302,-5.0302,-5.0302,-5.0302,-5.0302,-5.0302,-5.0302,-5.0302,-5.0337,-5.0464,-5.1023,-5.1637,-5.176,-5.1713,-5.162,-5.162,-5.099,-5.0348,-5.0474,-5.0418,-5.0302,-5.0302,-5.0517,-5.0661,-5.0518,-5.0871,-5.1153,-5.1034,-5.1115,-5.1202,-5.1202,-5.1202,-5.1202,-5.1202,-5.1202,-5.1202,-5.1202,-5.1202,-5.1202,-5.1202,-5.1202,-5.1202,-5.1202,-5.1202,-5.1202,-5.1202,-5.1202,-5.1202,-5.1202,-5.1202,-5.1202,-5.1202,-5.1202,-5.1202,-5.1202,-5.1202,-5.1202,-5.1202,-5.1202,-5.1202,-3.5778,-3.5736,-3.5897,-3.6676,-3.7506,-3.8299,-3.8962,-4.0063,-4.14,-4.2938,-4.3743,-4.4345,-4.4986,-4.5376,-4.5582,-4.5624,-4.7015,-4.8085,-4.8085,-4.9528,-5.0587,-5.0587,-5.0587,-5.0538,-5.0453,-5.0442,-5.0399,-5.0314,-5.0302,-5.0302,-5.0302,-5.0302,-5.0302,-5.0302,-5.0302,-5.0302,-5.0302,-5.0302,-5.0302,-5.0302,-5.0302,-5.0302,-5.0302,-5.0302,-5.0302,-5.0302,-5.0302,-5.0302,-5.0302,-5.0302,-5.0302,-5.0302,-5.0302,-5.0302,-5.0302,-5.0302,-5.0363,-5.0442,-5.0442,-5.0507,-5.0693,-5.1337,-5.1703,-5.2001,-5.2656,-5.283,-5.28,-5.28,-5.2174,-5.1501,-5.1549,-5.1068,-5.0587,-5.0587,-5.0752,-5.0906,-5.0866,-5.1048,-5.119,-5.1146,-5.1159,-5.1202,-5.1202,-5.1202,-5.1202,-5.1202,-5.1202,-5.1202,-5.1202,-5.1202,-5.1202,-5.1202,-5.1202,-5.1202,-5.1202,-5.1202,-5.1202,-5.1202,-5.1202,-5.1202,-5.1202,-5.1202,-5.1202,-5.1202,-5.1202,-5.1202,-5.1202,-5.1202,-5.1202,-5.1202,-5.1202,-5.1202,-3.5674,-3.5679,-3.596,-3.703,-3.7713,-3.8563,-4.0238,-4.1402,-4.2498,-4.374,-4.4394,-4.4879,-4.5479,-4.5651,-4.5723,-4.5769,-4.6851,-4.7687,-4.7687,-4.9153,-5.0214,-5.0214,-5.0503,-5.067,-5.0587,-5.0577,-5.0538,-5.0466,-5.0455,-5.0442,-5.0377,-5.0385,-5.0352,-5.0302,-5.0302,-5.0302,-5.0302,-5.0302,-5.0337,-5.0385,-5.0385,-5.041,-5.0455,-5.0352,-5.0302,-5.0302,-5.0302,-5.0302,-5.0302,-5.0302,-5.0302,-5.0302,-5.0302,-5.0329,-5.0385,-5.0385,-5.0455,-5.0577,-5.0577,-5.0855,-5.1312,-5.1885,-5.2505,-5.3145,-5.3728,-5.3865,-5.382,-5.382,-5.3203,-5.2459,-5.2163,-5.1689,-5.1197,-5.0791,-5.0844,-5.1005,-5.1005,-5.1115,-5.1202,-5.1202,-5.1202,-5.1202,-5.1202,-5.1202,-5.1202,-5.1202,-5.1202,-5.1202,-5.1202,-5.1202,-5.1202,-5.1202,-5.1202,-5.1202,-5.1202,-5.1202,-5.1202,-5.1202,-5.1202,-5.1202,-5.1202,-5.1202,-5.1202,-5.1202,-5.1202,-5.1202,-5.1202,-5.1202,-5.1202,-5.1202,-5.1202,-5.1202,-3.5496,-3.5577,-3.6063,-3.7555,-3.817,-3.9187,-4.2231,-4.2861,-4.3062,-4.396,-4.4873,-4.5566,-4.57,-4.5712,-4.5776,-4.59,-4.6494,-4.6939,-4.6939,-4.8367,-4.941,-4.941,-5.0055,-5.0499,-5.049,-5.0568,-5.0598,-5.058,-5.0657,-5.0642,-5.0508,-5.0527,-5.0455,-5.034,-5.0329,-5.0317,-5.0325,-5.0317,-5.0388,-5.0497,-5.0517,-5.0587,-5.0696,-5.0445,-5.0317,-5.0325,-5.0329,-5.0317,-5.0325,-5.0329,-5.0329,-5.0329,-5.0329,-5.041,-5.0527,-5.0527,-5.0606,-5.0741,-5.0741,-5.131,-5.2069,-5.2276,-5.337,-5.4666,-5.4881,-5.486,-5.4755,-5.4755,-5.4127,-5.3293,-5.2632,-5.2402,-5.2089,-5.1101,-5.0945,-5.102,-5.102,-5.1121,-5.1202,-5.1202,-5.1202,-5.1202,-5.1202,-5.1202,-5.1202,-5.1202,-5.1202,-5.1202,-5.1202,-5.1202,-5.1202,-5.1202,-5.1202,-5.1202,-5.1202,-5.1202,-5.1202,-5.1202,-5.1202,-5.1202,-5.1202,-5.1202,-5.1202,-5.1202,-5.1202,-5.1202,-5.1202,-5.1202,-5.1202,-5.1202,-5.1202,-5.1202,-3.5807,-3.575,-3.6096,-3.7735,-3.9031,-4.0473,-4.2587,-4.3,-4.3385,-4.4872,-4.5432,-4.5708,-4.5826,-4.5893,-4.5927,-4.5969,-4.6671,-4.7216,-4.7216,-4.8127,-4.8787,-4.8787,-4.8942,-4.9007,-4.8905,-4.9509,-4.9877,-4.977,-5.0349,-5.0687,-5.0652,-5.0652,-5.0642,-5.0605,-5.0605,-5.0567,-5.0464,-5.0558,-5.0577,-5.0497,-5.0615,-5.067,-5.0696,-5.0633,-5.0558,-5.0455,-5.0567,-5.0548,-5.0474,-5.0577,-5.0605,-5.0605,-5.0605,-5.0624,-5.0652,-5.0652,-5.0778,-5.0929,-5.0929,-5.1538,-5.2428,-5.3152,-5.4071,-5.504,-5.5766,-5.5953,-5.5932,-5.5932,-5.5312,-5.4601,-5.4446,-5.389,-5.3152,-5.2253,-5.158,-5.1153,-5.1153,-5.1184,-5.1202,-5.1202,-5.1202,-5.1202,-5.1202,-5.1202,-5.1202,-5.1202,-5.1202,-5.1202,-5.1202,-5.1202,-5.1202,-5.1202,-5.1202,-5.1202,-5.1202,-5.1202,-5.1202,-5.1202,-5.1202,-5.1202,-5.1202,-5.1202,-5.1202,-5.1202,-5.1202,-5.1202,-5.1202,-5.1202,-5.1202,-5.1202,-5.1202,-5.1202,-3.5788,-3.5771,-3.6191,-3.789,-3.9472,-4.0984,-4.2285,-4.2881,-4.3512,-4.4805,-4.5457,-4.5812,-4.5886,-4.5941,-4.6002,-4.6002,-4.6385,-4.6676,-4.6676,-4.7434,-4.7978,-4.7978,-4.8347,-4.8563,-4.849,-4.891,-4.931,-4.9662,-5.0088,-5.0472,-5.0816,-5.0835,-5.0803,-5.0705,-5.0705,-5.0661,-5.0596,-5.0661,-5.0715,-5.0745,-5.0803,-5.0887,-5.094,-5.0775,-5.0661,-5.0606,-5.067,-5.0661,-5.0606,-5.067,-5.0705,-5.0705,-5.0705,-5.0758,-5.0835,-5.0835,-5.0952,-5.1147,-5.1535,-5.2266,-5.3164,-5.4038,-5.4912,-5.5709,-5.6155,-5.6291,-5.6291,-5.6291,-5.5961,-5.5534,-5.5106,-5.466,-5.4096,-5.3222,-5.2387,-5.1668,-5.128,-5.1202,-5.1202,-5.1202,-5.1202,-5.1202,-5.1202,-5.1202,-5.1202,-5.1202,-5.1202,-5.1202,-5.1202,-5.1202,-5.1202,-5.1202,-5.1202,-5.1202,-5.1202,-5.1202,-5.1202,-5.1202,-5.1202,-5.1202,-5.1202,-5.1202,-5.1202,-5.1202,-5.1202,-5.1202,-5.1202,-5.1202,-5.1202,-5.1202,-5.1202,-5.1202,-3.5696,-3.5989,-3.6669,-3.8045,-3.9655,-4.1087,-4.1862,-4.2568,-4.3369,-4.4421,-4.5306,-4.5906,-4.5919,-4.5953,-4.6002,-4.6002,-4.6002,-4.6002,-4.6002,-4.6618,-4.7084,-4.7084,-4.7706,-4.8153,-4.8153,-4.8289,-4.8677,-4.9401,-4.9732,-5.0163,-5.077,-5.0956,-5.0952,-5.0792,-5.0792,-5.0775,-5.0758,-5.0775,-5.0851,-5.1005,-5.1027,-5.1082,-5.1196,-5.0905,-5.0775,-5.0758,-5.0784,-5.0775,-5.0758,-5.0784,-5.0792,-5.0792,-5.0792,-5.0894,-5.1034,-5.1034,-5.1095,-5.1319,-5.2115,-5.297,-5.385,-5.4718,-5.5592,-5.6291,-5.6291,-5.6291,-5.6291,-5.6291,-5.6291,-5.6136,-5.5417,-5.5223,-5.5009,-5.4135,-5.3378,-5.262,-5.1804,-5.163,-5.163,-5.163,-5.163,-5.163,-5.163,-5.163,-5.163,-5.163,-5.163,-5.163,-5.163,-5.163,-5.163,-5.163,-5.1494,-5.1416,-5.1416,-5.128,-5.1202,-5.1202,-5.1202,-5.1202,-5.1202,-5.1202,-5.1202,-5.1202,-5.1202,-5.1202,-5.1202,-5.1202,-5.1202,-5.1202,-5.1202,-5.1202,-3.5868,-3.6943,-3.8124,-3.8337,-3.9611,-4.1048,-4.1965,-4.2175,-4.2664,-4.4411,-4.5374,-4.5925,-4.5989,-4.5991,-4.6002,-4.6002,-4.6002,-4.6002,-4.6002,-4.6099,-4.6177,-4.6177,-4.6274,-4.6351,-4.6351,-4.7026,-4.7531,-4.7648,-4.9046,-4.994,-5.0045,-5.0757,-5.1159,-5.1121,-5.1121,-5.1082,-5.0963,-5.1082,-5.1089,-5.1005,-5.1121,-5.119,-5.1202,-5.1153,-5.1075,-5.0971,-5.1082,-5.1075,-5.0971,-5.1089,-5.1121,-5.1121,-5.1121,-5.1153,-5.1165,-5.1165,-5.119,-5.1319,-5.2115,-5.297,-5.385,-5.4718,-5.5592,-5.6291,-5.6291,-5.6291,-5.6291,-5.6291,-5.6291,-5.6272,-5.6155,-5.6136,-5.5903,-5.5029,-5.4737,-5.4427,-5.3553,-5.3364,-5.3364,-5.3364,-5.3364,-5.3364,-5.3364,-5.3364,-5.3364,-5.3364,-5.3364,-5.3364,-5.3364,-5.3364,-5.3364,-5.3364,-5.2678,-5.2232,-5.2232,-5.161,-5.1202,-5.1202,-5.1202,-5.1202,-5.1202,-5.1202,-5.1202,-5.1202,-5.1202,-5.1202,-5.1202,-5.1202,-5.1202,-5.1202,-5.1202,-5.1202,-3.5914,-3.6771,-3.7794,-3.8279,-3.9311,-4.0422,-4.1323,-4.1859,-4.2534,-4.3856,-4.473,-4.5423,-4.5899,-4.6002,-4.6002,-4.6002,-4.6002,-4.6002,-4.6002,-4.6002,-4.6002,-4.6002,-4.6002,-4.6002,-4.6002,-4.6346,-4.6773,-4.7254,-4.8017,-4.8871,-4.9848,-5.025,-5.0697,-5.1183,-5.1202,-5.1159,-5.1115,-5.1159,-5.1178,-5.1115,-5.1159,-5.1202,-5.1202,-5.1202,-5.1178,-5.1121,-5.1165,-5.1178,-5.1121,-5.1184,-5.1202,-5.1202,-5.1202,-5.1202,-5.1202,-5.1202,-5.1202,-5.1377,-5.2678,-5.3384,-5.3928,-5.5281,-5.5981,-5.6291,-5.6291,-5.6291,-5.6291,-5.6291,-5.6291,-5.6291,-5.6291,-5.6291,-5.6194,-5.5825,-5.5728,-5.5612,-5.5242,-5.4394,-5.3695,-5.3695,-5.3695,-5.3695,-5.3695,-5.3695,-5.3695,-5.3695,-5.3695,-5.3695,-5.3695,-5.3695,-5.3695,-5.3695,-5.3364,-5.3125,-5.3125,-5.2795,-5.2387,-5.1901,-5.1863,-5.1668,-5.1222,-5.1202,-5.1202,-5.1202,-5.1202,-5.1202,-5.1202,-5.1202,-5.1202,-5.1202,-5.1202,-5.1202,-3.5912,-3.6507,-3.7332,-3.8179,-3.906,-3.992,-4.0777,-4.1494,-4.221,-4.3081,-4.3748,-4.4478,-4.5536,-4.5862,-4.6002,-4.6002,-4.6002,-4.6002,-4.6002,-4.6002,-4.6002,-4.6002,-4.6002,-4.6002,-4.6002,-4.6002,-4.6268,-4.6929,-4.7181,-4.7881,-4.9163,-4.946,-4.9959,-5.0833,-5.0872,-5.0989,-5.1202,-5.1202,-5.1202,-5.1202,-5.1202,-5.1202,-5.1202,-5.1202,-5.1202,-5.1202,-5.1202,-5.1202,-5.1202,-5.1202,-5.1202,-5.1202,-5.1202,-5.1202,-5.1202,-5.1202,-5.1202,-5.1416,-5.2873,-5.3364,-5.3656,-5.5398,-5.5961,-5.6,-5.6233,-5.6291,-5.6291,-5.6291,-5.6291,-5.6291,-5.6291,-5.6291,-5.6291,-5.6291,-5.6291,-5.6291,-5.6291,-5.5281,-5.4355,-5.4355,-5.4355,-5.4355,-5.4355,-5.4355,-5.4355,-5.4355,-5.4355,-5.4355,-5.4355,-5.4355,-5.4355,-5.4355,-5.4161,-5.4019,-5.4019,-5.3831,-5.3423,-5.2776,-5.2523,-5.2135,-5.1532,-5.1319,-5.1202,-5.1202,-5.1202,-5.1202,-5.1202,-5.1202,-5.1202,-5.1202,-5.1202,-5.1202,-3.5912,-3.6528,-3.7391,-3.8205,-3.9062,-3.991,-4.0727,-4.0987,-4.1307,-4.2187,-4.2408,-4.2955,-4.4646,-4.5535,-4.6002,-4.6002,-4.6002,-4.6002,-4.6002,-4.6002,-4.6002,-4.6002,-4.6002,-4.6002,-4.6002,-4.6002,-4.6021,-4.606,-4.6832,-4.7331,-4.7434,-4.8211,-4.9066,-4.9945,-4.9965,-5.0367,-5.1183,-5.1202,-5.1202,-5.1202,-5.1202,-5.1202,-5.1202,-5.1202,-5.1202,-5.1202,-5.1202,-5.1202,-5.1202,-5.1202,-5.1202,-5.1202,-5.1202,-5.1202,-5.1202,-5.1202,-5.1202,-5.1319,-5.2173,-5.2465,-5.2756,-5.4504,-5.5068,-5.5223,-5.6058,-5.6291,-5.6291,-5.6291,-5.6291,-5.6291,-5.6291,-5.6291,-5.6291,-5.6291,-5.6291,-5.6291,-5.6291,-5.6233,-5.6155,-5.6155,-5.6155,-5.6155,-5.6155,-5.6155,-5.6155,-5.6155,-5.6155,-5.6155,-5.6155,-5.6155,-5.6155,-5.6155,-5.5437,-5.4932,-5.4932,-5.4174,-5.3675,-5.3636,-5.2853,-5.2387,-5.2348,-5.161,-5.1202,-5.1202,-5.1202,-5.1202,-5.1202,-5.1202,-5.1202,-5.1202,-5.1202,-5.1202,-3.5912,-3.612,-3.6562,-3.7419,-3.8247,-3.9096,-3.9987,-4.0611,-4.126,-4.2178,-4.2354,-4.2716,-4.3866,-4.4743,-4.546,-4.5978,-4.6051,-4.6061,-4.6007,-4.6002,-4.6002,-4.6002,-4.6002,-4.6002,-4.6002,-4.6002,-4.6002,-4.6002,-4.6288,-4.6715,-4.7273,-4.7609,-4.8172,-4.9046,-4.9615,-5.0309,-5.1183,-5.1202,-5.1202,-5.1202,-5.1202,-5.1202,-5.1202,-5.1202,-5.1202,-5.1202,-5.1202,-5.1202,-5.1202,-5.1202,-5.1202,-5.1202,-5.1202,-5.1202,-5.1202,-5.1202,-5.1202,-5.1319,-5.2115,-5.2407,-5.2698,-5.4427,-5.5009,-5.5165,-5.6039,-5.6291,-5.6291,-5.6291,-5.6291,-5.6291,-5.6291,-5.6291,-5.6291,-5.6291,-5.6291,-5.6291,-5.6291,-5.6291,-5.6291,-5.6291,-5.6291,-5.6291,-5.6291,-5.6291,-5.6291,-5.6291,-5.6291,-5.6291,-5.6291,-5.6291,-5.6291,-5.6291,-5.6019,-5.5825,-5.5825,-5.5553,-5.5126,-5.4563,-5.4232,-5.3572,-5.2445,-5.2115,-5.1727,-5.1202,-5.1202,-5.1202,-5.1202,-5.1202,-5.1202,-5.1202,-5.1202,-5.1202,-3.596,-3.5937,-3.6146,-3.6982,-3.7815,-3.8663,-3.9555,-4.041,-4.1215,-4.1833,-4.195,-4.2217,-4.3038,-4.3668,-4.4419,-4.5519,-4.5944,-4.613,-4.6075,-4.6056,-4.6027,-4.6027,-4.6012,-4.6002,-4.6002,-4.6002,-4.6002,-4.6002,-4.6002,0.0,-4.6832,-4.6851,-4.7395,-4.8561,-4.946,-5.0309,-5.1183,-5.1202,-5.1202,-5.1202,-5.1202,-5.1202,-5.1202,-5.1202,-5.1202,-5.1202,-5.1202,-5.1202,-5.1202,-5.1202,-5.1202,-5.1202,-5.1202,-5.1202,-5.1202,-5.1202,-5.1202,-5.128,-5.1804,-5.1999,-5.2271,-5.3999,-5.4563,-5.4776,-5.5942,-5.6291,-5.6291,-5.6291,-5.6291,-5.6291,-5.6291,-5.6291,-5.6291,-5.6291,-5.6291,-5.6291,-5.6291,-5.6291,-5.6291,-5.6291,-5.6291,-5.6291,-5.6291,-5.6291,-5.6291,-5.6291,-5.6291,-5.6291,-5.6291,-5.6291,-5.6291,-5.6291,-5.6291,-5.6291,-5.6291,-5.6291,-5.6058,-5.5476,-5.5165,-5.4349,-5.2892,-5.2562,-5.2018,-5.1222,-5.1202,-5.1202,-5.1202,-5.1202,-5.1202,-5.1202,-5.1202,-5.1202,0.0,0.0,0.0,-3.6965,-3.7817,-3.8668,-3.948,-4.0393,-4.1074,-4.1093,-4.1095,-4.1363,-4.2201,-4.2376,-4.2928,-4.4569,-4.5553,-4.6121,-4.616,-4.6107,-4.6078,-4.6098,-4.6037,-4.6002,-4.6002,-4.6002,-4.6002,-4.6002,-4.6002,-4.6002,-4.6002,-4.6002,-4.6798,-4.8502,-4.9421,-5.027,-5.1144,-5.1183,-5.1202,-5.1202,-5.1202,-5.1202,-5.1202,-5.1202,-5.1202,-5.1202,-5.1202,-5.1202,-5.1202,-5.1202,-5.1202,-5.1202,-5.1202,-5.1202,-5.1202,-5.1202,-5.1202,-5.1202,-5.1202,-5.1222,-5.1513,-5.317,-5.3714,-5.4064,-5.5786,-5.6291,-5.6291,-5.6291,-5.6291,-5.6291,-5.6291,-5.6291,-5.6291,-5.6291,-5.6291,-5.6291,-5.6291,-5.6291,-5.6291,-5.6291,-5.6291,-5.6291,-5.6291,-5.6291,-5.6291,-5.6291,-5.6291,-5.6291,-5.6291,-5.6291,-5.6291,-5.6291,-5.6291,-5.6291,-5.6291,-5.6291,-5.6291,-5.6291,-5.5514,-5.464,-5.3733,-5.2892,-5.2057,-5.1222,-5.1202,-5.1202,-5.1202,-5.1202,-5.1202,-5.1202,-5.1202,-5.1202,-3.5992,0.0,0.0,0.0,0.0,0.0,-3.869,-3.9562,-4.034,-4.0961,-4.1104,-4.1168,-4.142,-4.1967,-4.2547,-4.3023,-4.3787,-4.4546,-4.5163,-4.525,-4.5476,-4.6103,-4.6106,-4.6075,-4.6075,-4.6022,-4.6002,0.0,-4.6002,-4.6002,-4.6002,-4.6002,-4.6502,-4.7628,-4.8502,-4.9376,-5.025,-5.0872,-5.1202,-5.1202,-5.1202,-5.1202,-5.1202,-5.1202,-5.1202,-5.1202,-5.1202,-5.1202,-5.1202,-5.1202,-5.1202,-5.1202,-5.1202,-5.1202,-5.1202,-5.1202,-5.1202,-5.1202,-5.1202,-5.1591,-5.2251,-5.3345,-5.4135,-5.4854,-5.5961,-5.6291,-5.6291,-5.6291,-5.6291,-5.6291,-5.6291,-5.6291,-5.6291,-5.6291,-5.6291,-5.6291,-5.6291,-5.6291,-5.6291,-5.6291,-5.6291,-5.6291,-5.6291,-5.6291,-5.6291,-5.6291,-5.6291,-5.6291,-5.6291,-5.6291,-5.6291,-5.6291,-5.6291,-5.6291,-5.6291,-5.6291,-5.6291,-5.6291,-5.6078,-5.5262,-5.3753,-5.3481,-5.2659,-5.1241,-5.1202,-5.1202,-5.1202,-5.1202,-5.1202,-5.1202,-5.1202,-5.1202,-3.5992,-3.5992,-3.5992,-3.5992,0.0,0.0,-3.8393,-3.9226,-4.004,-4.0911,-4.1109,-4.1109,-4.1109,-4.1518,-4.1869,-4.1869,-4.2251,-4.2997,-4.4231,-4.4373,-4.4559,-4.5049,-4.5406,-4.5593,-4.5593,-4.5884,-4.6075,-4.6037,-4.6032,-4.6022,-4.6002,-4.6002,-4.6404,-4.7273,-4.7784,-4.8658,-4.9887,-5.0406,-5.0833,-5.1202,-5.1202,-5.1202,-5.1202,-5.1202,-5.1202,-5.1202,-5.1202,-5.1202,-5.1202,-5.1202,-5.1202,-5.1202,-5.1202,-5.1202,-5.1202,-5.1202,-5.1202,-5.1202,-5.1202,-5.1727,-5.2542,-5.3423,-5.4291,-5.5165,-5.6039,-5.6291,-5.6291,-5.6291,-5.6291,-5.6291,-5.6291,-5.6291,-5.6291,-5.6291,-5.6291,-5.6291,-5.6291,-5.6291,-5.6291,-5.6291,-5.6291,-5.6291,-5.6291,-5.6291,-5.6291,-5.6291,-5.6291,-5.6291,-5.6291,-5.6291,-5.6291,-5.6291,-5.6291,-5.6291,-5.6291,-5.6291,-5.6291,-5.6291,-5.6291,-5.5514,-5.3772,-5.3695,-5.2912,-5.1241,-5.1202,-5.1202,-5.1202,-5.1202,-5.1202,-5.1202,-5.1202,-5.1202,-3.6285,-3.6226,-3.6148,-3.6148,-3.6656,0.0,-3.8376,-3.9156,-3.9937,-4.0894,-4.1109,-4.1109,-4.1109,-4.1109,-4.1109,-4.1109,-4.1109,-4.1675,-4.3313,-4.3494,-4.3497,-4.3597,-4.4289,-4.4757,-4.4757,-4.5533,-4.6025,-4.597,-4.6039,-4.6075,-4.6002,-4.6002,-4.6366,-4.7123,-4.7259,-4.8094,-4.9751,-4.9848,-5.0328,-5.1202,-5.1202,-5.1202,-5.1202,-5.1202,-5.1202,-5.1202,-5.1202,-5.1202,-5.1202,-5.1202,-5.1202,-5.1202,-5.1202,-5.1202,-5.1202,-5.1202,-5.1202,-5.1202,-5.1202,-5.1785,-5.2659,-5.3462,-5.4349,-5.5281,-5.6078,-5.6291,-5.6291,-5.6291,-5.6291,-5.6291,-5.6291,-5.6291,-5.6291,-5.6291,-5.6291,-5.6291,-5.6291,-5.6291,-5.6291,-5.6291,-5.6291,-5.6291,-5.6291,-5.6291,-5.6291,-5.6291,-5.6291,-5.6291,-5.6291,-5.6291,-5.6291,-5.6291,-5.6291,-5.6291,-5.6291,-5.6291,-5.6291,-5.6291,-5.6214,-5.5417,-5.3772,-5.3617,-5.2814,-5.1241,-5.1202,-5.1202,-5.1202,-5.1202,-5.1202,-5.1202,-5.1202,-5.1202,-3.8084,-3.7575,-3.7048,-3.7048,-3.6656,0.0,-3.824,-3.8728,-3.9274,-4.0797,-4.1109,-4.1109,-4.1109,-4.1109,-4.1109,-4.1109,-4.1109,-4.1461,-4.2513,-4.2646,-4.2898,-4.3601,-4.3775,-4.3855,-4.3855,-4.4631,-4.5156,-4.5149,-4.5725,-4.6075,-4.6002,-4.6002,-4.6079,-4.6249,-4.6929,-4.7803,-4.8832,-4.9557,-5.0328,-5.1202,-5.1202,-5.1202,-5.1202,-5.1202,-5.1202,-5.1202,-5.1202,-5.1202,-5.1202,-5.1202,-5.1202,-5.1202,-5.1202,-5.1202,-5.1202,-5.1202,-5.1202,-5.1202,-5.1202,-5.2193,-5.3481,-5.3636,-5.4757,-5.6078,-5.6253,-5.6291,-5.6291,-5.6291,-5.6291,-5.6291,-5.6291,-5.6291,-5.6291,-5.6291,-5.6291,-5.6291,-5.6291,-5.6291,-5.6291,-5.6291,-5.6291,-5.6291,-5.6291,-5.6291,-5.6291,-5.6291,-5.6291,-5.6291,-5.6291,-5.6291,-5.6291,-5.6291,-5.6291,-5.6291,-5.6291,-5.6291,-5.6291,-5.6291,-5.5631,-5.4796,-5.3733,-5.3028,-5.2193,-5.1222,-5.1202,-5.1202,-5.1202,-5.1202,-5.1202,-5.1202,-5.1202,-5.1202,-3.8591,-3.8279,-3.7947,-3.7947,-3.7614,0.0,0.0,-3.9195,-3.9567,-4.0836,-4.1109,-4.1109,-4.1109,-4.1109,-4.1109,-4.1109,-4.1109,-4.1246,-4.1693,-4.1752,-4.1908,-4.2358,-4.2758,-4.3004,-4.3004,-4.3795,-4.4462,-4.4874,-4.5682,-4.6111,-4.6042,-4.6061,-4.6027,-4.6002,-4.645,-4.7091,-4.7939,-4.884,-4.9715,-5.0561,-5.0989,-5.1202,-5.1202,-5.1202,-5.1202,-5.1202,-5.1202,-5.1202,-5.1202,-5.1202,-5.1202,-5.1202,-5.1202,-5.1202,-5.1202,-5.1202,-5.1202,-5.1202,-5.1202,-5.229,-5.3695,-5.3695,-5.488,-5.6291,-5.6291,-5.6291,-5.6291,-5.6291,-5.6291,-5.6291,-5.6291,-5.6291,-5.6291,-5.6291,-5.6291,-5.6291,-5.6291,-5.6291,-5.6304,-5.6296,-5.6297,-5.6291,-5.6291,-5.6291,-5.6291,-5.6291,-5.6291,-5.6291,-5.6291,-5.6291,-5.6291,-5.6291,-5.6291,-5.6291,-5.6291,-5.6291,-5.6291,-5.6291,-5.5476,-5.4601,-5.3733,-5.2853,-5.2018,-5.1222,-5.1202,-5.1202,-5.1202,-5.1202,-5.1202,-5.1202,-5.1202,-5.1202,-3.9079,-3.8962,-3.8825,-3.8825,-3.8708,-3.8806,0.0,0.0,0.0,-4.0914,-4.1109,-4.1109,-4.1109,-4.1109,-4.1051,-4.0875,0.0,0.0,0.0,-4.0992,0.0,-4.1109,-4.1713,-4.2142,-4.2142,-4.2942,-4.3851,-4.4821,-4.5559,-4.5997,-4.6111,-4.6102,-4.608,-4.6017,-4.6075,-4.6484,-4.7314,-4.8249,-4.9104,-4.9904,-5.0781,-5.1202,-5.1202,-5.1202,-5.1202,-5.1202,-5.1194,-5.12,-5.12,-5.12,-5.12,-5.12,-5.1202,-5.1202,-5.1202,-5.1202,-5.1202,-5.1202,-5.1202,-5.229,-5.3695,-5.3695,-5.488,-5.6291,-5.6291,-5.6291,-5.6291,-5.6291,-5.6291,-5.6291,-5.6291,-5.6291,-5.6298,-5.6291,-5.6291,-5.6297,-5.6329,-5.6315,-5.6327,-5.6319,-5.6319,-5.6291,-5.6291,-5.6304,-5.6291,-5.6291,-5.6291,-5.6291,-5.6291,-5.6291,-5.6291,-5.6291,-5.6291,-5.6291,-5.6291,-5.6291,-5.6233,-5.6058,-5.5223,-5.4368,-5.35,-5.262,-5.1869,-5.122,-5.1208,-5.1208,-5.12,-5.1208,-5.1202,-5.1202,-5.1202,-5.1202,-4.0816,-4.0249,-3.9663,-3.9663,-3.9138,-3.8806,-3.9624,0.0,-4.0054,-4.0914,0.0,-4.1109,-4.1109,0.0,0.0,-4.0073,-4.06,-4.0836,-4.0054,-4.06,-4.1109,-4.1109,-4.1187,-4.1246,-4.1246,-4.2045,-4.3207,-4.4782,-4.4991,-4.5387,-4.6153,-4.6138,-4.6093,-4.6089,-4.6093,-4.6521,-4.7383,-4.8268,-4.9104,-4.9917,-5.0778,-5.1202,-5.1202,-5.1202,-5.1202,-5.1202,-5.12,-5.1201,-5.1201,-5.1201,-5.1201,-5.1196,-5.12,-5.1202,-5.1202,-5.1202,-5.1202,-5.1202,-5.1202,-5.229,-5.3695,-5.3695,-5.488,-5.6291,-5.6291,-5.6291,-5.6291,-5.6291,-5.6291,-5.6291,-5.6291,-5.6291,-5.631,-5.6306,-5.6303,-5.6314,-5.6383,-5.6392,-5.6392,-5.6401,-5.6339,-5.6303,-5.6303,-5.6296,-5.6291,-5.6291,-5.6291,-5.6291,-5.6291,-5.6291,-5.6291,-5.6291,-5.6291,-5.6291,-5.6291,-5.6291,-5.5961,-5.5204,-5.433,-5.3462,-5.2581,-5.1766,-5.1284,-5.1201,-5.1206,-5.1206,-5.1201,-5.1206,-5.1202,-5.1202,-5.1202,-5.1202,-4.1849,-4.1225,-4.0542,-4.0542,-4.0309,-4.0133,-4.0483,-4.0542,-4.0659,-4.1012,0.0,0.0,0.0,0.0,0.0,0.0,-4.0444,-4.0229,-3.9858,0.0,-4.0016,-4.0973,0.0,0.0,-4.1109,-4.1888,-4.2685,-4.3398,-4.4391,-4.5104,-4.5426,-4.5901,-4.6146,-4.6098,-4.6146,-4.6321,-4.6638,-4.8051,-4.8908,-4.9221,-5.0563,-5.1197,-5.1202,-5.1202,-5.12,-5.1194,-5.1201,-5.1225,-5.1252,-5.1252,-5.1252,-5.1272,-5.1269,-5.1224,-5.1202,-5.1202,-5.1202,-5.1202,-5.1202,-5.229,-5.3876,-5.4883,-5.5733,-5.6363,-5.6363,-5.6363,-5.6358,-5.63,-5.6336,-5.6358,-5.63,-5.6336,-5.6368,-5.6354,-5.6359,-5.6363,-5.6386,-5.6409,-5.6409,-5.6409,-5.6372,-5.6349,-5.6319,-5.6296,-5.6291,-5.6291,-5.6291,-5.6291,-5.6291,-5.6291,-5.6291,-5.6291,-5.6291,-5.6291,-5.6291,-5.6291,-5.5922,-5.5068,-5.3744,-5.2614,-5.1739,-5.142,-5.1235,-5.1211,-5.1205,-5.1208,-5.1197,-5.1194,-5.1202,-5.1202,-5.1202,-5.1202,-4.2767,-4.2123,-4.1459,-4.1459,-4.1285,-4.1109,-4.1109,-4.1109,-4.1109,-4.1109,-4.1109,0.0,0.0,0.0,-4.1012,-4.0777,0.0,-3.9722,-3.9507,-3.8962,-3.9138,-4.0563,0.0,0.0,0.0,-4.1674,-4.2142,-4.2376,-4.3567,-4.4477,-4.4909,-4.5506,-4.5933,-4.6115,-4.6164,-4.6186,-4.6135,-4.7899,-4.8773,-4.8755,-5.0436,-5.123,-5.1228,-5.1211,-5.1219,-5.123,-5.123,-5.1276,-5.1335,-5.1335,-5.1335,-5.1335,-5.1304,-5.1278,-5.1228,-5.1228,-5.1222,-5.1206,-5.1222,-5.2341,-5.4044,-5.5774,-5.6359,-5.6409,-5.6409,-5.6409,-5.6381,-5.6344,-5.6363,-5.6381,-5.6344,-5.6363,-5.639,-5.6422,-5.6426,-5.643,-5.6461,-5.6441,-5.6457,-5.6426,-5.6418,-5.6372,-5.6299,-5.6294,-5.6297,-5.6298,-5.6291,-5.6291,-5.6291,-5.6291,-5.6291,-5.6291,-5.6291,-5.6291,-5.6291,-5.6097,-5.5507,-5.4416,-5.2981,-5.1891,-5.1249,-5.1265,-5.1284,-5.123,-5.1215,-5.121,-5.1206,-5.1208,-5.1202,-5.1202,-5.1202,-5.1202,-4.3666,0.0,-4.2357,-4.2357,-4.1713,-4.1109,-4.1109,-4.1109,-4.1109,-4.1109,-4.1109,-4.1109,-4.1109,-4.1109,-4.0816,-3.9976,-3.9819,0.0,0.0,-3.8611,-3.8903,-3.9741,-4.0581,0.0,0.0,-4.1129,-4.1498,-4.2337,-4.2454,-4.3214,-4.4912,-4.497,-4.5326,-4.6164,-4.6206,-4.6206,-4.6203,-4.792,-4.8797,-4.8814,-5.0497,-5.1296,-5.1292,-5.123,-5.1234,-5.1296,-5.1296,-5.1319,-5.1391,-5.1391,-5.1391,-5.1388,-5.1335,-5.1296,-5.1296,-5.1296,-5.1267,-5.1215,-5.1261,-5.2446,-5.418,-5.586,-5.6405,-5.6409,-5.6409,-5.6409,-5.6409,-5.6405,-5.6405,-5.6409,-5.6405,-5.6405,-5.6418,-5.6475,-5.6501,-5.6511,-5.6577,-5.6584,-5.6577,-5.6508,-5.6434,-5.6372,-5.6299,-5.6308,-5.6306,-5.6304,-5.6291,-5.6291,-5.6291,-5.6291,-5.6291,-5.6291,-5.6291,-5.6291,-5.6291,-5.5588,-5.4436,-5.2773,-5.1822,-5.1335,-5.1296,-5.13,-5.13,-5.1296,-5.1234,-5.1206,-5.1206,-5.1192,-5.1202,-5.1202,-5.1202,-5.1202,0.0,0.0,-4.3255,-4.3255,0.0,0.0,0.0,-4.1967,-4.1791,-4.1226,-4.1109,-4.1109,-4.1109,-4.1109,-4.0992,-4.0717,-4.0171,-3.9527,0.0,-3.8103,-3.7848,-3.8102,-3.937,-4.0249,0.0,0.0,-4.1226,-4.1518,-4.2064,-4.2903,-4.4075,-4.4672,-4.5345,-4.617,-4.6243,-4.6245,-4.6206,-4.7394,-4.8269,-4.8817,-4.9958,-5.078,-5.13,-5.1284,-5.13,-5.1375,-5.1375,-5.1378,-5.1401,-5.1401,-5.1401,-5.1401,-5.1372,-5.1369,-5.1364,-5.1319,-5.1288,-5.1436,-5.2617,-5.3401,-5.4187,-5.5899,-5.6501,-5.652,-5.652,-5.652,-5.6517,-5.6471,-5.6504,-5.6517,-5.6471,-5.6504,-5.6542,-5.655,-5.6572,-5.6575,-5.6604,-5.6606,-5.6577,-5.6508,-5.6514,-5.6504,-5.6396,-5.6409,-5.6411,-5.6317,-5.6291,-5.6291,-5.6291,-5.6291,-5.6291,-5.6291,-5.6296,-5.6086,-5.5555,-5.4242,-5.3189,-5.2641,-5.181,-5.1375,-5.1375,-5.1378,-5.1349,-5.13,-5.1284,-5.1244,-5.1192,-5.1189,-5.1202,-5.1202,-5.1202,-5.1202,-4.546,-4.4836,0.0,-4.4153,-4.3938,0.0,-4.2982,0.0,-4.2611,-4.1732,-4.1557,-4.1479,-4.1168,-4.1109,-4.1109,-4.1109,-4.0366,-3.9527,0.0,-3.7849,-3.7301,-3.7301,-3.8531,-3.9488,-3.9761,-4.0307,-4.0777,-4.109,-4.1615,-4.2454,0.0,-4.4231,-4.5065,-4.6201,-4.6275,-4.6275,-4.624,-4.7131,-4.801,-4.8813,-4.9674,-5.0522,-5.134,-5.1346,-5.1359,-5.1408,-5.14,-5.1391,-5.1394,-5.1394,-5.1394,-5.1394,-5.1394,-5.1394,-5.139,-5.1355,-5.134,-5.1574,-5.3295,-5.392,-5.422,-5.5973,-5.6553,-5.6606,-5.6606,-5.6606,-5.6523,-5.6174,-5.6338,-5.6523,-5.6155,-5.6338,-5.6606,-5.6606,-5.6606,-5.6606,-5.6606,-5.6606,-5.6577,-5.6508,-5.6539,-5.6539,-5.6422,-5.6449,-5.6433,-5.6314,-5.6309,-5.6303,-5.6298,-5.6291,-5.6304,-5.6309,-5.6033,-5.5424,-5.4309,-5.3214,-5.2476,-5.2198,-5.1693,-5.1391,-5.1391,-5.1406,-5.1508,-5.1768,-5.1456,-5.1409,-5.163,-5.1338,-5.1202,-5.1202,-5.1206,-5.1192]},{"header":{"parameterUnit":"m.s-1","parameterCategory":1,"la1":30.6,"la2":29.2853,"lo1":-89.7004,"lo2":-87.6739,"dy":0.0162,"dx":0.0183,"nx":112,"ny":82,"refTime":"2023-03-02T06:00:00:Z","depth":0,"parameterNumber":3,"parameterNumberName":"V-component_of_WINDS"},"data":[0.0,0.0,0.0,0.0,0.0,0.0,0.0,0.0,0.0,0.0,0.0,0.0,0.0,0.0,0.0,0.0,0.0,0.0,0.0,0.0,0.0,0.0,0.0,0.0,0.0,0.0,0.0,0.0,0.0,0.0,0.0,0.0,0.0,0.0,0.0,0.0,0.0,0.0,0.0,0.0,0.0,0.0,0.0,0.0,0.0,0.0,0.0,0.0,0.0,0.0,0.0,0.0,0.0,0.0,0.0,0.0,0.0,0.0,0.0,0.0,0.0,0.0,0.0,0.0,0.0,0.0,0.0,0.0,0.0,0.0,0.0,0.0,0.0,0.0,0.0,0.0,0.0,0.0,0.0,0.0,0.0,0.0,0.0,0.0,0.0,0.0,0.0,0.0,0.0,0.0,-0.9884,-0.9884,-0.9582,-0.9397,-0.9397,-0.9397,-0.9241,-0.8894,0.0,0.0,0.0,0.0,0.0,0.0,0.0,0.0,0.0,0.0,0.0,0.0,0.0,0.0,0.0,0.0,0.0,0.0,0.0,0.0,0.0,0.0,0.0,0.0,0.0,0.0,0.0,0.0,0.0,0.0,0.0,0.0,0.0,0.0,0.0,0.0,0.0,0.0,0.0,0.0,0.0,0.0,0.0,0.0,0.0,0.0,0.0,0.0,0.0,0.0,0.0,0.0,0.0,0.0,0.0,0.0,0.0,0.0,0.0,0.0,0.0,0.0,0.0,0.0,0.0,0.0,0.0,0.0,0.0,0.0,0.0,0.0,0.0,0.0,0.0,0.0,0.0,0.0,0.0,0.0,0.0,0.0,0.0,0.0,0.0,0.0,0.0,0.0,0.0,0.0,0.0,0.0,0.0,0.0,0.0,0.0,0.0,0.0,0.0,0.0,0.0,0.0,0.0,0.0,-0.9884,-0.9884,-0.9846,-0.9809,-0.9809,-0.9809,-0.9765,-0.9728,0.0,0.0,0.0,0.0,0.0,0.0,0.0,0.0,0.0,0.0,0.0,0.0,0.0,0.0,0.0,0.0,0.0,0.0,0.0,0.0,0.0,0.0,0.0,0.0,0.0,0.0,0.0,0.0,0.0,0.0,0.0,0.0,0.0,0.0,0.0,0.0,0.0,0.0,0.0,0.0,0.0,0.0,0.0,0.0,0.0,0.0,0.0,0.0,0.0,0.0,0.0,0.0,0.0,0.0,0.0,0.0,0.0,0.0,0.0,0.0,0.0,0.0,0.0,0.0,0.0,0.0,0.0,0.0,0.0,0.0,0.0,0.0,0.0,0.0,0.0,0.0,0.0,0.0,0.0,0.0,0.0,0.0,0.0,0.0,0.0,0.0,0.0,0.0,0.0,0.0,0.0,0.0,0.0,0.0,0.0,0.0,0.0,0.0,0.0,0.0,0.0,0.0,0.0,-0.9884,-0.9884,-0.9884,-0.9884,-0.9884,-0.9884,-0.9884,-0.9884,-0.9884,-0.9884,0.0,0.0,0.0,0.0,0.0,0.0,0.0,0.0,0.0,0.0,0.0,0.0,0.0,0.0,0.0,0.0,0.0,0.0,0.0,0.0,0.0,0.0,0.0,0.0,0.0,0.0,0.0,0.0,0.0,0.0,0.0,0.0,0.0,0.0,0.0,0.0,0.0,0.0,0.0,0.0,0.0,0.0,0.0,0.0,0.0,0.0,0.0,0.0,0.0,0.0,0.0,0.0,0.0,0.0,0.0,0.0,0.0,0.0,0.0,0.0,0.0,0.0,0.0,0.0,0.0,0.0,0.0,0.0,0.0,0.0,0.0,0.0,0.0,0.0,0.0,0.0,0.0,0.0,0.0,0.0,0.0,0.0,0.0,0.0,0.0,0.0,0.0,0.0,0.0,0.0,0.0,0.0,0.0,0.0,0.0,0.0,0.0,0.0,0.0,0.0,0.0,0.0,-0.9884,-0.9884,-0.9884,-0.9884,-0.9884,-0.9884,-0.9884,-0.9884,-0.9884,-0.9884,0.0,0.0,0.0,0.0,0.0,0.0,0.0,0.0,0.0,0.0,0.0,0.0,0.0,0.0,0.0,0.0,0.0,0.0,0.0,0.0,0.0,0.0,0.0,0.0,0.0,0.0,0.0,0.0,0.0,0.0,0.0,0.0,0.0,0.0,0.0,0.0,0.0,0.0,0.0,0.0,0.0,0.0,0.0,0.0,0.0,0.0,0.0,0.0,0.0,0.0,0.0,0.0,0.0,0.0,0.0,0.0,0.0,0.0,0.0,0.0,0.0,0.0,0.0,0.0,0.0,0.0,0.0,0.0,0.0,0.0,0.0,0.0,0.0,0.0,0.0,0.0,0.0,0.0,0.0,0.0,0.0,0.0,0.0,0.0,0.0,0.0,0.0,0.0,0.0,0.0,0.0,0.0,0.0,0.0,0.0,0.0,0.0,0.0,0.0,0.0,0.0,0.0,-0.9884,-0.9884,-0.9884,-0.9884,-0.9884,-0.9884,-0.9884,-0.9884,-0.9884,-0.9884,0.0,0.0,0.0,0.0,0.0,0.0,0.0,0.0,0.0,0.0,0.0,0.0,0.0,0.0,0.0,0.0,0.0,0.0,0.0,0.0,0.0,0.0,0.0,0.0,0.0,0.0,0.0,0.0,0.0,0.0,0.0,0.0,0.0,0.0,0.0,0.0,0.0,0.0,0.0,0.0,0.0,0.0,0.0,0.0,0.0,0.0,0.0,0.0,0.0,0.0,0.0,0.0,0.0,0.0,0.0,0.0,0.0,0.0,0.0,0.0,0.0,0.0,0.0,0.0,0.0,0.0,0.0,0.0,0.0,0.0,0.0,0.0,0.0,0.0,0.0,0.0,0.0,0.0,0.0,0.0,0.0,0.0,0.0,0.0,0.0,0.0,0.0,0.0,0.0,0.0,0.0,0.0,0.0,0.0,0.0,0.0,0.0,0.0,0.0,0.0,0.0,0.0,-1.0277,-1.0276,-1.0169,-1.0153,-1.0089,-0.9895,-0.9884,-0.9884,-0.9884,0.0,0.0,0.0,0.0,0.0,0.0,0.0,0.0,0.0,0.0,0.0,0.0,0.0,0.0,0.0,0.0,0.0,0.0,0.0,0.0,0.0,0.0,0.0,0.0,0.0,0.0,0.0,0.0,0.0,0.0,0.0,0.0,0.0,0.0,0.0,0.0,0.0,0.0,0.0,0.0,0.0,0.0,0.0,0.0,0.0,0.0,0.0,0.0,0.0,0.0,0.0,0.0,0.0,0.0,0.0,0.0,0.0,0.0,0.0,0.0,0.0,0.0,0.0,0.0,0.0,0.0,0.0,0.0,0.0,0.0,0.0,0.0,0.0,0.0,0.0,0.0,0.0,0.0,0.0,0.0,0.0,0.0,0.0,0.0,0.0,0.0,0.0,0.0,0.0,0.0,0.0,0.0,0.0,0.0,0.0,0.0,0.0,0.0,0.0,0.0,0.0,0.0,-1.0401,-1.0541,-1.0533,-1.0417,-1.0401,-1.0331,-1.012,-1.004,-1.004,-1.004,0.0,0.0,0.0,0.0,0.0,0.0,0.0,0.0,0.0,0.0,0.0,0.0,0.0,0.0,0.0,0.0,0.0,0.0,0.0,0.0,0.0,0.0,0.0,0.0,0.0,0.0,0.0,0.0,0.0,0.0,0.0,0.0,0.0,0.0,0.0,0.0,0.0,0.0,0.0,0.0,0.0,0.0,0.0,0.0,0.0,0.0,0.0,0.0,0.0,0.0,0.0,0.0,0.0,0.0,0.0,0.0,0.0,0.0,0.0,0.0,0.0,0.0,0.0,0.0,0.0,0.0,0.0,0.0,0.0,0.0,0.0,0.0,0.0,0.0,0.0,0.0,0.0,0.0,0.0,0.0,0.0,0.0,0.0,0.0,0.0,0.0,0.0,0.0,0.0,0.0,0.0,0.0,0.0,0.0,0.0,0.0,0.0,0.0,0.0,0.0,0.0,0.0,-1.0597,-1.0603,-1.0603,-1.0597,-1.0597,-1.0597,-1.0597,-1.0428,-1.0299,0.0,0.0,0.0,0.0,0.0,0.0,0.0,0.0,0.0,0.0,0.0,0.0,0.0,0.0,0.0,0.0,0.0,0.0,0.0,0.0,0.0,0.0,0.0,0.0,0.0,0.0,0.0,0.0,0.0,0.0,0.0,0.0,0.0,0.0,0.0,0.0,0.0,0.0,0.0,0.0,0.0,0.0,0.0,0.0,0.0,0.0,0.0,0.0,0.0,0.0,0.0,0.0,0.0,0.0,0.0,0.0,0.0,0.0,0.0,0.0,0.0,0.0,0.0,0.0,0.0,0.0,0.0,0.0,0.0,0.0,0.0,0.0,0.0,0.0,0.0,0.0,0.0,0.0,0.0,0.0,0.0,0.0,0.0,0.0,0.0,0.0,0.0,0.0,0.0,0.0,0.0,0.0,0.0,0.0,0.0,0.0,0.0,0.0,0.0,0.0,0.0,0.0,0.0,-1.088,-1.0989,-1.1032,-1.0902,-1.088,-1.0816,-1.0608,-1.0533,-1.0495,-1.0495,0.0,0.0,0.0,0.0,0.0,0.0,0.0,0.0,0.0,0.0,0.0,0.0,0.0,0.0,0.0,0.0,0.0,0.0,0.0,0.0,0.0,0.0,0.0,0.0,0.0,0.0,0.0,0.0,0.0,0.0,0.0,0.0,0.0,0.0,0.0,0.0,0.0,0.0,0.0,0.0,0.0,0.0,0.0,0.0,0.0,0.0,0.0,0.0,0.0,0.0,0.0,0.0,0.0,0.0,0.0,0.0,0.0,0.0,0.0,0.0,0.0,0.0,0.0,0.0,0.0,0.0,0.0,0.0,0.0,0.0,0.0,0.0,0.0,0.0,0.0,0.0,0.0,0.0,0.0,0.0,0.0,0.0,0.0,0.0,0.0,0.0,0.0,0.0,0.0,0.0,0.0,0.0,0.0,0.0,0.0,0.0,0.0,0.0,0.0,0.0,0.0,0.0,-1.1133,-1.1219,-1.1252,-1.1144,-1.1133,-1.1032,-1.0892,-1.079,-1.0772,-1.0772,0.0,0.0,0.0,0.0,0.0,0.0,0.0,0.0,0.0,0.0,0.0,0.0,0.0,0.0,0.0,0.0,0.0,0.0,0.0,0.0,0.0,0.0,0.0,0.0,0.0,0.0,0.0,0.0,0.0,0.0,0.0,0.0,0.0,0.0,0.0,0.0,0.0,0.0,0.0,0.0,0.0,0.0,0.0,0.0,0.0,0.0,0.0,0.0,0.0,0.0,0.0,0.0,0.0,0.0,0.0,0.0,0.0,0.0,0.0,0.0,0.0,0.0,0.0,0.0,0.0,0.0,0.0,0.0,0.0,0.0,0.0,0.0,0.0,0.0,0.0,0.0,0.0,0.0,0.0,0.0,0.0,0.0,0.0,0.0,0.0,0.0,0.0,0.0,0.0,0.0,0.0,0.0,0.0,0.0,0.0,0.0,0.0,0.0,0.0,0.0,0.0,0.0,-1.1305,-1.1305,-1.1305,-1.1305,-1.1305,-1.1305,-1.1305,-1.1149,-1.102,-1.102,0.0,0.0,0.0,0.0,0.0,0.0,0.0,0.0,0.0,0.0,0.0,0.0,0.0,0.0,0.0,0.0,0.0,0.0,0.0,0.0,0.0,0.0,0.0,0.0,0.0,0.0,0.0,0.0,0.0,0.0,0.0,0.0,0.0,0.0,0.0,0.0,0.0,0.0,0.0,0.0,0.0,0.0,0.0,0.0,0.0,0.0,0.0,0.0,0.0,0.0,0.0,0.0,0.0,0.0,0.0,0.0,0.0,0.0,0.0,0.0,-1.1305,-1.1305,0.0,0.0,0.0,0.0,0.0,0.0,0.0,0.0,0.0,0.0,0.0,0.0,0.0,0.0,0.0,0.0,0.0,0.0,0.0,0.0,0.0,0.0,0.0,0.0,0.0,0.0,0.0,0.0,0.0,0.0,0.0,0.0,0.0,0.0,0.0,0.0,0.0,0.0,0.0,0.0,-1.1305,-1.1305,-1.1305,-1.1305,-1.1305,-1.1305,-1.1305,-1.1262,-1.123,-1.123,-1.1042,0.0,0.0,0.0,0.0,0.0,0.0,0.0,0.0,0.0,0.0,0.0,0.0,0.0,0.0,0.0,0.0,0.0,0.0,0.0,0.0,0.0,0.0,0.0,0.0,0.0,0.0,0.0,0.0,0.0,0.0,0.0,0.0,0.0,0.0,0.0,0.0,0.0,0.0,0.0,0.0,0.0,0.0,0.0,0.0,0.0,0.0,0.0,0.0,0.0,0.0,0.0,0.0,0.0,0.0,0.0,0.0,0.0,0.0,0.0,-1.1305,-1.1305,0.0,0.0,0.0,0.0,0.0,0.0,0.0,0.0,0.0,0.0,0.0,0.0,0.0,0.0,0.0,0.0,0.0,0.0,0.0,0.0,0.0,0.0,0.0,0.0,0.0,0.0,0.0,0.0,0.0,0.0,0.0,0.0,0.0,0.0,0.0,0.0,0.0,0.0,0.0,0.0,-1.1305,-1.1305,-1.1305,-1.1305,-1.1305,-1.1305,-1.1305,-1.1305,-1.1305,-1.1305,-1.1187,0.0,0.0,0.0,0.0,0.0,0.0,0.0,0.0,0.0,0.0,0.0,0.0,0.0,0.0,0.0,0.0,0.0,0.0,0.0,0.0,0.0,0.0,0.0,0.0,0.0,0.0,0.0,0.0,0.0,0.0,0.0,0.0,0.0,0.0,0.0,0.0,0.0,0.0,0.0,0.0,0.0,0.0,0.0,0.0,0.0,0.0,0.0,0.0,0.0,0.0,0.0,0.0,0.0,-1.1305,-1.1305,-1.1305,-1.1305,-1.1305,-1.1305,-1.1305,-1.1305,-1.1305,-1.1305,0.0,0.0,0.0,0.0,0.0,0.0,0.0,0.0,0.0,0.0,0.0,0.0,0.0,0.0,0.0,0.0,0.0,0.0,0.0,0.0,0.0,0.0,-1.1305,-1.1305,-1.1305,-1.1305,-1.1305,0.0,0.0,0.0,0.0,0.0,0.0,0.0,0.0,0.0,0.0,0.0,-1.1305,-1.1305,-1.1305,-1.1305,-1.1305,-1.1305,-1.1305,-1.1305,-1.1305,-1.1305,-1.1305,-1.1219,0.0,0.0,0.0,0.0,0.0,0.0,0.0,0.0,0.0,0.0,0.0,0.0,0.0,0.0,0.0,0.0,0.0,0.0,0.0,0.0,0.0,0.0,0.0,0.0,0.0,0.0,0.0,0.0,0.0,0.0,0.0,0.0,-0.9884,-0.9884,0.0,0.0,0.0,0.0,0.0,0.0,0.0,0.0,0.0,0.0,0.0,0.0,0.0,-1.1273,-1.1305,-1.1305,-1.1305,-1.1305,-1.1305,-1.1305,-1.1305,-1.1305,-1.1305,-1.1305,-1.1305,0.0,-1.1305,-1.1305,0.0,0.0,0.0,0.0,0.0,0.0,0.0,0.0,0.0,0.0,0.0,0.0,0.0,0.0,0.0,0.0,0.0,0.0,0.0,0.0,0.0,0.0,-1.1305,-1.1305,-1.1305,-1.1305,-1.1305,-1.1305,-1.1305,-1.1305,-1.1305,-1.1305,0.0,0.0,0.0,0.0,0.0,0.0,-1.1305,-1.1305,-1.1305,-1.1305,-1.1305,-1.1305,-1.1305,-1.1305,-1.1305,-1.1305,-1.1305,-1.1295,-1.1262,-1.1095,0.0,0.0,0.0,0.0,0.0,0.0,0.0,0.0,0.0,0.0,0.0,0.0,0.0,0.0,0.0,0.0,0.0,0.0,0.0,0.0,0.0,0.0,0.0,0.0,0.0,0.0,0.0,0.0,0.0,-0.969,-0.9884,-0.9884,-0.9884,-0.9884,0.0,0.0,0.0,0.0,0.0,0.0,0.0,0.0,0.0,-1.1187,-1.1252,-1.1305,-1.1305,-1.1305,-1.1305,-1.1305,-1.1305,-1.1305,-1.1316,-1.1445,-1.1504,-1.1509,-1.1682,-1.1741,-1.1731,-1.1602,-1.1504,-1.1558,0.0,0.0,0.0,0.0,-1.1741,-1.1741,-1.1741,-1.1741,-1.1741,-1.1741,0.0,0.0,0.0,0.0,0.0,0.0,0.0,-1.1305,0.0,0.0,-1.1305,-1.1305,-1.1305,-1.1305,-1.1305,-1.1305,-1.1305,-1.1305,-1.1305,-1.1305,-1.1305,-1.1305,0.0,0.0,0.0,-1.1305,-1.1305,-1.1305,-1.1305,-1.1305,-1.1305,-1.1305,-1.1305,-1.1305,-1.1305,-1.1305,-1.1305,-1.1305,-1.1305,-1.1203,-1.1128,0.0,0.0,0.0,0.0,0.0,0.0,0.0,0.0,0.0,0.0,0.0,0.0,0.0,0.0,0.0,0.0,0.0,0.0,0.0,0.0,0.0,0.0,0.0,0.0,0.0,0.0,0.0,0.0,-0.9884,-0.9884,-0.9884,-0.9884,-0.9884,0.0,0.0,0.0,0.0,0.0,0.0,-1.0672,-1.095,-1.116,-1.13,-1.1305,-1.1305,-1.1305,-1.1305,-1.1305,-1.1305,-1.137,-1.1396,-1.1402,-1.1682,-1.179,-1.1795,-1.2019,-1.2094,-1.2078,-1.186,-1.179,-1.1806,-1.2024,-1.2094,-1.2094,-1.2094,-1.2094,-1.2094,-1.2094,-1.2094,-1.2094,-1.2094,-1.2094,-1.2062,-1.1844,0.0,0.0,0.0,0.0,-1.1482,-1.1482,-1.1482,-1.1482,-1.1482,-1.1482,-1.1482,-1.1482,-1.1482,-1.145,-1.1332,-1.1305,-1.1305,-1.1305,-1.1305,0.0,-1.1305,-1.1305,-1.1305,-1.1305,-1.1305,-1.1305,-1.1305,-1.1305,-1.1305,-1.1305,-1.1305,-1.1305,-1.1305,-1.1305,-1.1305,-1.1305,-1.1305,-1.1219,-1.1085,0.0,0.0,0.0,0.0,0.0,0.0,0.0,0.0,0.0,0.0,0.0,0.0,0.0,0.0,0.0,0.0,0.0,0.0,0.0,0.0,0.0,0.0,0.0,0.0,0.0,0.0,0.0,0.0,0.0,-0.9884,-0.9884,0.0,0.0,0.0,0.0,-1.0256,-1.0487,-1.0719,-1.0955,-1.1155,-1.1295,-1.1305,-1.1305,-1.1305,-1.1305,-1.1305,-1.1305,-1.1311,-1.1575,-1.1682,-1.1693,-1.197,-1.2078,-1.2078,-1.2089,-1.2094,-1.2094,-1.2083,-1.2078,-1.2078,-1.2089,-1.2094,-1.2094,-1.2094,-1.2094,-1.2094,-1.2094,-1.2094,-1.2094,-1.2094,-1.2094,-1.2089,-1.2078,-1.2067,0.0,0.0,-1.2056,-1.2056,-1.2056,-1.2056,-1.2056,-1.2056,-1.2056,-1.2056,-1.2056,-1.2056,-1.1927,-1.1396,-1.1305,-1.1305,-1.1305,0.0,-1.1305,-1.1305,-1.1305,-1.1305,-1.1305,-1.1305,-1.1305,-1.1305,-1.1305,-1.1305,-1.1305,-1.1305,-1.1305,-1.1305,-1.1305,-1.1305,-1.1305,-1.1305,-1.13,-1.1289,-1.1101,0.0,0.0,0.0,0.0,0.0,0.0,0.0,0.0,0.0,0.0,0.0,0.0,0.0,0.0,0.0,0.0,0.0,0.0,0.0,0.0,0.0,0.0,0.0,0.0,0.0,0.0,0.0,0.0,-0.9884,-0.9884,0.0,-0.9884,-1.0067,-1.0202,-1.0288,-1.0643,-1.0896,-1.0977,-1.1177,-1.1305,-1.1305,-1.145,-1.1575,-1.1575,-1.1725,-1.1795,-1.1801,-1.1932,-1.197,-1.1975,-1.2172,-1.2285,-1.2296,-1.2489,-1.2554,-1.2554,-1.2554,-1.2467,-1.2301,-1.2499,-1.2554,-1.2554,-1.2554,-1.2554,-1.2554,-1.2554,-1.2554,-1.2554,-1.2554,-1.2409,-1.2285,-1.2285,-1.2218,-1.2094,-1.2094,-1.2094,-1.2094,-1.2094,-1.2094,-1.2094,-1.2094,-1.2094,-1.2094,-1.2094,-1.2094,-1.2046,-1.1833,-1.1677,-1.1575,-1.1575,-1.1407,-1.1305,-1.1305,-1.1305,-1.1305,-1.1305,-1.1305,-1.1305,-1.1305,-1.1305,-1.1305,-1.1305,-1.1305,-1.1305,-1.1305,-1.1305,-1.1305,-1.1305,-1.1305,-1.1305,-1.1305,-1.1219,-1.1144,0.0,0.0,0.0,0.0,0.0,0.0,0.0,0.0,0.0,0.0,0.0,0.0,0.0,0.0,0.0,0.0,0.0,0.0,0.0,0.0,0.0,0.0,0.0,0.0,0.0,-0.9884,-0.9884,-0.9884,-0.9997,-1.0046,-1.0046,-1.0266,-1.0444,-1.0519,-1.081,-1.1058,-1.1214,-1.1381,-1.1461,-1.1585,-1.1736,-1.1817,-1.1817,-1.2013,-1.2094,-1.2094,-1.2181,-1.2218,-1.2229,-1.242,-1.2533,-1.2538,-1.2694,-1.2813,-1.2813,-1.2813,-1.2721,-1.2549,-1.2748,-1.2813,-1.2813,-1.2813,-1.2813,-1.2813,-1.2813,-1.2813,-1.2813,-1.2813,-1.2657,-1.2533,-1.2533,-1.242,-1.2337,-1.2337,-1.2337,-1.2337,-1.2337,-1.2337,-1.2337,-1.2337,-1.2337,-1.2337,-1.2337,-1.2337,-1.2337,-1.2337,-1.2078,-1.1817,-1.1817,-1.1688,-1.1585,-1.1585,-1.1477,-1.1423,-1.1423,-1.1359,-1.1305,-1.1305,-1.1305,-1.1305,-1.1305,-1.1305,-1.1305,-1.1305,-1.1305,-1.1305,-1.1305,-1.1305,-1.1305,-1.1305,-1.1305,-1.123,-1.1106,0.0,0.0,0.0,0.0,0.0,0.0,0.0,0.0,0.0,0.0,0.0,0.0,0.0,0.0,0.0,0.0,0.0,0.0,0.0,0.0,0.0,0.0,0.0,-0.9884,-0.9884,-0.9884,-0.9895,-1.0148,-1.0299,-1.0304,-1.0474,-1.0699,-1.0977,-1.0999,-1.1214,-1.1688,-1.1709,-1.1811,-1.2089,-1.21,-1.2105,-1.2105,-1.2116,-1.2116,-1.2121,-1.2312,-1.2425,-1.2431,-1.2657,-1.2813,-1.2813,-1.2813,-1.2813,-1.2813,-1.2813,-1.2813,-1.2813,-1.2813,-1.2813,-1.2813,-1.2813,-1.2813,-1.2813,-1.2813,-1.2813,-1.2813,-1.2813,-1.2813,-1.2813,-1.2813,-1.2813,-1.2813,-1.2813,-1.2813,-1.2813,-1.2813,-1.2813,-1.2813,-1.2813,-1.2813,-1.2813,-1.2813,-1.2813,-1.2813,-1.2813,-1.2435,-1.2116,-1.2105,-1.21,-1.2094,-1.2094,-1.19,0.0,-1.1709,-1.1466,-1.1321,-1.1321,-1.1311,-1.1305,-1.1305,-1.1305,-1.1305,-1.1305,-1.1305,-1.1305,-1.1305,-1.1305,-1.1305,-1.1305,-1.1305,-1.1305,-1.1305,0.0,0.0,0.0,0.0,0.0,0.0,0.0,0.0,0.0,0.0,0.0,0.0,0.0,0.0,0.0,0.0,0.0,0.0,0.0,0.0,0.0,-0.9771,-0.9884,-0.9884,-0.9884,-0.9986,-1.0169,-1.025,-1.0358,-1.0485,-1.0751,-1.0988,-1.1187,-1.1408,-1.1634,-1.1981,-1.1997,-1.2024,-1.2089,-1.2221,-1.2312,-1.2312,-1.2526,-1.2613,-1.2618,-1.2635,-1.2667,-1.2667,-1.278,-1.2813,-1.2813,-1.2813,-1.2813,-1.2813,-1.2813,-1.2813,-1.2813,-1.2813,-1.2813,-1.2813,-1.2813,-1.2813,-1.2813,-1.2813,-1.2813,-1.2813,-1.2813,-1.2813,-1.2813,-1.2813,-1.2813,-1.2813,-1.2813,-1.2813,-1.2813,-1.2813,-1.2813,-1.2813,-1.2813,-1.2813,-1.2813,-1.2813,-1.2813,-1.2813,-1.2813,-1.2705,-1.2559,-1.2344,-1.2213,-1.2094,-1.2094,-1.204,0.0,-1.1997,-1.1747,-1.1602,-1.1602,-1.1407,-1.1305,-1.1305,-1.1305,-1.1305,-1.1305,-1.1305,-1.1305,-1.1305,-1.1305,-1.1305,-1.1305,-1.1305,-1.1305,0.0,0.0,0.0,0.0,0.0,0.0,0.0,0.0,0.0,0.0,0.0,0.0,0.0,0.0,0.0,0.0,0.0,0.0,0.0,0.0,0.0,0.0,-0.9894,-1.0078,-1.0078,-1.0078,-1.0169,-1.0406,-1.0616,-1.0748,-1.0882,-1.1235,-1.1488,-1.1634,-1.1768,-1.1951,-1.2188,-1.2245,-1.2294,-1.2391,-1.2581,-1.2705,-1.2705,-1.2942,-1.3116,-1.3116,-1.3116,-1.3116,-1.3116,-1.3116,-1.3116,-1.3116,-1.3116,-1.3116,-1.3116,-1.3116,-1.3116,0.0,0.0,0.0,0.0,0.0,-1.2813,-1.2813,-1.2813,-1.2813,-1.2813,-1.2813,-1.2813,-1.2813,-1.2813,-1.2813,-1.2813,-1.2813,-1.2813,-1.2813,-1.2813,-1.2813,-1.2813,-1.2813,-1.2813,-1.2813,-1.2813,-1.2813,-1.2813,-1.2813,-1.2813,0.0,-1.2581,-1.2489,-1.2397,-1.2397,-1.231,-1.2245,-1.2245,-1.204,-1.1889,-1.1889,-1.1725,-1.1602,-1.1461,-1.145,0.0,0.0,0.0,-1.1305,-1.1305,-1.1305,0.0,0.0,0.0,-1.1305,-1.1305,0.0,0.0,0.0,-1.0919,-1.0853,0.0,0.0,0.0,0.0,0.0,0.0,0.0,0.0,0.0,0.0,0.0,0.0,0.0,0.0,0.0,0.0,-0.9921,-1.0309,-1.0369,-1.0396,-1.0487,-1.0651,-1.1048,-1.1327,-1.138,-1.1806,-1.2105,-1.2132,-1.2137,-1.2251,-1.2479,-1.249,0.0,0.0,0.0,-1.3147,-1.3147,-1.3367,-1.348,-1.348,-1.348,-1.348,-1.348,-1.348,-1.348,-1.348,-1.348,-1.348,-1.348,-1.348,-1.348,-1.3437,-1.3056,-1.2872,-1.2851,-1.2851,-1.2835,-1.2813,-1.2813,0.0,0.0,-1.2813,-1.2813,-1.2813,-1.2813,-1.2813,-1.2813,-1.2813,-1.2813,-1.2813,-1.2813,-1.2813,-1.2813,-1.2813,-1.2813,-1.2813,-1.2813,-1.2813,-1.2813,-1.2813,-1.2813,-1.2813,-1.2813,-1.2813,-1.2813,-1.2813,-1.2587,-1.2457,-1.2457,-1.2242,-1.2137,-1.2137,0.0,0.0,-1.1758,-1.1691,-1.1551,-1.1364,-1.1321,-1.1305,-1.1305,-1.1305,-1.1305,-1.1305,-1.1305,-1.1305,-1.1305,-1.1305,-1.1305,-1.13,-1.1128,-1.1025,0.0,0.0,0.0,0.0,0.0,0.0,0.0,0.0,0.0,0.0,0.0,0.0,0.0,0.0,0.0,-1.0036,-1.0227,-1.0423,-1.0799,-1.102,-1.1118,-1.1166,-1.1252,-1.1455,-1.1921,-1.204,-1.2175,-1.2328,-1.2344,-1.2527,-1.2947,-1.2969,-1.3082,-1.3386,-1.3383,-1.3405,-1.3405,-1.3453,-1.348,-1.348,0.0,0.0,-1.348,-1.348,-1.348,-1.348,-1.348,-1.348,-1.348,-1.348,-1.348,-1.347,-1.3378,-1.3217,-1.3039,-1.3039,-1.292,-1.2813,-1.2813,-1.2813,-1.2813,-1.2813,-1.2813,-1.2813,-1.2813,-1.2813,0.0,-1.2813,-1.2813,-1.2813,-1.2813,-1.2813,-1.2813,-1.2813,-1.2813,-1.2813,-1.2813,-1.2813,-1.2813,-1.2813,-1.2813,-1.2813,-1.2813,-1.2813,-1.2813,-1.2813,-1.2775,-1.2694,-1.2694,-1.249,-1.2344,-1.2344,-1.2213,-1.2078,-1.2029,-1.1613,-1.1469,-1.1606,-1.1413,-1.1305,-1.1305,-1.1305,-1.1305,-1.1305,-1.1305,-1.1305,-1.1305,-1.1305,-1.1305,-1.1305,-1.1262,-1.1236,0.0,0.0,0.0,0.0,0.0,0.0,0.0,0.0,0.0,0.0,0.0,-0.8827,-0.9208,0.0,-0.9921,-1.0238,-1.0492,-1.0762,-1.1117,-1.1332,-1.1482,-1.1482,-1.1691,-1.1978,-1.221,-1.2381,-1.2554,-1.2743,-1.2759,-1.2915,-1.327,-1.3292,-1.3351,-1.3475,-1.3588,-1.3647,-1.3647,-1.3771,-1.3836,-1.3836,-1.3836,-1.3836,-1.3836,-1.3836,-1.3836,-1.3836,-1.3836,-1.3836,-1.3836,-1.3836,-1.3836,-1.3836,-1.3836,-1.3615,-1.3292,-1.3292,-1.3222,-1.317,-1.317,-1.317,-1.317,-1.317,-1.317,-1.317,-1.317,-1.317,-1.317,-1.317,-1.3034,-1.2931,-1.2931,-1.2899,-1.2813,-1.2813,-1.2813,-1.2813,-1.2813,-1.2813,-1.2813,-1.2813,-1.2813,-1.2813,-1.2813,-1.2813,-1.2813,-1.2813,-1.2813,-1.2813,-1.2813,-1.2662,-1.2587,-1.2587,-1.2526,-1.2314,-1.1864,-1.1281,-1.0936,-1.1106,-1.1117,-1.1082,-1.1082,-1.1239,-1.1305,-1.1305,-1.1305,-1.1305,-1.1305,-1.1305,-1.1305,-1.1305,-1.1305,-1.1305,0.0,0.0,0.0,0.0,0.0,0.0,0.0,-0.7872,-0.814,-0.8217,-0.8789,-0.9299,-0.9377,-0.9888,-1.0326,-1.0417,-1.0783,-1.1139,-1.1343,-1.1661,-1.1838,-1.1838,-1.2178,-1.2431,-1.2479,-1.2694,-1.2904,-1.3087,-1.3152,-1.3287,-1.3534,-1.3545,-1.3566,-1.3615,-1.3793,-1.389,-1.389,-1.4094,-1.4196,-1.4196,-1.4196,-1.4196,-1.4196,-1.4196,-1.4196,-1.4196,-1.4196,-1.4196,-1.4196,-1.4196,-1.4196,-1.4196,-1.4196,-1.3959,-1.3615,-1.3566,-1.3518,-1.348,-1.348,-1.348,-1.348,-1.348,-1.348,-1.348,-1.348,-1.348,-1.348,-1.348,-1.333,-1.3179,-1.3179,-1.3039,-1.2953,-1.2953,-1.2953,-1.2953,-1.2953,-1.2953,-1.2953,-1.2953,-1.291,-1.2878,-1.2878,-1.284,-1.2813,-1.2813,-1.2813,-1.2813,-1.2813,-1.2813,-1.2813,-1.2813,-1.271,-1.2297,-1.1441,-1.0989,-1.0631,-1.0445,-1.0666,-1.0865,-1.095,-1.1188,-1.1352,-1.1445,-1.1445,-1.1445,-1.1445,-1.1445,-1.1445,-1.1445,-1.1445,-1.1396,-0.7484,-0.7484,-0.7484,-0.7484,-0.7484,-0.7599,0.0,-0.8063,-0.8217,-0.8551,-0.8975,-0.9382,-0.9613,-0.9993,-1.0428,-1.0842,-1.1133,-1.1348,-1.1628,-1.2048,-1.2334,-1.2334,-1.2382,-1.2495,-1.2753,-1.2931,-1.3077,-1.3104,-1.3313,-1.354,-1.3771,-1.3782,-1.3884,-1.411,-1.4137,-1.4153,-1.4153,-1.418,-1.4196,-1.4196,-1.4196,-1.4196,-1.4196,-1.4196,-1.4196,-1.4196,-1.4196,-1.4196,-1.4196,-1.4196,-1.4196,-1.4196,-1.4196,-1.4164,-1.4089,-1.3863,-1.3653,-1.348,-1.348,-1.348,-1.348,-1.348,-1.348,-1.348,-1.348,-1.348,-1.348,-1.348,-1.3459,-1.3437,-1.3437,-1.3421,-1.34,-1.34,-1.34,-1.34,-1.34,-1.34,-1.34,-1.34,-1.3222,-1.3066,-1.3066,-1.2899,-1.2813,-1.2813,-1.2813,-1.2813,-1.2813,-1.2813,-1.2813,-1.2813,-1.237,-1.1673,-1.0627,-1.1115,-1.1095,-1.0196,-1.0422,-1.0762,-1.1227,-1.1293,-1.1506,-1.2013,-1.2013,-1.2013,-1.2013,-1.2013,-1.2013,-1.2013,-1.2013,-1.1747,-0.7484,-0.7484,-0.7484,-0.7484,-0.7484,-0.7599,-0.8025,-0.8102,-0.8217,-0.8627,-0.9149,-0.9578,-0.9674,-1.0263,-1.0805,-1.1139,-1.1397,-1.1688,-1.2064,-1.2291,-1.2463,-1.2603,-1.2619,-1.2705,-1.2937,-1.305,-1.3217,-1.3497,-1.3615,-1.3782,-1.4024,-1.404,-1.4083,-1.4191,-1.4196,-1.4196,-1.4196,-1.4196,-1.4196,-1.4196,-1.4196,-1.4196,-1.4196,-1.4196,-1.4196,-1.4196,-1.4196,-1.4196,-1.4196,-1.4196,-1.4196,-1.4196,-1.4196,-1.4196,-1.4186,-1.4078,-1.3976,-1.3895,-1.3895,-1.3895,-1.3895,-1.3895,-1.3895,-1.3895,-1.3895,-1.3895,-1.3895,-1.3895,-1.3787,-1.368,-1.368,-1.3577,-1.348,-1.348,-1.348,-1.348,-1.348,-1.348,-1.348,-1.348,-1.3134,-1.2908,-1.3268,-1.2825,-1.2569,-1.2914,-1.285,-1.2813,-1.2813,-1.2813,-1.2813,-1.2813,-1.2322,-1.1688,-1.0949,-1.1167,-1.0925,-0.986,-1.0348,-1.0665,-1.0618,-1.0729,-1.1073,-1.163,-1.163,-1.1768,-1.2094,-1.2094,-1.2094,-1.2094,-1.2094,-1.1986,-0.7484,-0.7484,-0.7484,-0.7484,-0.7484,-0.7599,-0.8025,-0.8102,-0.823,-0.8707,-0.9301,-0.9725,-0.9852,-1.0505,-1.1085,-1.1354,-1.1645,-1.1941,-1.2355,-1.2468,-1.2576,-1.2791,-1.2867,-1.2947,-1.3184,-1.3206,-1.3378,-1.3787,-1.3884,-1.4003,-1.4186,-1.4196,-1.4196,-1.4196,-1.4196,-1.4196,-1.4196,-1.4196,-1.4196,-1.4196,-1.4196,-1.4196,-1.4196,-1.4196,-1.4196,-1.4196,-1.4196,-1.4196,-1.4196,-1.4196,-1.4196,-1.4196,-1.4196,-1.4196,-1.4196,-1.4196,-1.4196,-1.4196,-1.4196,-1.4196,-1.4196,-1.4196,-1.4196,-1.4196,-1.4196,-1.4196,-1.4196,-1.4196,-1.4062,-1.3922,-1.3922,-1.3803,-1.3674,-1.3674,-1.3674,-1.3674,-1.3674,-1.357,-1.3461,-1.3461,-1.2935,-1.2578,-1.305,-1.2654,-1.2435,-1.282,-1.2865,-1.2883,-1.2818,-1.2662,-1.257,-1.257,-1.2078,-1.1536,-1.0998,-1.1002,-1.0556,-0.9677,-1.0285,-1.0544,-1.0211,-1.0493,-1.0881,-1.1256,-1.1397,-1.1636,-1.1869,-1.2009,-1.2009,-1.1869,-1.2009,-1.2009,-0.7484,-0.7484,-0.7484,-0.7484,-0.7484,-0.7599,-0.8025,-0.8102,-0.8274,-0.8938,-0.9414,-0.9826,-1.0305,-1.0726,-1.1139,-1.1612,-1.1932,-1.217,-1.2377,-1.2608,-1.2802,-1.2813,-1.2958,-1.3195,-1.3443,-1.347,-1.3566,-1.3803,-1.4046,-1.4186,-1.4196,-1.4196,-1.4196,-1.4196,-1.4196,-1.4196,-1.4196,-1.4196,-1.4196,-1.4196,-1.4196,-1.4196,-1.4196,-1.4196,-1.4196,-1.4196,-1.4196,-1.4196,-1.4196,-1.4196,-1.4196,-1.4196,-1.4196,-1.4196,-1.4196,-1.4196,-1.4196,-1.4196,-1.4196,-1.4196,-1.4196,-1.4196,-1.4196,-1.4196,-1.4196,-1.4196,-1.4196,-1.4196,-1.4186,-1.4186,-1.4186,-1.4175,-1.4169,-1.4169,-1.4169,-1.4169,-1.4169,-1.3732,-1.3295,-1.3295,-1.268,-1.211,-1.2158,-1.241,-1.2511,-1.2249,-1.2704,-1.3012,-1.284,-1.237,-1.2024,-1.2024,-1.1536,-1.0998,-1.0462,-1.0408,-1.0167,-0.9628,-1.0113,-1.0404,-1.0404,-1.0886,-1.1175,-1.1175,-1.1712,-1.1717,-1.1224,-1.176,-1.176,-1.1224,-1.1765,-1.1717,-0.7484,-0.7484,-0.7484,-0.7484,-0.7484,-0.7628,-0.8182,-0.8099,-0.8076,-0.8662,-0.901,-0.9303,-0.9447,-1.0174,-1.0893,-1.1403,-1.1858,-1.2235,-1.2592,-1.242,-1.2428,-1.292,-1.2757,-1.2856,-1.3617,-1.3706,-1.3809,-1.4051,-1.4148,-1.4196,-1.4196,-1.4196,-1.4196,-1.4196,-1.4196,-1.4196,-1.4196,-1.4196,-1.4196,-1.4196,-1.4196,-1.4196,-1.4196,-1.4196,-1.4196,-1.4196,-1.4196,-1.4196,-1.4196,-1.4196,-1.4196,-1.4196,-1.4196,-1.4196,-1.4196,-1.4196,-1.4196,-1.4196,-1.4196,-1.4196,-1.4196,-1.4196,-1.4196,-1.4196,-1.4196,-1.4196,-1.4196,-1.4196,-1.4196,-1.4196,-1.4196,-1.4196,-1.4196,-1.4196,-1.4196,-1.4083,-1.3699,-1.3428,-1.3207,-1.2767,-1.2217,-1.19,-1.2224,-1.1949,-1.1693,-1.1844,-1.2479,-1.2899,-1.2818,-1.2613,-1.2516,-1.2516,-1.2029,-1.1487,-1.1002,-1.0949,-1.0556,-0.9677,-1.0117,-1.0216,-0.9871,-1.0019,-1.0314,-1.0654,-1.0855,-1.0998,-1.1194,-1.1389,-1.1394,-1.1194,-1.1389,-1.1389,-0.7484,-0.7484,-0.7535,-0.7604,-0.762,-0.7704,-0.8161,-0.8047,-0.8024,-0.8615,-0.8875,-0.9065,-0.9307,-0.9943,-1.0568,-1.1008,-1.1359,-1.1703,-1.2162,-1.2078,-1.2209,-1.2728,-1.2777,-1.293,-1.3462,-1.3794,-1.4019,-1.4186,-1.4196,-1.4196,-1.4196,-1.3975,-1.3975,-1.4191,-1.3975,-1.3975,-1.4196,-1.4196,-1.4196,-1.4196,-1.4196,-1.4196,-1.4196,-1.4196,-1.4196,-1.4196,-1.4196,-1.4196,-1.4196,-1.4196,-1.4196,-1.4196,-1.4196,-1.4196,-1.4196,-1.4196,-1.4196,-1.4196,-1.4196,-1.4196,-1.4196,-1.4196,-1.4196,-1.4196,-1.4196,-1.4196,-1.4196,-1.4196,-1.4196,-1.4196,-1.4196,-1.4196,-1.4196,-1.4196,-1.4029,-1.3759,-1.3369,-1.2989,-1.2604,-1.2164,-1.1678,-1.1404,-1.1728,-1.1464,-1.1345,-1.1788,-1.2141,-1.2386,-1.2358,-1.2129,-1.2078,-1.2467,-1.1878,-1.1438,-1.1487,-1.1145,-1.0609,-0.992,-1.0216,-1.0167,-0.9628,-0.9772,-0.9969,-1.0117,-1.0314,-1.0462,-1.0605,-1.0801,-1.0806,-1.0605,-1.0801,-1.0806,-0.7484,-0.7488,-0.758,-0.7755,-0.7808,-0.7857,-0.7988,-0.802,-0.8189,-0.8848,-0.8967,-0.9148,-0.9826,-0.9951,-1.0088,-1.0554,-1.0621,-1.0763,-1.1186,-1.1639,-1.2061,-1.2289,-1.2974,-1.3314,-1.3019,-1.3676,-1.4137,-1.4137,-1.4191,-1.4191,-1.4142,-1.3591,-1.3537,-1.4083,-1.3591,-1.3591,-1.4137,-1.4191,-1.4196,-1.4196,-1.4196,-1.4196,-1.4196,-1.4196,-1.4191,-1.4137,-1.4137,-1.4137,-1.4083,-1.4083,-1.4142,-1.4137,-1.4137,-1.4196,-1.4196,-1.4196,-1.4191,-1.4137,-1.4137,-1.4196,-1.4196,-1.4196,-1.4196,-1.4196,-1.4196,-1.4196,-1.4196,-1.4196,-1.4196,-1.4196,-1.4196,-1.4196,-1.4191,-1.4142,-1.3699,-1.3261,-1.3207,-1.2387,-1.1568,-1.1568,-1.1076,-1.0692,-1.0692,-1.0987,-1.1349,-1.1921,-1.1802,-1.1602,-1.1507,-1.0898,-1.0869,-1.1849,-1.1007,-1.0801,-1.1878,-1.1002,-1.0364,-1.0413,-1.0364,-1.0117,-0.9628,-1.0068,-1.0117,-0.9628,-1.0117,-1.0117,-0.9579,-1.0117,-1.0117,-0.9628,-1.0117,-1.0068,-0.7484,-0.762,-0.7739,-0.7788,-0.7854,-0.7996,-0.8178,-0.8113,-0.8147,-0.8599,-0.8601,-0.8559,-0.8877,-0.9262,-0.9739,-1.0554,-1.0621,-1.0857,-1.1672,-1.159,-1.1677,-1.2516,-1.2402,-1.2486,-1.3135,-1.3009,-1.3044,-1.3483,-1.3975,-1.3975,-1.3537,-1.3369,-1.3152,-1.2881,-1.3152,-1.3369,-1.3537,-1.3975,-1.4196,-1.4196,-1.4196,-1.4196,-1.4196,-1.4196,-1.3975,-1.3537,-1.3537,-1.3261,-1.2876,-1.2876,-1.3098,-1.3537,-1.3537,-1.3807,-1.4196,-1.4196,-1.3921,-1.3537,-1.3537,-1.3807,-1.4196,-1.4196,-1.4196,-1.4196,-1.4196,-1.4196,-1.4196,-1.4196,-1.4196,-1.4196,-1.4196,-1.4196,-1.4088,-1.3645,-1.3428,-1.3098,-1.2223,-1.1787,-1.1459,-1.1021,-1.0802,-1.0692,-1.0692,-1.0765,-1.0895,-1.1054,-1.0849,-1.0927,-1.1559,-1.141,-1.1334,-1.1585,-1.0897,-1.0654,-1.134,-1.0408,-0.9969,-1.0364,-1.0019,-0.9723,-0.9628,-0.9727,-0.9727,-0.9628,-0.9727,-0.9727,-0.9579,-0.9727,-0.9727,-0.9628,-0.9723,-0.9727,-0.762,-0.7722,-0.7837,-0.7996,-0.8065,-0.8182,-0.8369,-0.8268,-0.8195,-0.8402,-0.8361,-0.8321,-0.8426,-0.8943,-0.9491,-1.0067,-1.0237,-1.0454,-1.1067,-1.119,-1.1399,-1.1873,-1.2076,-1.2245,-1.2512,-1.2441,-1.2441,-1.255,-1.3098,-1.3369,-1.3315,-1.2827,-1.2495,-1.2387,-1.2495,-1.2772,-1.3315,-1.3921,-1.4196,-1.4196,-1.4196,-1.4196,-1.4191,-1.3921,-1.3645,-1.3315,-1.3039,-1.2713,-1.2387,-1.2387,-1.2604,-1.2935,-1.2935,-1.3098,-1.3428,-1.3428,-1.3207,-1.2935,-1.2935,-1.3152,-1.3428,-1.3699,-1.3813,-1.3867,-1.4137,-1.4196,-1.4196,-1.4196,-1.4196,-1.4137,-1.3862,-1.3813,-1.3645,-1.3044,-1.2713,-1.2387,-1.1732,-1.1404,-1.1076,-1.0747,-1.0692,-1.0668,-1.059,-1.0643,-1.0668,-1.059,-1.0562,-1.0725,-1.1203,-1.1053,-1.0988,-1.1188,-1.081,-1.0744,-1.1286,-1.0461,-1.0068,-1.0359,-0.9875,-0.9579,-0.9579,-0.9579,-0.9579,-0.9579,-0.9579,-0.9579,-0.9579,-0.9579,-0.9579,-0.9579,-0.9579,-0.9579,-0.7755,-0.7833,-0.7943,-0.8215,-0.8308,-0.8361,-0.8543,-0.8385,-0.8256,-0.8256,-0.8235,-0.8235,-0.828,-0.8763,-0.9244,-0.9454,-0.9614,-0.9809,-1.0053,-1.0678,-1.1051,-1.0996,-1.1817,-1.2187,-1.1638,-1.1951,-1.2001,-1.1623,-1.1951,-1.2441,-1.3044,-1.2114,-1.1787,-1.2278,-1.1841,-1.2114,-1.3152,-1.3753,-1.4083,-1.4083,-1.4142,-1.4196,-1.4191,-1.3591,-1.3261,-1.3152,-1.255,-1.2278,-1.2164,-1.2164,-1.2219,-1.2278,-1.2278,-1.2332,-1.2387,-1.2387,-1.2327,-1.2278,-1.2278,-1.2223,-1.2278,-1.2935,-1.3207,-1.3261,-1.3807,-1.3975,-1.3975,-1.3975,-1.3975,-1.3867,-1.3315,-1.3207,-1.3044,-1.2441,-1.1951,-1.1568,-1.1514,-1.1076,-1.0692,-1.0692,-1.0672,-1.0611,-1.0407,-1.0538,-1.0578,-1.0399,-1.0562,-1.0668,-1.0688,-1.0404,-1.0406,-1.0763,-1.0707,-1.0848,-1.1355,-1.0789,-1.038,-1.0452,-0.9958,-0.9652,-0.9579,-0.9579,-0.9579,-0.9579,-0.9579,-0.9579,-0.9579,-0.9579,-0.964,-0.9661,-0.9661,-0.9673,-0.7792,-0.8016,-0.8215,-0.8276,-0.8406,-0.8531,-0.8365,-0.8195,-0.8061,-0.8061,-0.7951,-0.7984,-0.8235,-0.8402,-0.8702,-0.9481,-0.9384,-0.9435,-1.0044,-1.0334,-1.0657,-1.0944,-1.1144,-1.1296,-1.1583,-1.124,-1.1181,-1.1568,-1.124,-1.124,-1.1841,-1.1732,-1.1623,-1.1732,-1.1623,-1.1896,-1.255,-1.3152,-1.3483,-1.3478,-1.3975,-1.4196,-1.4191,-1.3591,-1.3044,-1.255,-1.2005,0.0,-1.0966,-1.0966,-1.1295,-1.1732,-1.1732,-1.2005,-1.2387,-1.2387,-1.2114,-1.1732,-1.1732,-1.1404,-1.1185,-1.2219,-1.255,-1.2604,-1.2659,-1.2713,-1.2713,-1.2713,-1.2713,-1.2713,-1.2604,-1.255,-1.2441,-1.1896,-1.1678,-1.1459,-1.0966,-1.0747,-1.0692,-1.0692,-1.0578,-1.0415,-1.0387,-1.0335,-1.0294,-1.0416,-1.0407,-1.053,-1.0672,-1.0513,-1.0387,-1.0494,-1.0382,-1.0474,-1.0936,-1.0548,-1.0365,-1.0617,-1.0146,-0.9774,-0.9583,-0.9579,-0.9579,-0.9579,-0.9579,-0.9579,-0.9579,-0.9579,-0.9701,-0.9839,-0.9839,-0.9925,-0.7866,-0.8085,-0.8312,-0.841,-0.843,-0.8398,-0.8312,-0.8077,-0.7882,-0.7882,-0.7857,-0.7877,-0.8097,-0.8434,-0.8845,-0.9345,-0.9462,-0.9588,-0.9909,-1.0224,-1.0458,-1.0582,-1.0781,-1.098,-1.1093,-1.0857,-1.0802,-1.1131,-1.0857,-1.0966,-1.1568,-1.1295,-1.1131,-1.1131,-1.1459,-1.1732,-1.2001,-1.255,-1.2822,-1.2822,-1.3152,-1.3261,-1.3261,-1.2659,-1.2278,-1.1951,-1.1404,-1.0966,-1.0692,-1.0692,-1.0857,-1.1131,-1.1131,-1.1291,-1.1514,-1.1514,-1.135,-1.1131,-1.1131,-1.0966,-1.0802,-1.135,-1.1728,-1.206,-1.2332,-1.2387,-1.2387,-1.2387,-1.2387,-1.2332,-1.206,-1.2001,-1.1841,-1.1295,-1.1131,-1.1076,-1.0747,-1.0692,-1.0692,-1.0692,-1.0554,-1.0404,-1.031,-1.0221,-1.0245,-1.0278,-1.0375,-1.0443,-1.0672,-1.0619,-1.0566,-1.0566,-1.0412,-1.0408,-1.0619,-1.037,-1.0283,-1.0454,-1.0184,-0.9989,-0.9908,-0.9904,-0.9904,-0.9904,-0.9904,-0.9904,-0.9904,-0.9904,-0.9949,-1.0082,-1.0082,-1.0126,-0.7967,-0.815,-0.8325,-0.8514,-0.8398,-0.8272,-0.8195,-0.8004,-0.7788,-0.7747,-0.7739,-0.7804,-0.7975,-0.8417,-0.8849,-0.9091,-0.9446,-0.9647,-0.9647,-0.9979,-1.0208,-1.0223,-1.0525,-1.0716,-1.071,-1.0692,-1.0692,-1.0692,-1.0692,-1.0911,-1.1404,-1.0966,-1.0692,-1.0692,-1.1185,-1.1404,-1.1404,-1.1951,-1.2219,-1.2219,-1.2327,-1.2387,-1.2382,-1.1841,-1.1623,-1.1568,-1.0966,-1.0692,-1.0692,-1.0692,-1.0692,-1.0692,-1.0692,-1.0692,-1.0692,-1.0692,-1.0692,-1.0692,-1.0692,-1.0692,-1.0692,-1.0692,-1.1021,-1.1514,-1.1896,-1.206,-1.206,-1.206,-1.206,-1.1946,-1.1514,-1.1404,-1.1295,-1.0802,-1.0692,-1.0692,-1.0692,-1.0692,-1.0692,-1.0692,-1.0554,-1.0375,-1.0245,-1.0184,-1.0155,-1.0155,-1.0257,-1.044,-1.0615,-1.0668,-1.0692,-1.0692,-1.057,-1.0435,-1.0435,-1.0359,-1.031,-1.0277,-1.0221,-1.0148,-0.9899,-0.9895,-0.9895,-0.9895,-0.9895,-1.0004,-1.0212,-1.0004,-0.9919,-0.9955,-0.9955,-0.9974,-0.7967,-0.815,-0.8296,-0.8312,-0.8304,-0.8207,-0.7922,-0.7824,-0.7751,-0.758,-0.7547,-0.7614,-0.7951,-0.8069,-0.8238,-0.8595,-0.8956,-0.9143,-0.9143,-0.9449,-0.9812,-1.0171,-1.0264,-1.0404,-1.066,-1.0692,-1.0692,-1.0692,-1.0692,-1.0747,-1.0802,-1.0747,-1.0692,-1.0692,-1.0747,-1.0802,-1.0802,-1.1404,-1.1678,-1.1678,-1.2169,-1.2387,-1.2382,-1.1841,-1.1623,-1.1568,-1.0966,-1.0692,0.0,-1.0692,-1.0692,-1.0692,-1.0692,-1.0692,-1.0692,-1.0692,-1.0692,-1.0692,-1.0692,-1.0692,-1.0692,-1.0692,-1.0747,-1.0802,-1.0857,-1.0857,-1.0857,-1.0857,-1.0857,-1.0857,-1.0802,-1.0802,-1.0747,-1.0692,-1.0692,-1.0692,-1.0692,-1.0692,-1.0692,-1.0692,-1.0554,-1.0375,-1.0245,-1.0073,-0.9908,-0.9908,-1.0067,-1.0253,-1.0436,-1.0595,-1.0692,-1.0692,-1.0676,-1.0668,-1.0668,-1.0655,-1.0578,-1.0366,-1.0354,-0.9959,-0.8954,-0.8947,-0.8947,-0.8947,-0.8947,-0.9369,-1.0212,-0.9369,-0.9022,-0.9223,-0.9223,-0.9295,-0.7882,-0.7988,-0.8126,-0.8126,-0.8044,-0.7975,-0.7833,-0.771,-0.7612,-0.7535,-0.7484,-0.7561,-0.7813,-0.7943,-0.8097,-0.8357,-0.8792,-0.9096,-0.9096,-0.9405,-0.9762,-1.0171,-1.0212,-1.0355,-1.066,-1.0692,-1.0692,-1.0692,-1.0692,-1.0692,-1.0692,-1.0692,-1.0692,-1.0692,-1.0692,-1.0692,-1.0692,-1.0966,-1.1076,-1.1076,-1.1295,-1.14,-1.1345,-1.1185,-1.1076,-1.1021,-1.0802,-1.0692,0.0,-1.0692,-1.0692,-1.0692,-1.0692,-1.0692,-1.0692,-1.0692,-1.0692,-1.0692,-1.0692,-1.0692,-1.0692,-1.0692,-1.0692,-1.0692,-1.0692,-1.0692,-1.0692,-1.0692,-1.0692,-1.0692,-1.0692,-1.0692,-1.0692,-1.0692,-1.0692,-1.0692,-1.0692,-1.0692,-1.0692,-1.0692,-1.0554,-1.0375,-1.0245,-1.001,-0.9884,-0.9884,-1.0094,-1.0229,-1.0358,-1.0586,-1.0692,-1.0692,-1.0692,-1.0692,-1.0692,-1.0692,-1.0441,-0.9825,-1.0315,-0.9899,-0.8361,-0.8848,-0.8902,-0.8304,-0.8848,-0.9068,-0.8848,-0.9068,-0.8933,-0.8446,-0.8446,-0.8475,-0.7784,-0.7886,-0.7939,-0.7939,-0.789,-0.7784,-0.7731,-0.7616,-0.7484,-0.7484,-0.7484,-0.758,-0.7767,-0.7898,-0.8073,-0.826,-0.8698,-0.9035,-0.9088,-0.9356,-0.9701,-1.0163,-1.0212,-1.0355,-1.066,-1.0692,-1.0692,-1.0692,-1.0692,-1.0692,-1.0692,-1.0692,-1.0692,-1.0692,-1.0692,-1.0692,-1.0692,-1.0692,-1.0692,-1.0692,-1.0692,-1.0692,-1.0692,-1.0692,-1.0692,-1.0692,-1.0692,-1.0692,0.0,-1.0692,-1.0692,-1.0692,-1.0692,-1.0692,-1.0692,-1.0692,-1.0692,-1.0692,-1.0692,-1.0692,-1.0692,-1.0692,-1.0692,-1.0692,-1.0692,-1.0692,-1.0692,-1.0692,-1.0692,-1.0692,-1.0692,-1.0692,-1.0692,-1.0692,-1.0692,-1.0692,-1.0692,-1.0692,-1.0692,-1.0692,-1.0595,-1.0436,-1.0253,-1.0106,-0.9933,-0.9823,-1.001,-1.0209,-1.0339,-1.055,-1.0692,-1.0692,-1.0692,-1.0692,-1.0692,-1.0692,-1.0304,-0.9471,-0.997,-0.9526,-0.7703,-0.8257,-0.8312,-0.7648,-0.8257,-0.8423,-0.7974,-0.842,-0.8257,-0.7593,-0.7593,-0.7756,-0.7751,-0.7804,-0.7804,-0.7804,-0.7804,-0.7751,-0.7567,-0.7484,-0.7484,-0.7484,-0.7484,-0.758,-0.7767,-0.7898,-0.8073,-0.826,-0.8589,-0.8885,-0.9072,-0.9294,-0.9608,-1.0151,-1.0212,-1.0355,-1.066,-1.0692,-1.0692,-1.0692,-1.0692,-1.0692,-1.0692,-1.0692,-1.0692,-1.0692,-1.0692,-1.0692,-1.0692,-1.0692,-1.0692,-1.0692,-1.0692,-1.0692,-1.0692,-1.0692,-1.0692,-1.0692,-1.0692,-1.0692,0.0,-1.0692,-1.0692,-1.0692,-1.0692,-1.0692,-1.0692,-1.0692,-1.0692,-1.0692,-1.0692,-1.0692,-1.0692,-1.0692,-1.0692,-1.0692,-1.0692,-1.0692,-1.0692,-1.0692,-1.0692,-1.0692,-1.0692,-1.0692,-1.0692,-1.0692,-1.0692,-1.0692,-1.0692,-1.0692,-1.0692,-1.0692,-1.0688,-1.0578,-1.0277,-1.0212,-1.0038,-0.9685,-0.9933,-1.0212,-1.0216,-1.0473,-1.0692,-1.0692,-1.0692,-1.0692,-1.0692,-1.0692,-1.0304,-0.9471,-0.9416,-0.8589,-0.6768,-0.6715,-0.6715,-0.6715,-0.6715,-0.7154,-0.7974,-0.7154,-0.6715,-0.6715,-0.6715,-0.7152,-0.7596,-0.7608,-0.7608,-0.7608,-0.7608,-0.7596,-0.7535,-0.7484,-0.7484,-0.7484,-0.7484,-0.75,-0.76,-0.7813,-0.8032,-0.8093,-0.8613,-0.9031,-0.9088,-0.9356,-0.9693,-1.0163,-1.0375,-1.057,-1.068,-1.0692,-1.0692,-1.0692,-1.0692,-1.0692,-1.0692,-1.0692,-1.0692,-1.0692,-1.0692,-1.0692,-1.0692,-1.0692,-1.0692,-1.0692,-1.0692,-1.0692,-1.0692,-1.0692,-1.0692,-1.0692,-1.0692,-1.0692,-1.0692,-1.0692,-1.0692,-1.0692,-1.0692,-1.0692,-1.0692,-1.0692,-1.0692,-1.0692,-1.0692,-1.0692,-1.0692,-1.0692,-1.0692,-1.0692,-1.0692,-1.0692,-1.0692,-1.0692,-1.0692,-1.0692,-1.0692,-1.0692,-1.0692,-1.0692,-1.0692,-1.0692,-1.0692,-1.0692,-1.0692,-1.0692,-1.0692,-1.0619,-1.0387,-1.0245,-1.0175,-1.001,-1.0143,-1.0209,-1.0331,-1.055,-1.0692,-1.0692,-1.019,-1.0025,-1.0637,-1.0135,-0.9416,-0.853,-0.842,-0.7648,-0.5882,-0.6381,-0.6437,-0.5826,-0.6381,-0.6546,-0.6212,-0.6546,-0.6381,-0.5826,-0.5826,-0.5935,-0.7446,-0.7484,-0.7484,-0.7484,-0.7484,-0.7484,-0.7484,-0.7484,-0.7484,-0.7484,-0.7484,-0.7504,-0.7612,-0.7821,-0.8036,-0.8105,-0.8609,-0.9015,-0.9088,-0.9344,-0.9681,-1.0163,-1.0477,-1.0692,-1.0692,-1.0692,-1.0692,-1.0692,-1.0692,-1.0692,-1.0692,-1.0692,-1.0692,-1.0692,-1.0692,-1.0692,-1.0692,-1.0692,-1.0692,-1.0692,-1.0692,-1.0692,-1.0692,-1.0692,-1.0692,-1.0692,-1.0692,-1.0692,0.0,-1.0692,-1.0692,-1.0692,-1.0692,-1.0692,-1.0692,-1.0692,-1.0692,-1.0692,-1.0692,-1.0692,-1.0692,-1.0692,-1.0692,-1.0692,-1.0692,-1.0692,-1.0692,-1.0692,-1.0692,-1.0692,-1.0692,-1.0692,-1.0692,-1.0692,-1.0692,-1.0692,-1.0692,-1.0692,-1.0692,-1.0692,-1.0692,-1.0635,-1.0411,-1.0282,-1.0212,-1.0212,-1.0212,-1.0229,-1.0358,-1.0586,-1.0692,-1.0692,-0.9915,-0.964,-1.0135,-0.9361,-0.8475,-0.7593,-0.7537,-0.6874,-0.5437,-0.5938,-0.5938,-0.5437,-0.5938,-0.5938,-0.5382,-0.5938,-0.5938,-0.5382,-0.5382,-0.5382,0.0,-0.7484,-0.7484,-0.7484,-0.7484,-0.7484,-0.7484,-0.7484,0.0,-0.7484,-0.7484,-0.758,-0.7767,-0.7898,-0.8073,-0.826,-0.8601,-0.8901,-0.9076,-0.9326,-0.9649,-1.0155,-1.0477,-1.0692,-1.0692,-1.0692,-1.0692,-1.0692,-1.0692,-1.0692,-1.0692,-1.0692,-1.0692,-1.0692,-1.0692,-1.0692,-1.0692,-1.0692,-1.0692,-1.0692,-1.0692,-1.0692,-1.0692,-1.0692,-1.0692,0.0,-1.0692,-1.0692,-1.0692,-1.0692,-1.0692,-1.0692,-1.0692,-1.0692,-1.0692,-1.0692,-1.0692,-1.0692,-1.0692,-1.0692,-1.0692,-1.0692,-1.0692,-1.0692,-1.0692,-1.0692,-1.0692,-1.0692,-1.0692,-1.0692,-1.0692,-1.0692,-1.0692,-1.0692,-1.0692,-1.0692,-1.0692,-1.0692,-1.0692,-1.0692,-1.0692,-1.0639,-1.0427,-1.0302,-1.0233,-1.0233,-1.0233,-1.0241,-1.0358,-1.0586,-1.0692,-1.0692,-0.986,-0.9306,-0.9306,-0.842,-0.7537,-0.6768,-0.6659,-0.627,-0.5437,-0.5382,-0.5382,-0.5382,-0.5382,-0.5382,-0.5382,-0.5382,-0.5382,-0.5382,-0.5382,-0.5382,-0.6637,0.0,-0.7484,-0.7484,-0.7484,-0.7484,0.0,-0.7484,-0.7484,-0.7484,-0.7484,-0.758,-0.7767,-0.7898,-0.8073,-0.826,-0.871,-0.9047,-0.9092,-0.9604,-1.0069,-1.02,-1.0477,-1.0692,-1.0692,-1.0692,-1.0692,-1.0692,-1.0692,-1.0692,-1.0692,-1.0692,-1.0692,-1.0692,-1.0692,-1.0692,-1.0692,-1.0692,-1.0692,-1.0692,-1.0692,-1.0692,-1.0692,-1.0692,-1.0692,-1.0692,-1.0692,-1.0692,-1.0692,-1.0692,-1.0692,-1.0692,-1.0692,-1.0692,-1.0692,-1.0692,-1.0692,-1.0692,-1.0692,-1.0692,-1.0692,-1.0692,-1.0692,-1.0692,-1.0692,-1.0692,-1.0692,-1.0692,-1.0692,-1.0692,-1.0692,-1.0692,-1.0692,-1.0692,-1.0692,-1.0692,-1.0692,-1.0692,-1.0692,-1.0692,-1.0692,-1.068,-1.0639,-1.0489,-1.0371,-1.0371,-1.0371,-1.0387,-1.0375,-1.0586,-1.0692,-1.0692,-0.9302,-0.8306,-0.8306,-0.7537,-0.6935,-0.6715,-0.6049,-0.5605,-0.5382,-0.5382,-0.5382,-0.5382,-0.5382,-0.5382,-0.5382,-0.5382,-0.5382,-0.5382,-0.5382,-0.5382,-0.5977,-0.6595,-0.7099,-0.7099,-0.7292,-0.7484,-0.7484,-0.7484,-0.7484,-0.7484,-0.7588,-0.7702,-0.7845,-0.802,-0.8227,-0.8491,-0.8852,-0.9181,-0.9425,-0.9914,-1.0245,-1.0278,-1.0526,-1.0692,-1.0692,-1.0692,-1.0692,-1.0692,-1.0692,-1.0692,-1.0692,-1.0692,-1.0692,-1.0692,-1.0692,-1.0692,-1.0692,-1.0692,-1.0692,-1.0692,-1.0692,-1.0692,-1.0692,-1.0692,-1.0692,-1.0692,-1.0692,-1.0692,-1.0692,-1.0692,-1.0692,-1.0692,-1.0692,-1.0692,-1.0692,-1.0692,-1.0692,-1.0692,-1.0692,-1.0692,-1.0692,-1.0692,-1.0692,-1.0692,-1.0692,-1.0692,-1.0692,-1.0692,-1.0692,-1.0692,-1.0692,-1.0692,-1.0692,-1.0692,-1.0692,-1.0692,-1.0692,-1.0692,-1.0692,-1.0692,-1.0692,-1.0692,-1.0692,-1.055,-1.0411,-1.0542,-1.0104,-0.9973,-1.0488,-0.9917,-0.9636,-1.008,-0.8478,-0.7426,-0.7426,-0.6599,-0.6102,-0.6102,-0.5659,-0.5382,-0.5382,-0.5382,-0.5382,-0.5382,-0.5382,-0.5382,-0.5382,-0.5382,-0.5382,-0.5382,-0.5382,-0.5382,-0.5315,-0.5935,-0.6483,-0.656,-0.7061,-0.7484,-0.7484,-0.7484,-0.7492,-0.7559,-0.769,-0.7861,-0.802,-0.8182,-0.8406,-0.8763,-0.8999,-0.9311,-0.9815,-1.0046,-1.0229,-1.0358,-1.0586,-1.0692,-1.0692,-1.0692,-1.0692,-1.0692,-1.0692,-1.0692,-1.0692,-1.0692,-1.0692,-1.0692,-1.0692,-1.0692,-1.0692,-1.0692,-1.0692,-1.0692,-1.0692,-1.0692,-1.0692,-1.0692,-1.0692,-1.0692,0.0,0.0,-1.0692,-1.0692,-1.0692,-1.0692,-1.0692,-1.0692,-1.0692,-1.0692,-1.0692,-1.0692,-1.0692,-1.0692,-1.0692,-1.0692,-1.0692,-1.0692,-1.0692,-1.0692,-1.0692,-1.0692,-1.0692,-1.0692,-1.0692,-1.0692,-1.0692,-1.0692,-1.0692,-1.0692,-1.0692,-1.0692,-1.0692,-1.0692,-1.0692,-1.0692,-1.0692,-1.057,-1.0513,-1.0635,-0.9787,-0.9479,-1.0362,-0.9013,-0.8306,-0.9082,-0.7706,-0.6715,-0.6715,-0.5882,-0.5382,-0.5382,-0.5382,-0.5382,-0.5382,-0.5382,-0.5382,-0.5382,-0.5382,-0.5382,-0.5382,-0.5382,-0.5382,-0.5382,-0.5382,-0.5382,-0.4659,-0.5279,-0.5896,-0.6444,-0.7061,-0.7484,-0.7484,-0.7484,-0.7567,-0.7726,-0.778,-0.7902,-0.8187,-0.8272,-0.8406,-0.8763,-0.9096,-0.9498,-0.9831,-1.0046,-1.0229,-1.0358,-1.0586,-1.0692,-1.0692,-1.0692,-1.0692,-1.0692,-1.0692,-1.0692,-1.0692,-1.0692,-1.0692,-1.0692,-1.0692,-1.0692,-1.0692,-1.0692,-1.0692,-1.0692,-1.0692,-1.0692,-1.0692,-1.0692,-1.0692,-1.0692,0.0,-1.0692,-1.0692,-1.0692,-1.0692,-1.0692,-1.0692,-1.0692,-1.0692,-1.0692,-1.0692,-1.0692,-1.0692,-1.0692,-1.0692,-1.0692,-1.0692,-1.0692,-1.0692,-1.0692,-1.0692,-1.0692,-1.0692,-1.0692,-1.0692,-1.0692,-1.0692,-1.0692,-1.0692,-1.0692,-1.0692,-1.0692,-1.0692,-1.0692,-1.0692,-1.0692,-1.0692,-1.0672,-1.0611,-1.0493,-0.9806,-0.9344,-0.9349,-0.8565,-0.8029,-0.8195,-0.7318,-0.6715,-0.6715,-0.5882,-0.5382,-0.5382,-0.5382,-0.5382,-0.5382,-0.5382,-0.5382,-0.5382,-0.5382,-0.5382,-0.5382,-0.5382,-0.5382,-0.5382,-0.5382,-0.5382,-0.4153,-0.4888,-0.5661,-0.5973,-0.6788,-0.7484,-0.7484,-0.76,-0.7698,-0.7784,-0.7955,-0.8097,-0.826,-0.8446,-0.8694,-0.9051,-0.9409,-0.9784,-1.0049,-1.0193,-1.0375,-1.0554,-1.0643,-1.0692,-1.0692,-1.0692,-1.0692,-1.0692,-1.0692,-1.0692,-1.0692,-1.0692,-1.0692,-1.0692,-1.0692,-1.0692,-1.0692,-1.0692,-1.0692,-1.0692,-1.0692,-1.0692,-1.0692,-1.0692,-1.0692,-1.0692,0.0,-1.0692,-1.0692,-1.0692,-1.0692,-1.0692,-1.0692,-1.0692,-1.0692,-1.0692,-1.0692,-1.0692,-1.0692,-1.0692,-1.0692,-1.0692,-1.0692,-1.0692,-1.0692,-1.0692,-1.0692,-1.0692,-1.0692,-1.0692,-1.0692,-1.0692,-1.0692,-1.0692,-1.0692,-1.0692,-1.0692,-1.0692,-1.0692,-1.0692,-1.0692,-1.0523,-1.0084,-0.997,-0.9779,-0.921,-0.8436,-0.8072,-0.8442,-0.7392,-0.6763,-0.7263,-0.6546,-0.5993,-0.5993,-0.5603,-0.5382,-0.5382,-0.5382,-0.5382,-0.5382,-0.5382,-0.5382,-0.5382,-0.5382,-0.5382,-0.5382,-0.5382,-0.5382,-0.5382,-0.5382,-0.5382,-0.3802,-0.4579,-0.5392,-0.5392,-0.6437,-0.7492,-0.7575,-0.7698,-0.7824,-0.7906,-0.8101,-0.8316,-0.8398,-0.8706,-0.9035,-0.9359,-0.9702,-0.9949,-1.0188,-1.0318,-1.0443,-1.0672,-1.0692,-1.0692,-1.0692,-1.0692,-1.0692,-1.0692,-1.0692,-1.0692,-1.0692,-1.0692,-1.0692,-1.0692,-1.0692,-1.0692,-1.0692,-1.0692,-1.0692,-1.0692,-1.0692,-1.0692,-1.0692,-1.0692,-1.0692,-1.0692,-1.0692,-1.0692,-1.0692,-1.0692,-1.0692,-1.0692,-1.0692,-1.0692,-1.0692,-1.0692,-1.0692,-1.0692,-1.0692,-1.0692,-1.0692,-1.0692,-1.0692,-1.0692,-1.0692,-1.0692,-1.0692,-1.0692,-1.0692,-1.0692,-1.0692,-1.0692,-1.0692,-1.0692,-1.0523,-1.0468,-1.0637,-1.0359,-1.0135,-1.0359,-1.0245,-0.986,-0.9196,-0.9085,-0.8806,-0.8085,-0.7263,-0.6932,-0.759,-0.6376,-0.5659,-0.6325,-0.577,-0.5382,-0.5382,-0.5382,-0.5382,-0.5382,-0.5382,-0.5382,-0.5382,-0.5382,-0.5382,-0.5382,-0.5382,-0.5382,-0.5382,-0.5382,-0.5382,-0.5382,-0.5382,-0.5382,-0.3802,-0.427,-0.4779,-0.4779,-0.6131,-0.7567,-0.7739,-0.7788,-0.7894,-0.8182,-0.8272,-0.8394,-0.8723,-0.9076,-0.9371,-0.94,-0.9702,-0.9949,-1.0188,-1.0318,-1.0443,-1.0672,-1.0692,-1.0692,-1.0692,-1.0692,-1.0692,-1.0692,-1.0692,-1.0692,-1.0692,-1.0692,-1.0692,-1.0692,-1.0692,-1.0692,-1.0692,-1.0692,-1.0692,-1.0692,-1.0692,-1.0692,-1.0692,-1.0692,-1.0692,-1.0692,-1.0692,-1.0692,-1.0692,-1.0692,-1.0692,-1.0692,-1.0692,-1.0692,-1.0692,-1.0692,-1.0692,-1.0692,-1.0692,-1.0692,-1.0692,-1.0692,-1.0692,-1.0692,-1.0692,-1.0692,-1.0692,-1.0692,-1.0692,-1.0692,-1.0692,-1.0692,-1.0692,-1.0692,-1.0084,-0.9691,-1.0527,-0.9361,-0.8472,-0.9306,-0.8806,-0.8195,-0.814,-0.8085,-0.8085,-0.8029,-0.7263,-0.6712,-0.6768,-0.5993,-0.5437,-0.5493,-0.5437,-0.5382,-0.5382,-0.5382,-0.5382,-0.5382,-0.5382,-0.5382,-0.5382,-0.5382,-0.5382,-0.5382,-0.5382,-0.5382,-0.5382,-0.5382,-0.5382,-0.5382,-0.5382,-0.5382,-0.3802,-0.4231,-0.4701,-0.4701,-0.5574,-0.6558,-0.7056,-0.7312,-0.7583,-0.8179,-0.8467,-0.8731,-0.9088,-0.931,-0.9441,-0.9506,-0.9823,-1.0131,-1.0204,-1.0412,-1.0619,-1.0684,-1.0692,-1.0692,-1.0692,-1.0692,-1.0692,-1.0692,-1.0692,-1.0692,-1.0692,-1.0692,-1.0692,-1.0692,-1.0692,-1.0692,-1.0692,-1.0692,-1.0692,-1.0692,-1.0692,-1.0692,-1.0692,-1.0692,-1.0692,-1.0692,-1.0692,-1.0692,-1.0692,-1.0692,-1.0692,-1.0692,-1.0692,-1.0692,-1.0692,-1.0692,-1.0692,-1.0692,-1.0692,-1.0692,-1.0692,-1.0692,-1.0692,-1.0692,-1.0692,-1.0692,-1.0692,-1.0692,-1.0692,-1.0692,-1.0692,-1.0692,-1.0692,-1.0692,-1.0025,-0.9471,-0.9805,-0.8916,-0.8085,-0.8472,-0.8251,-0.7811,-0.7263,-0.7207,-0.6985,-0.6487,-0.6102,-0.5882,-0.5882,-0.5605,-0.5382,-0.5382,-0.5382,-0.5382,-0.5382,-0.5382,-0.5382,-0.5382,-0.5382,-0.5382,-0.5382,-0.5382,-0.5382,-0.5382,-0.5382,-0.5382,-0.5382,-0.5382,-0.5382,-0.5382,-0.5382,-0.5382,-0.4075,-0.4387,-0.4748,-0.5017,-0.5314,-0.5819,-0.676,-0.7104,-0.7418,-0.8304,-0.8739,-0.9017,-0.902,-0.9256,-0.9433,-0.9258,-0.9772,-1.0212,-1.0212,-1.0469,-1.0692,-1.0692,-1.0692,-1.0692,-1.0692,-1.0692,-1.0692,-1.0692,-1.0692,-1.0692,-1.0692,-1.0692,-1.0692,-1.0692,-1.0692,-1.0692,-1.0692,-1.0692,-1.0692,-1.0692,-1.0692,-1.0692,-1.0692,-1.0692,-1.0692,-1.0692,-1.0692,-1.0692,-1.0692,-1.0692,-1.0692,-1.0692,-1.0692,-1.0692,-1.0692,-1.0692,-1.0692,-1.0692,-1.0692,-1.0692,-1.0637,-1.0359,-1.0508,-1.0722,-1.0441,-1.0556,-1.0777,-1.0777,-1.0737,-1.0637,-1.0359,-1.0468,-1.0692,-1.0692,-0.9801,-0.9027,-0.9361,-0.8254,-0.726,-0.7534,-0.7371,-0.6985,-0.6381,-0.627,-0.6102,-0.5493,-0.5382,-0.5382,-0.5382,-0.5382,-0.5382,-0.5382,-0.5382,-0.5382,-0.5382,-0.5382,-0.5382,-0.5382,-0.5382,-0.5382,-0.5382,-0.5382,-0.5382,-0.5382,-0.5382,-0.5382,-0.5382,-0.5382,-0.5382,-0.5382,-0.5382,-0.5382,-0.4701,-0.4701,-0.4883,-0.5676,-0.5481,-0.5518,-0.7045,-0.7304,-0.753,-0.8571,-0.9108,-0.916,-0.8342,-0.8965,-0.9327,-0.8531,-0.9415,-1.016,-1.016,-1.0469,-1.0692,-1.0692,-1.0692,-1.0692,-1.0692,-1.0692,-1.0692,-1.0692,-1.0692,-1.0692,-1.0692,-1.0692,-1.0692,-1.0692,-1.0692,-1.0692,-1.0692,-1.0692,-1.0692,-1.0692,-1.0692,-1.0692,-1.0692,-1.0692,-1.0692,-1.0692,-1.0692,-1.0692,-1.0692,-1.0692,-1.0692,-1.0692,-1.0692,-1.0692,-1.0692,-1.0692,-1.0692,-1.0692,-1.0692,-1.0692,-1.0527,-0.9695,-1.0091,-1.0799,-0.9885,-1.0228,-1.0972,-1.0972,-1.0838,-1.0472,-0.964,-1.0029,-1.0692,-1.0692,-0.9306,-0.8251,-0.9192,-0.7263,-0.5659,-0.6492,-0.5993,-0.5382,-0.5382,-0.5382,-0.5382,-0.5382,-0.5382,-0.5382,-0.5382,-0.5382,-0.5382,-0.5382,-0.5382,-0.5382,-0.5382,-0.5382,-0.5382,-0.5382,-0.5382,-0.5382,-0.5382,-0.5382,-0.5382,-0.5382,-0.5382,-0.5382,-0.5382,-0.5382,-0.5382,-0.5382,-0.5382,-0.5382,-0.3958,-0.4151,-0.4447,-0.5114,-0.5522,-0.6023,-0.7133,-0.7516,-0.7907,-0.898,-0.885,-0.8519,-0.8388,-0.8103,-0.7832,-0.7584,-0.8026,-0.8371,-0.8371,-0.8622,-0.8806,-0.8806,-0.8806,-0.9082,-0.975,-0.9805,-1.0025,-1.0637,-1.0692,-1.0692,-1.0692,-1.0692,-1.0692,-1.0692,-1.0692,-1.0692,-1.0692,-1.0692,-1.0692,-1.0692,-1.0692,-1.0692,-1.0692,-1.0692,-1.0692,-1.0692,-1.0692,-1.0692,-1.0692,-1.0692,-1.0692,-1.0692,-1.0692,-1.0692,-1.0692,-1.0692,-1.0304,-0.9805,-0.9805,-0.9361,-0.8768,-0.8591,-0.8768,-0.8994,-0.8753,-0.89,-0.9073,-0.9073,-0.9024,-0.8907,-0.8626,-0.866,-0.8806,-0.8806,-0.7925,-0.7154,-0.7432,-0.6381,-0.5493,-0.5714,-0.5603,-0.5382,-0.5382,-0.5382,-0.5382,-0.5382,-0.5382,-0.5382,-0.5382,-0.5382,-0.5382,-0.5382,-0.5382,-0.5382,-0.5382,-0.5382,-0.5382,-0.5382,-0.5382,-0.5382,-0.5382,-0.5382,-0.5382,-0.5382,-0.5382,-0.5382,-0.5382,-0.5382,-0.5382,-0.5382,-0.5382,-0.5382,-0.4657,-0.4618,-0.4575,-0.5534,-0.572,-0.5978,-0.7321,-0.8001,-0.8502,-0.9247,-0.878,-0.8217,-0.7968,-0.7537,-0.7089,-0.6789,-0.7211,-0.7553,-0.7553,-0.7785,-0.7953,-0.7953,-0.7999,-0.8195,-0.8806,-0.8861,-0.9082,-0.9581,-0.9636,-0.9805,-1.0135,-1.0194,-1.0359,-1.0692,-1.0692,-1.0692,-1.0692,-1.0692,-1.0527,-1.0194,-1.0194,-0.997,-0.9636,-1.0359,-1.0692,-1.0692,-1.0692,-1.0692,-1.0692,-1.0692,-1.0692,-1.0692,-1.0692,-1.0468,-1.0194,-1.0194,-0.9636,-0.8861,-0.8861,-0.851,-0.8012,-0.7754,-0.7964,-0.8299,-0.797,-0.811,-0.8404,-0.8404,-0.8308,-0.8133,-0.7738,-0.761,-0.7594,-0.7931,-0.7315,-0.6715,-0.6715,-0.5993,-0.5382,-0.5382,-0.5382,-0.5382,-0.5382,-0.5382,-0.5382,-0.5382,-0.5382,-0.5382,-0.5382,-0.5382,-0.5382,-0.5382,-0.5382,-0.5382,-0.5382,-0.5382,-0.5382,-0.5382,-0.5382,-0.5382,-0.5382,-0.5382,-0.5382,-0.5382,-0.5382,-0.5382,-0.5382,-0.5382,-0.5382,-0.5382,-0.5382,-0.5382,-0.586,-0.5476,-0.4988,-0.6453,-0.6088,-0.5769,-0.7494,-0.8477,-0.9055,-0.9244,-0.8773,-0.8035,-0.7238,-0.7036,-0.6739,-0.5992,-0.669,-0.7277,-0.7277,-0.7498,-0.766,-0.766,-0.7704,-0.7773,-0.7828,-0.784,-0.7901,-0.8011,-0.8023,-0.8361,-0.9247,-0.9251,-0.9636,-1.0414,-1.0468,-1.0523,-1.0582,-1.0523,-1.008,-0.9416,-0.9306,-0.8806,-0.8029,-0.9691,-1.0523,-1.0582,-1.0468,-1.0523,-1.0582,-1.0468,-1.0468,-1.0468,-1.0468,-0.997,-0.9251,-0.9251,-0.8696,-0.7867,-0.7867,-0.7897,-0.784,-0.694,-0.7441,-0.817,-0.7347,-0.7649,-0.8366,-0.8366,-0.821,-0.7846,-0.6929,-0.6724,-0.6858,-0.758,-0.716,-0.6604,-0.6604,-0.5938,-0.5382,-0.5382,-0.5382,-0.5382,-0.5382,-0.5382,-0.5382,-0.5382,-0.5382,-0.5382,-0.5382,-0.5382,-0.5382,-0.5382,-0.5382,-0.5382,-0.5382,-0.5382,-0.5382,-0.5382,-0.5382,-0.5382,-0.5382,-0.5382,-0.5382,-0.5382,-0.5382,-0.5382,-0.5382,-0.5382,-0.5382,-0.5382,-0.5382,-0.5382,-0.3684,-0.4034,-0.4432,-0.5303,-0.6269,-0.7,-0.7031,-0.763,-0.8237,-0.857,-0.8011,-0.7188,-0.6389,-0.5737,-0.5284,-0.5085,-0.5317,-0.5536,-0.5536,-0.5643,-0.572,-0.572,-0.5739,-0.6017,-0.6656,-0.6848,-0.7176,-0.7883,-0.7974,-0.8085,-0.8306,-0.8306,-0.8361,-0.8582,-0.8582,-0.8916,-0.9695,-0.8972,-0.8861,-0.9416,-0.864,-0.8195,-0.8029,-0.8416,-0.8972,-0.9636,-0.8916,-0.9027,-0.964,-0.8861,-0.8582,-0.8582,-0.8582,-0.8472,-0.8306,-0.8306,-0.7759,-0.6988,-0.6988,-0.6556,-0.6031,-0.588,-0.6101,-0.6393,-0.6231,-0.6313,-0.6496,-0.6496,-0.6424,-0.6281,-0.6083,-0.5961,-0.588,-0.6011,-0.5877,-0.5659,-0.5659,-0.5549,-0.5382,-0.5382,-0.5382,-0.5382,-0.5382,-0.5382,-0.5382,-0.5382,-0.5382,-0.5382,-0.5382,-0.5382,-0.5382,-0.5382,-0.5382,-0.5382,-0.5382,-0.5382,-0.5382,-0.5382,-0.5382,-0.5382,-0.5382,-0.5382,-0.5382,-0.5382,-0.5382,-0.5382,-0.5382,-0.5382,-0.5382,-0.5382,-0.5382,-0.5382,-0.3682,-0.3839,-0.3764,-0.4401,-0.5284,-0.6034,-0.6178,-0.6552,-0.694,-0.7146,-0.6895,-0.6489,-0.6092,-0.5336,-0.4784,-0.4784,-0.4875,-0.4906,-0.4906,-0.4986,-0.5043,-0.5043,-0.5081,-0.5265,-0.5739,-0.5843,-0.6109,-0.6593,-0.665,-0.6869,-0.7368,-0.7371,-0.7593,-0.7974,-0.7974,-0.8251,-0.8751,-0.8251,-0.8033,-0.8094,-0.7593,-0.7152,-0.6763,-0.7645,-0.8251,-0.8696,-0.8195,-0.8251,-0.8696,-0.8195,-0.7974,-0.7974,-0.7974,-0.7756,-0.7371,-0.7371,-0.6821,-0.6054,-0.61,-0.5897,-0.5588,-0.568,-0.5772,-0.5855,-0.5902,-0.5916,-0.5916,-0.5916,-0.5882,-0.5837,-0.5792,-0.5745,-0.5686,-0.5594,-0.5506,-0.5431,-0.539,-0.5382,-0.5382,-0.5382,-0.5382,-0.5382,-0.5382,-0.5382,-0.5382,-0.5382,-0.5382,-0.5382,-0.5382,-0.5382,-0.5382,-0.5382,-0.5382,-0.5382,-0.5382,-0.5382,-0.5382,-0.5382,-0.5382,-0.5382,-0.5382,-0.5382,-0.5382,-0.5382,-0.5382,-0.5382,-0.5382,-0.5382,-0.5382,-0.5382,-0.5382,-0.5382,-0.3988,-0.3822,-0.3289,-0.3873,-0.4255,-0.4636,-0.5233,-0.5557,-0.5758,-0.57,-0.5864,-0.5942,-0.5842,-0.5236,-0.4784,-0.4784,-0.4784,-0.4784,-0.4784,-0.49,-0.4949,-0.4949,-0.5014,-0.5061,-0.5061,-0.5075,-0.5116,-0.5138,-0.5172,-0.5549,-0.6402,-0.6482,-0.6821,-0.7534,-0.7534,-0.7645,-0.7756,-0.7645,-0.726,-0.6715,-0.6548,-0.6102,-0.5437,-0.6871,-0.7645,-0.7756,-0.759,-0.7645,-0.7756,-0.759,-0.7534,-0.7534,-0.7534,-0.7096,-0.6492,-0.6492,-0.5991,-0.5394,-0.5478,-0.5567,-0.56,-0.5751,-0.5843,-0.5916,-0.5916,-0.5916,-0.5916,-0.5916,-0.5916,-0.59,-0.5825,-0.5804,-0.5782,-0.569,-0.561,-0.5531,-0.5445,-0.5426,-0.5426,-0.5426,-0.5426,-0.5426,-0.5426,-0.5426,-0.5426,-0.5426,-0.5426,-0.5426,-0.5426,-0.5426,-0.5426,-0.5426,-0.5412,-0.5404,-0.5404,-0.539,-0.5382,-0.5382,-0.5382,-0.5382,-0.5382,-0.5382,-0.5382,-0.5382,-0.5382,-0.5382,-0.5382,-0.5382,-0.5382,-0.5382,-0.5382,-0.5382,-0.2233,-0.2826,-0.3461,-0.3903,-0.4645,-0.5131,-0.4689,-0.5085,-0.5428,-0.4962,-0.5471,-0.5792,-0.5087,-0.4885,-0.4784,-0.4784,-0.4784,-0.4784,-0.4784,-0.4794,-0.4802,-0.4802,-0.4813,-0.4821,-0.4821,-0.4943,-0.4996,-0.5008,-0.5155,-0.5249,-0.537,-0.5503,-0.5603,-0.5768,-0.5768,-0.6102,-0.6879,-0.6102,-0.6047,-0.6715,-0.5938,-0.5493,-0.5382,-0.5659,-0.6158,-0.6824,-0.6102,-0.6158,-0.6824,-0.6047,-0.5768,-0.5768,-0.5768,-0.5659,-0.5547,-0.5547,-0.5493,-0.5394,-0.5478,-0.5567,-0.56,-0.5751,-0.5843,-0.5916,-0.5916,-0.5916,-0.5916,-0.5916,-0.5916,-0.5914,-0.5902,-0.59,-0.5876,-0.5784,-0.5753,-0.572,-0.5629,-0.555,-0.555,-0.555,-0.555,-0.555,-0.555,-0.555,-0.555,-0.555,-0.555,-0.555,-0.555,-0.555,-0.555,-0.555,-0.5537,-0.549,-0.549,-0.5424,-0.5382,-0.5382,-0.5382,-0.5382,-0.5382,-0.5382,-0.5382,-0.5382,-0.5382,-0.5382,-0.5382,-0.5382,-0.5382,-0.5382,-0.5382,-0.5382,-0.2118,-0.2773,-0.3431,-0.3897,-0.4349,-0.4606,-0.407,-0.4215,-0.433,-0.3837,-0.4356,-0.4874,-0.4824,-0.4784,-0.4784,-0.4784,-0.4784,-0.4784,-0.4784,-0.4784,-0.4784,-0.4784,-0.4784,-0.4784,-0.4784,-0.4871,-0.4916,-0.5019,-0.5047,-0.5137,-0.5184,-0.5282,-0.5328,-0.538,-0.5382,-0.5603,-0.5993,-0.5603,-0.5605,-0.5993,-0.5603,-0.5382,-0.5382,-0.5382,-0.5605,-0.5938,-0.5547,-0.5605,-0.5938,-0.5549,-0.5382,-0.5382,-0.5382,-0.5382,-0.5382,-0.5382,-0.5382,-0.54,-0.5537,-0.5552,-0.5609,-0.581,-0.5884,-0.5916,-0.5916,-0.5916,-0.5916,-0.5916,-0.5916,-0.5916,-0.5916,-0.5916,-0.5906,-0.5867,-0.5857,-0.5845,-0.5806,-0.5657,-0.5584,-0.5584,-0.5584,-0.5584,-0.5584,-0.5584,-0.5584,-0.5584,-0.5584,-0.5584,-0.5584,-0.5584,-0.5584,-0.5584,-0.555,-0.5584,-0.5584,-0.5549,-0.5506,-0.5455,-0.5451,-0.5431,-0.5384,-0.5382,-0.5382,-0.5382,-0.5382,-0.5382,-0.5382,-0.5382,-0.5382,-0.5382,-0.5382,-0.5382,-0.2157,-0.2633,-0.3102,-0.3718,-0.3933,-0.3976,-0.3837,-0.3721,-0.36,-0.3249,-0.3491,-0.3891,-0.4335,-0.4618,-0.4784,-0.4784,-0.4784,-0.4784,-0.4784,-0.4784,-0.4784,-0.4784,-0.4784,-0.4784,-0.4784,-0.4784,-0.4863,-0.4932,-0.4959,-0.5032,-0.5167,-0.5144,-0.5251,-0.5343,-0.5347,-0.5359,-0.5382,-0.5382,-0.5382,-0.5382,-0.5382,-0.5382,-0.5382,-0.5382,-0.5382,-0.5382,-0.5382,-0.5382,-0.5382,-0.5382,-0.5382,-0.5382,-0.5382,-0.5382,-0.5382,-0.5382,-0.5382,-0.5404,-0.5557,-0.555,-0.558,-0.5823,-0.5882,-0.5886,-0.591,-0.5916,-0.5916,-0.5916,-0.5916,-0.5916,-0.5916,-0.5916,-0.5916,-0.5916,-0.5916,-0.5916,-0.5916,-0.581,-0.5653,-0.5653,-0.5653,-0.5653,-0.5653,-0.5653,-0.5653,-0.5653,-0.5653,-0.5653,-0.5653,-0.5653,-0.5653,-0.5653,-0.5633,-0.5678,-0.5678,-0.5598,-0.5556,-0.5547,-0.552,-0.548,-0.5416,-0.5394,-0.5382,-0.5382,-0.5382,-0.5382,-0.5382,-0.5382,-0.5382,-0.5382,-0.5382,-0.5382,-0.1803,-0.1994,-0.2287,-0.3217,-0.3503,-0.3667,-0.4146,-0.3901,-0.3614,-0.3644,-0.3338,-0.3098,-0.3269,-0.4134,-0.4784,-0.4784,-0.4784,-0.4784,-0.4784,-0.4784,-0.4784,-0.4784,-0.4784,-0.4784,-0.4784,-0.4784,-0.4786,-0.479,-0.4922,-0.5027,-0.4986,-0.5067,-0.5157,-0.5194,-0.5196,-0.5294,-0.538,-0.5382,-0.5382,-0.5382,-0.5382,-0.5382,-0.5382,-0.5382,-0.5382,-0.5382,-0.5382,-0.5382,-0.5382,-0.5382,-0.5382,-0.5382,-0.5382,-0.5382,-0.5382,-0.5382,-0.5382,-0.5394,-0.5484,-0.5514,-0.5545,-0.5729,-0.5788,-0.5804,-0.5892,-0.5916,-0.5916,-0.5916,-0.5916,-0.5916,-0.5916,-0.5916,-0.5916,-0.5916,-0.5916,-0.5916,-0.5916,-0.591,-0.5902,-0.5902,-0.5902,-0.5902,-0.5902,-0.5902,-0.5902,-0.5902,-0.5902,-0.5902,-0.5902,-0.5902,-0.5902,-0.5902,-0.5827,-0.5774,-0.5774,-0.5694,-0.5582,-0.5578,-0.5555,-0.5506,-0.5502,-0.5424,-0.5382,-0.5382,-0.5382,-0.5382,-0.5382,-0.5382,-0.5382,-0.5382,-0.5382,-0.5382,-0.1803,-0.1932,-0.2076,-0.274,-0.3178,-0.3335,-0.2972,-0.3018,-0.2976,-0.2395,-0.2405,-0.2566,-0.2635,-0.3276,-0.3877,-0.4225,-0.4282,-0.4384,-0.4734,-0.4784,-0.4784,-0.4784,-0.4784,-0.4784,-0.4784,-0.4784,-0.4784,-0.4784,-0.4865,-0.491,-0.5021,-0.5004,-0.5063,-0.5155,-0.516,-0.5288,-0.538,-0.5382,-0.5382,-0.5382,-0.5382,-0.5382,-0.5382,-0.5382,-0.5382,-0.5382,-0.5382,-0.5382,-0.5382,-0.5382,-0.5382,-0.5382,-0.5382,-0.5382,-0.5382,-0.5382,-0.5382,-0.5394,-0.5478,-0.5508,-0.5539,-0.572,-0.5782,-0.5798,-0.589,-0.5916,-0.5916,-0.5916,-0.5916,-0.5916,-0.5916,-0.5916,-0.5916,-0.5916,-0.5916,-0.5916,-0.5916,-0.5916,-0.5916,-0.5916,-0.5916,-0.5916,-0.5916,-0.5916,-0.5916,-0.5916,-0.5916,-0.5916,-0.5916,-0.5916,-0.5916,-0.5916,-0.5888,-0.5867,-0.5867,-0.5839,-0.5794,-0.5735,-0.57,-0.5631,-0.5512,-0.5478,-0.5437,-0.5382,-0.5382,-0.5382,-0.5382,-0.5382,-0.5382,-0.5382,-0.5382,-0.5382,-0.1609,-0.1687,-0.1815,-0.2262,-0.2686,-0.2873,-0.2419,-0.2516,-0.2476,-0.1872,-0.1877,-0.2028,-0.202,-0.2336,-0.2863,-0.3632,-0.3717,-0.3833,-0.4234,-0.4435,-0.4533,-0.4533,-0.4684,-0.4784,-0.4784,-0.4784,-0.4784,-0.4784,-0.4784,0.0,-0.4922,-0.4924,-0.4981,-0.5104,-0.5144,-0.5288,-0.538,-0.5382,-0.5382,-0.5382,-0.5382,-0.5382,-0.5382,-0.5382,-0.5382,-0.5382,-0.5382,-0.5382,-0.5382,-0.5382,-0.5382,-0.5382,-0.5382,-0.5382,-0.5382,-0.5382,-0.5382,-0.539,-0.5445,-0.5465,-0.5494,-0.5676,-0.5735,-0.5757,-0.588,-0.5916,-0.5916,-0.5916,-0.5916,-0.5916,-0.5916,-0.5916,-0.5916,-0.5916,-0.5916,-0.5916,-0.5916,-0.5916,-0.5916,-0.5916,-0.5916,-0.5916,-0.5916,-0.5916,-0.5916,-0.5916,-0.5916,-0.5916,-0.5916,-0.5916,-0.5916,-0.5916,-0.5916,-0.5916,-0.5916,-0.5916,-0.5892,-0.5831,-0.5798,-0.5712,-0.5559,-0.5524,-0.5467,-0.5384,-0.5382,-0.5382,-0.5382,-0.5382,-0.5382,-0.5382,-0.5382,-0.5382,0.0,0.0,0.0,-0.1856,-0.2023,-0.2196,-0.2674,-0.2471,-0.2198,-0.2199,-0.1749,-0.1399,-0.1474,-0.148,-0.1874,-0.297,-0.3185,-0.3175,-0.3177,-0.3629,-0.3981,-0.3982,-0.4433,-0.4784,-0.4784,-0.4784,-0.4784,-0.4784,-0.4784,-0.4784,-0.4784,-0.4784,-0.4867,-0.5098,-0.514,-0.5284,-0.5375,-0.538,-0.5382,-0.5382,-0.5382,-0.5382,-0.5382,-0.5382,-0.5382,-0.5382,-0.5382,-0.5382,-0.5382,-0.5382,-0.5382,-0.5382,-0.5382,-0.5382,-0.5382,-0.5382,-0.5382,-0.5382,-0.5382,-0.5384,-0.5414,-0.553,-0.5586,-0.5623,-0.5863,-0.5916,-0.5916,-0.5916,-0.5916,-0.5916,-0.5916,-0.5916,-0.5916,-0.5916,-0.5916,-0.5916,-0.5916,-0.5916,-0.5916,-0.5916,-0.5916,-0.5916,-0.5916,-0.5916,-0.5916,-0.5916,-0.5916,-0.5916,-0.5916,-0.5916,-0.5916,-0.5916,-0.5916,-0.5916,-0.5916,-0.5916,-0.5916,-0.5916,-0.5835,-0.5743,-0.5588,-0.5559,-0.5471,-0.5384,-0.5382,-0.5382,-0.5382,-0.5382,-0.5382,-0.5382,-0.5382,-0.5382,-0.1296,0.0,0.0,0.0,0.0,0.0,-0.1774,-0.1944,-0.2026,-0.1699,-0.1525,-0.1393,-0.1446,-0.1466,-0.1625,-0.1925,-0.2295,-0.2725,-0.3158,-0.3313,-0.3429,-0.3426,-0.3882,-0.4234,-0.4234,-0.4583,-0.4784,0.0,-0.4784,-0.4784,-0.4784,-0.4784,-0.4888,-0.5006,-0.5098,-0.519,-0.5282,-0.5347,-0.5382,-0.5382,-0.5382,-0.5382,-0.5382,-0.5382,-0.5382,-0.5382,-0.5382,-0.5382,-0.5382,-0.5382,-0.5382,-0.5382,-0.5382,-0.5382,-0.5382,-0.5382,-0.5382,-0.5382,-0.5382,-0.5422,-0.5492,-0.5548,-0.569,-0.5765,-0.5882,-0.5916,-0.5916,-0.5916,-0.5916,-0.5916,-0.5916,-0.5916,-0.5916,-0.5916,-0.5916,-0.5916,-0.5916,-0.5916,-0.5916,-0.5916,-0.5916,-0.5916,-0.5916,-0.5916,-0.5916,-0.5916,-0.5916,-0.5916,-0.5916,-0.5916,-0.5916,-0.5916,-0.5916,-0.5916,-0.5916,-0.5916,-0.5916,-0.5916,-0.5894,-0.5808,-0.559,-0.5562,-0.5535,-0.5386,-0.5382,-0.5382,-0.5382,-0.5382,-0.5382,-0.5382,-0.5382,-0.5382,-0.1296,-0.1296,-0.1296,-0.1296,0.0,0.0,-0.1383,-0.1584,-0.1748,-0.1473,-0.1391,-0.1391,-0.1391,-0.145,-0.1462,-0.1462,-0.1706,-0.2065,-0.2415,-0.2665,-0.2823,-0.2805,-0.3324,-0.3688,-0.3688,-0.3964,-0.4234,-0.4433,-0.4483,-0.4583,-0.4784,-0.4784,-0.4877,-0.5021,-0.5022,-0.5114,-0.5188,-0.5298,-0.5343,-0.5382,-0.5382,-0.5382,-0.5382,-0.5382,-0.5382,-0.5382,-0.5382,-0.5382,-0.5382,-0.5382,-0.5382,-0.5382,-0.5382,-0.5382,-0.5382,-0.5382,-0.5382,-0.5382,-0.5382,-0.5437,-0.5522,-0.5556,-0.5706,-0.5798,-0.589,-0.5916,-0.5916,-0.5916,-0.5916,-0.5916,-0.5916,-0.5916,-0.5916,-0.5916,-0.5916,-0.5916,-0.5916,-0.5916,-0.5916,-0.5916,-0.5916,-0.5916,-0.5916,-0.5916,-0.5916,-0.5916,-0.5916,-0.5916,-0.5916,-0.5916,-0.5916,-0.5916,-0.5916,-0.5916,-0.5916,-0.5916,-0.5916,-0.5916,-0.5916,-0.5835,-0.5592,-0.5584,-0.5561,-0.5386,-0.5382,-0.5382,-0.5382,-0.5382,-0.5382,-0.5382,-0.5382,-0.5382,-0.1307,-0.1305,-0.1302,-0.1302,-0.132,0.0,-0.1298,-0.1367,-0.1395,-0.1383,-0.1391,-0.1391,-0.1391,-0.1391,-0.1391,-0.1391,-0.1391,-0.141,-0.1513,-0.1899,-0.2232,-0.2189,-0.2757,-0.3081,-0.3081,-0.3184,-0.342,-0.387,-0.3977,-0.4234,-0.4784,-0.4784,-0.4873,-0.4953,-0.4967,-0.5055,-0.5174,-0.5184,-0.529,-0.5382,-0.5382,-0.5382,-0.5382,-0.5382,-0.5382,-0.5382,-0.5382,-0.5382,-0.5382,-0.5382,-0.5382,-0.5382,-0.5382,-0.5382,-0.5382,-0.5382,-0.5382,-0.5382,-0.5382,-0.5443,-0.5535,-0.556,-0.5712,-0.581,-0.5894,-0.5916,-0.5916,-0.5916,-0.5916,-0.5916,-0.5916,-0.5916,-0.5916,-0.5916,-0.5916,-0.5916,-0.5916,-0.5916,-0.5916,-0.5916,-0.5916,-0.5916,-0.5916,-0.5916,-0.5916,-0.5916,-0.5916,-0.5916,-0.5916,-0.5916,-0.5916,-0.5916,-0.5916,-0.5916,-0.5916,-0.5916,-0.5916,-0.5916,-0.5908,-0.5825,-0.5592,-0.5576,-0.5551,-0.5386,-0.5382,-0.5382,-0.5382,-0.5382,-0.5382,-0.5382,-0.5382,-0.5382,-0.1288,-0.1312,-0.1294,-0.1294,-0.132,0.0,-0.1294,-0.131,-0.1329,-0.138,-0.1391,-0.1391,-0.1391,-0.1391,-0.1391,-0.1391,-0.1391,-0.1403,-0.1485,-0.1582,-0.1639,-0.1665,-0.2151,-0.249,-0.249,-0.2925,-0.3257,-0.3355,-0.3749,-0.4234,-0.4784,-0.4784,-0.4792,-0.4861,-0.4932,-0.5024,-0.5132,-0.5154,-0.529,-0.5382,-0.5382,-0.5382,-0.5382,-0.5382,-0.5382,-0.5382,-0.5382,-0.5382,-0.5382,-0.5382,-0.5382,-0.5382,-0.5382,-0.5382,-0.5382,-0.5382,-0.5382,-0.5382,-0.5382,-0.5486,-0.5562,-0.5578,-0.5755,-0.5894,-0.5912,-0.5916,-0.5916,-0.5916,-0.5916,-0.5916,-0.5916,-0.5916,-0.5916,-0.5916,-0.5916,-0.5916,-0.5916,-0.5916,-0.5916,-0.5916,-0.5916,-0.5916,-0.5916,-0.5916,-0.5916,-0.5916,-0.5916,-0.5916,-0.5916,-0.5916,-0.5916,-0.5916,-0.5916,-0.5916,-0.5916,-0.5916,-0.5916,-0.5916,-0.5847,-0.5759,-0.5588,-0.5573,-0.5486,-0.5384,-0.5382,-0.5382,-0.5382,-0.5382,-0.5382,-0.5382,-0.5382,-0.5382,-0.1305,-0.1295,-0.1284,-0.1284,-0.1313,0.0,0.0,-0.1369,-0.1339,-0.1381,-0.1391,-0.1391,-0.1391,-0.1391,-0.1391,-0.1391,-0.1391,-0.1395,-0.1456,-0.1458,-0.1463,-0.1433,-0.1727,-0.1925,-0.1925,-0.2151,-0.2476,-0.2794,-0.3295,-0.3831,-0.4383,-0.4384,-0.4533,-0.4784,-0.4626,-0.469,-0.5039,-0.4864,-0.4951,-0.5314,-0.5359,-0.5382,-0.5382,-0.5382,-0.5382,-0.5382,-0.5382,-0.5382,-0.5382,-0.5382,-0.5382,-0.5382,-0.5382,-0.5382,-0.5382,-0.5382,-0.5382,-0.5382,-0.5382,-0.5496,-0.5584,-0.5584,-0.5708,-0.5916,-0.5916,-0.5916,-0.5916,-0.5916,-0.5916,-0.5916,-0.5916,-0.5916,-0.5916,-0.5916,-0.5916,-0.5916,-0.5916,-0.5916,-0.5794,-0.5483,-0.5669,-0.5916,-0.5916,-0.5916,-0.5916,-0.5916,-0.5916,-0.5916,-0.5916,-0.5916,-0.5916,-0.5916,-0.5916,-0.5916,-0.5916,-0.5916,-0.5916,-0.5916,-0.5831,-0.5739,-0.5588,-0.5555,-0.5467,-0.5384,-0.5382,-0.5382,-0.5382,-0.5382,-0.5382,-0.5382,-0.5382,-0.5382,-0.1322,-0.1318,-0.1313,-0.1313,-0.1309,-0.1313,0.0,0.0,0.0,-0.1384,-0.1391,-0.1391,-0.1391,-0.1391,-0.1389,-0.1383,0.0,0.0,0.0,-0.1387,0.0,-0.1391,-0.1457,-0.1472,-0.1472,-0.15,-0.1771,-0.2349,-0.2787,-0.3267,-0.3831,-0.3932,-0.4183,-0.4634,-0.4234,-0.4271,-0.4816,-0.4487,-0.4566,-0.5025,-0.5281,-0.5382,-0.5382,-0.5382,-0.5382,-0.5382,-0.5268,-0.5212,-0.5212,-0.5212,-0.5212,-0.5212,-0.5382,-0.5382,-0.5382,-0.5382,-0.5382,-0.5382,-0.5382,-0.5496,-0.5584,-0.5584,-0.5708,-0.5916,-0.5916,-0.5916,-0.5916,-0.5916,-0.5916,-0.5916,-0.5916,-0.5916,-0.5855,-0.573,-0.573,-0.5669,-0.5548,-0.5485,-0.5362,-0.4803,-0.5237,-0.573,-0.573,-0.5794,-0.5916,-0.5916,-0.5916,-0.5916,-0.5916,-0.5916,-0.5916,-0.5916,-0.5916,-0.5916,-0.5916,-0.5916,-0.591,-0.5892,-0.5804,-0.5714,-0.5564,-0.5531,-0.5394,-0.5214,-0.5326,-0.5326,-0.5212,-0.5326,-0.5382,-0.5382,-0.5382,-0.5382,-0.1381,-0.1406,-0.1385,-0.1385,-0.1324,-0.1313,-0.1384,0.0,-0.1399,-0.1384,0.0,-0.1391,-0.1391,0.0,0.0,-0.1399,-0.1418,-0.1381,-0.1399,-0.1418,-0.1391,-0.1391,-0.1393,-0.1395,-0.1395,-0.1468,-0.1745,-0.2347,-0.2456,-0.2726,-0.3278,-0.3732,-0.4033,-0.4083,-0.4033,-0.407,-0.4302,-0.4276,-0.435,-0.4477,-0.5113,-0.5382,-0.5382,-0.5382,-0.5382,-0.5382,-0.4817,-0.4592,-0.4592,-0.4592,-0.4592,-0.4648,-0.5212,-0.5382,-0.5382,-0.5382,-0.5382,-0.5382,-0.5382,-0.5496,-0.5584,-0.5584,-0.5708,-0.5916,-0.5916,-0.5916,-0.5916,-0.5916,-0.5916,-0.5916,-0.5916,-0.5916,-0.5732,-0.5174,-0.4988,-0.4865,-0.4252,-0.4129,-0.4129,-0.4006,-0.4558,-0.4988,-0.4988,-0.5483,-0.5916,-0.5916,-0.5916,-0.5916,-0.5916,-0.5916,-0.5916,-0.5916,-0.5916,-0.5916,-0.5916,-0.5916,-0.5882,-0.5802,-0.571,-0.556,-0.5527,-0.5441,-0.5164,-0.4592,-0.5156,-0.5156,-0.4592,-0.5156,-0.5382,-0.5382,-0.5382,-0.5382,-0.1461,-0.144,-0.1416,-0.1416,-0.1364,-0.1358,-0.1414,-0.1416,-0.142,-0.1387,0.0,0.0,0.0,0.0,0.0,0.0,-0.1412,-0.1405,-0.1392,0.0,-0.1354,-0.1386,0.0,0.0,-0.1391,-0.1463,-0.1584,-0.1847,-0.1938,-0.2167,-0.2729,-0.2958,-0.3379,-0.3982,-0.3379,-0.3391,-0.408,-0.3571,-0.3634,-0.436,-0.4702,-0.5043,-0.5382,-0.5382,-0.5212,-0.4873,-0.4592,-0.4313,-0.3977,-0.3977,-0.3977,-0.3979,-0.426,-0.4763,-0.5382,-0.5382,-0.5382,-0.5382,-0.5382,-0.5496,-0.5544,-0.5285,-0.4999,-0.4745,-0.4745,-0.4745,-0.4807,-0.5235,-0.5053,-0.4807,-0.5235,-0.5053,-0.4684,-0.4373,-0.4312,-0.425,-0.3943,-0.3883,-0.3883,-0.3883,-0.4127,-0.4435,-0.4803,-0.5483,-0.5916,-0.5916,-0.5916,-0.5916,-0.5916,-0.5916,-0.5916,-0.5916,-0.5916,-0.5916,-0.5916,-0.5916,-0.5878,-0.5788,-0.5293,-0.5008,-0.4925,-0.4555,-0.4426,-0.448,-0.4761,-0.4931,-0.5043,-0.5268,-0.5382,-0.5382,-0.5382,-0.5382,-0.1493,-0.1471,-0.1448,-0.1448,-0.1397,-0.1391,-0.1391,-0.1391,-0.1391,-0.1391,-0.1391,0.0,0.0,0.0,-0.1387,-0.1379,0.0,-0.1387,-0.138,-0.1318,-0.1324,-0.1372,0.0,0.0,0.0,-0.1455,-0.1472,-0.148,-0.1521,-0.1748,-0.2157,-0.2335,-0.2759,-0.3528,-0.2823,-0.2774,-0.353,-0.293,-0.3036,-0.3837,-0.4136,-0.4482,-0.4933,-0.51,-0.4819,-0.4257,-0.4257,-0.3923,-0.3365,-0.3365,-0.3365,-0.3365,-0.3531,-0.4148,-0.4933,-0.4933,-0.4989,-0.5156,-0.4989,-0.4982,-0.5025,-0.4757,-0.4312,-0.3883,-0.3883,-0.3883,-0.4004,-0.4496,-0.425,-0.4004,-0.4496,-0.425,-0.3881,-0.3698,-0.3637,-0.3575,-0.3391,-0.339,-0.3453,-0.3637,-0.376,-0.4127,-0.4802,-0.5297,-0.5669,-0.5855,-0.5916,-0.5916,-0.5916,-0.5916,-0.5916,-0.5916,-0.5916,-0.5916,-0.5916,-0.571,-0.5528,-0.524,-0.4635,-0.4312,-0.4258,-0.381,-0.3811,-0.4257,-0.4424,-0.4706,-0.5156,-0.5326,-0.5382,-0.5382,-0.5382,-0.5382,-0.1477,0.0,-0.1479,-0.1479,-0.1457,-0.1391,-0.1391,-0.1391,-0.1391,-0.1391,-0.1391,-0.1391,-0.1391,-0.1391,-0.1381,-0.1396,-0.1391,0.0,0.0,-0.1306,-0.1316,-0.1388,-0.1417,0.0,0.0,-0.1391,-0.1449,-0.1478,-0.1483,-0.1556,-0.1617,-0.2111,-0.2425,-0.247,-0.2422,-0.2422,-0.2472,-0.2564,-0.2611,-0.2665,-0.331,-0.3643,-0.3699,-0.4257,-0.4201,-0.3643,-0.3643,-0.3307,-0.275,-0.275,-0.275,-0.2806,-0.3365,-0.3643,-0.3643,-0.3643,-0.4035,-0.4424,-0.3866,-0.3725,-0.3848,-0.3906,-0.3944,-0.3883,-0.3883,-0.3883,-0.3883,-0.3944,-0.3944,-0.3883,-0.3944,-0.3944,-0.376,-0.3145,-0.3023,-0.2838,-0.2223,-0.2038,-0.2223,-0.29,-0.3513,-0.4127,-0.4802,-0.4926,-0.5174,-0.5794,-0.5916,-0.5916,-0.5916,-0.5916,-0.5916,-0.5916,-0.5916,-0.5916,-0.5916,-0.5291,-0.4583,-0.3806,-0.3681,-0.3646,-0.3643,-0.3587,-0.3587,-0.3643,-0.4201,-0.4536,-0.4536,-0.5098,-0.5382,-0.5382,-0.5382,-0.5382,0.0,0.0,-0.151,-0.151,0.0,0.0,0.0,-0.1466,-0.1459,-0.1395,-0.1391,-0.1391,-0.1391,-0.1391,-0.1387,-0.1422,-0.1403,-0.138,0.0,-0.1289,-0.1322,-0.1331,-0.1375,-0.1406,0.0,0.0,-0.1395,-0.145,-0.1469,-0.1498,-0.1539,-0.1755,-0.2029,-0.2369,-0.207,-0.2019,-0.2422,-0.2121,-0.2213,-0.2612,-0.2837,-0.3161,-0.3587,-0.3811,-0.3587,-0.303,-0.303,-0.2636,-0.2132,-0.2132,-0.2132,-0.2132,-0.2355,-0.2411,-0.2523,-0.3307,-0.3755,-0.3879,-0.3795,-0.35,-0.3136,-0.3297,-0.3023,-0.2653,-0.2653,-0.2653,-0.2715,-0.3207,-0.2961,-0.2715,-0.3207,-0.2961,-0.2592,-0.2407,-0.2346,-0.2285,-0.2038,-0.1977,-0.2223,-0.29,-0.2776,-0.2961,-0.4067,-0.3883,-0.413,-0.5671,-0.5916,-0.5916,-0.5916,-0.5916,-0.5916,-0.5916,-0.5483,-0.5215,-0.5227,-0.4567,-0.4011,-0.3739,-0.3282,-0.303,-0.303,-0.2636,-0.2803,-0.3587,-0.3811,-0.4314,-0.5098,-0.5324,-0.5382,-0.5382,-0.5382,-0.5382,-0.1588,-0.1566,0.0,-0.1542,-0.1534,0.0,-0.1501,0.0,-0.1488,-0.1457,-0.1451,-0.1448,-0.1393,-0.1391,-0.1391,-0.1391,-0.141,-0.138,0.0,-0.128,-0.1303,-0.1303,-0.1346,-0.1379,-0.1388,-0.1408,-0.1379,-0.139,-0.1453,-0.1483,0.0,-0.1545,-0.1721,-0.2118,-0.1768,-0.1768,-0.212,-0.1852,-0.1886,-0.2291,-0.2277,-0.2537,-0.2971,-0.3197,-0.2973,-0.2413,-0.2581,-0.2356,-0.1795,-0.1795,-0.1795,-0.1795,-0.1795,-0.1795,-0.1907,-0.2691,-0.2971,-0.2985,-0.3318,-0.3003,-0.2486,-0.2627,-0.2346,-0.1977,-0.1977,-0.1977,-0.2097,-0.2514,-0.2337,-0.2097,-0.2513,-0.2337,-0.1977,-0.1977,-0.1977,-0.1977,-0.1977,-0.1977,-0.2223,-0.29,-0.2654,-0.2654,-0.3698,-0.3576,-0.3822,-0.5298,-0.5546,-0.5607,-0.5855,-0.5916,-0.5794,-0.5546,-0.5149,-0.4727,-0.4215,-0.3663,-0.3267,-0.3021,-0.2596,-0.2356,-0.2356,-0.202,-0.2361,-0.362,-0.3598,-0.4215,-0.5426,-0.5396,-0.5382,-0.5382,-0.5156,-0.5098]}]]